<?xml version="1.0" encoding="UTF-8" standalone="no" ?>
<gpx xmlns="http://www.topografix.com/GPX/1/1" xmlns:xsi="http://www.w3.org/2001/XMLSchema-instance" xsi:schemaLocation="http://www.topografix.com/GPX/1/1 http://www.topografix.com/GPX/1/1/gpx.xsd" version="1.1" creator="VisuGPX - https://www.visugpx.com">
  <metadata>
    <name>Rocher-Rond Lavaldens (38350)</name>
    <desc><![CDATA[

Rocher-Rond Lavaldens (38350)
De Lavaldens prendre la route du Pay jusqu'à la quatrième épingle ou se situe le départ de la randonnée. Suivre la large piste vers la maison Poncet. Ensuite monter en suivant les sentes et le plus souvent monter à vue vers l'est par la combe des Choumeaux le cheminement est difficile et la pente raide. arrivée sur la crête (2000m) la suivre  au sud pour atteindre le rocher Rond (2320m)
Le retour s'effectue par la crête sud en suivant les arêtes (nous avons évité, en revenant vers le nord par le sentier de montée, un passage sur l'arête sud que nous jugions délicat).Descente rapide par la crête des Choumeaux sud qui domine les vallons abrupts et très découpés,très beaux paysages. retour sur la piste de départ par la baraque du "Pré du clot" que nous évitons accompagnés par un patou non agressif mais très persuasif.
Belle rando souvent hors sentier à éviter par temps pluvieux.]]></desc>
  </metadata>
  <trk>
    <name><![CDATA[2020-09-08 15:52:40]]></name>
    <trkseg>
      <trkpt lat="44.98339" lon="5.89374">
        <ele>1219.57</ele>
        <time>2020-09-08T06:36:24Z</time>
      </trkpt>
      <trkpt lat="44.98339" lon="5.89376">
        <ele>1219.57</ele>
        <time>2020-09-08T06:36:25Z</time>
      </trkpt>
      <trkpt lat="44.98339" lon="5.89385">
        <ele>1222.93</ele>
        <time>2020-09-08T06:36:43Z</time>
      </trkpt>
      <trkpt lat="44.98338" lon="5.89385">
        <ele>1220.53</ele>
        <time>2020-09-08T06:36:52Z</time>
      </trkpt>
      <trkpt lat="44.9834" lon="5.89393">
        <ele>1220.53</ele>
        <time>2020-09-08T06:37:14Z</time>
      </trkpt>
      <trkpt lat="44.98341" lon="5.89396">
        <ele>1221.49</ele>
        <time>2020-09-08T06:37:16Z</time>
      </trkpt>
      <trkpt lat="44.98341" lon="5.89399">
        <ele>1221.49</ele>
        <time>2020-09-08T06:37:18Z</time>
      </trkpt>
      <trkpt lat="44.98352" lon="5.89421">
        <ele>1222.93</ele>
        <time>2020-09-08T06:37:33Z</time>
      </trkpt>
      <trkpt lat="44.98353" lon="5.89421">
        <ele>1222.93</ele>
        <time>2020-09-08T06:37:34Z</time>
      </trkpt>
      <trkpt lat="44.9836" lon="5.8942">
        <ele>1223.9</ele>
        <time>2020-09-08T06:37:42Z</time>
      </trkpt>
      <trkpt lat="44.98366" lon="5.8942">
        <ele>1225.82</ele>
        <time>2020-09-08T06:37:56Z</time>
      </trkpt>
      <trkpt lat="44.98365" lon="5.89419">
        <ele>1225.82</ele>
        <time>2020-09-08T06:38:14Z</time>
      </trkpt>
      <trkpt lat="44.98364" lon="5.89427">
        <ele>1227.74</ele>
        <time>2020-09-08T06:38:28Z</time>
      </trkpt>
      <trkpt lat="44.98364" lon="5.89428">
        <ele>1227.26</ele>
        <time>2020-09-08T06:38:29Z</time>
      </trkpt>
      <trkpt lat="44.98364" lon="5.89434">
        <ele>1227.26</ele>
        <time>2020-09-08T06:38:34Z</time>
      </trkpt>
      <trkpt lat="44.98365" lon="5.89466">
        <ele>1228.7</ele>
        <time>2020-09-08T06:38:53Z</time>
      </trkpt>
      <trkpt lat="44.98364" lon="5.89496">
        <ele>1230.14</ele>
        <time>2020-09-08T06:39:12Z</time>
      </trkpt>
      <trkpt lat="44.98367" lon="5.89514">
        <ele>1232.55</ele>
        <time>2020-09-08T06:39:27Z</time>
      </trkpt>
      <trkpt lat="44.98366" lon="5.89544">
        <ele>1233.03</ele>
        <time>2020-09-08T06:39:43Z</time>
      </trkpt>
      <trkpt lat="44.9836" lon="5.8958">
        <ele>1233.51</ele>
        <time>2020-09-08T06:40:01Z</time>
      </trkpt>
      <trkpt lat="44.98353" lon="5.89614">
        <ele>1232.07</ele>
        <time>2020-09-08T06:40:19Z</time>
      </trkpt>
      <trkpt lat="44.98348" lon="5.89643">
        <ele>1231.11</ele>
        <time>2020-09-08T06:40:35Z</time>
      </trkpt>
      <trkpt lat="44.98344" lon="5.89681">
        <ele>1229.66</ele>
        <time>2020-09-08T06:40:53Z</time>
      </trkpt>
      <trkpt lat="44.98334" lon="5.8971">
        <ele>1227.74</ele>
        <time>2020-09-08T06:41:07Z</time>
      </trkpt>
      <trkpt lat="44.98324" lon="5.8974">
        <ele>1226.3</ele>
        <time>2020-09-08T06:41:23Z</time>
      </trkpt>
      <trkpt lat="44.98318" lon="5.89753">
        <ele>1225.82</ele>
        <time>2020-09-08T06:41:32Z</time>
      </trkpt>
      <trkpt lat="44.98317" lon="5.89754">
        <ele>1225.34</ele>
        <time>2020-09-08T06:41:34Z</time>
      </trkpt>
      <trkpt lat="44.98315" lon="5.89754">
        <ele>1225.34</ele>
        <time>2020-09-08T06:41:36Z</time>
      </trkpt>
      <trkpt lat="44.98309" lon="5.89753">
        <ele>1226.3</ele>
        <time>2020-09-08T06:41:46Z</time>
      </trkpt>
      <trkpt lat="44.98302" lon="5.89751">
        <ele>1226.3</ele>
        <time>2020-09-08T06:42:06Z</time>
      </trkpt>
      <trkpt lat="44.98301" lon="5.8975">
        <ele>1226.3</ele>
        <time>2020-09-08T06:42:30Z</time>
      </trkpt>
      <trkpt lat="44.98299" lon="5.89752">
        <ele>1226.3</ele>
        <time>2020-09-08T06:42:43Z</time>
      </trkpt>
      <trkpt lat="44.98289" lon="5.89742">
        <ele>1224.86</ele>
        <time>2020-09-08T06:42:57Z</time>
      </trkpt>
      <trkpt lat="44.98287" lon="5.89715">
        <ele>1225.34</ele>
        <time>2020-09-08T06:43:12Z</time>
      </trkpt>
      <trkpt lat="44.98282" lon="5.89694">
        <ele>1226.3</ele>
        <time>2020-09-08T06:43:27Z</time>
      </trkpt>
      <trkpt lat="44.98273" lon="5.89679">
        <ele>1230.14</ele>
        <time>2020-09-08T06:43:42Z</time>
      </trkpt>
      <trkpt lat="44.98266" lon="5.89667">
        <ele>1231.59</ele>
        <time>2020-09-08T06:43:57Z</time>
      </trkpt>
      <trkpt lat="44.98263" lon="5.89662">
        <ele>1233.51</ele>
        <time>2020-09-08T06:44:09Z</time>
      </trkpt>
      <trkpt lat="44.98258" lon="5.89649">
        <ele>1235.91</ele>
        <time>2020-09-08T06:44:24Z</time>
      </trkpt>
      <trkpt lat="44.98257" lon="5.89623">
        <ele>1238.8</ele>
        <time>2020-09-08T06:44:40Z</time>
      </trkpt>
      <trkpt lat="44.98254" lon="5.89597">
        <ele>1242.64</ele>
        <time>2020-09-08T06:44:57Z</time>
      </trkpt>
      <trkpt lat="44.98255" lon="5.89585">
        <ele>1243.12</ele>
        <time>2020-09-08T06:45:03Z</time>
      </trkpt>
      <trkpt lat="44.9825" lon="5.89559">
        <ele>1246.01</ele>
        <time>2020-09-08T06:45:19Z</time>
      </trkpt>
      <trkpt lat="44.98249" lon="5.89549">
        <ele>1248.89</ele>
        <time>2020-09-08T06:45:34Z</time>
      </trkpt>
      <trkpt lat="44.98252" lon="5.89558">
        <ele>1251.77</ele>
        <time>2020-09-08T06:45:47Z</time>
      </trkpt>
      <trkpt lat="44.98247" lon="5.89566">
        <ele>1255.14</ele>
        <time>2020-09-08T06:46:02Z</time>
      </trkpt>
      <trkpt lat="44.98238" lon="5.89555">
        <ele>1257.54</ele>
        <time>2020-09-08T06:46:19Z</time>
      </trkpt>
      <trkpt lat="44.98223" lon="5.89542">
        <ele>1259.94</ele>
        <time>2020-09-08T06:46:34Z</time>
      </trkpt>
      <trkpt lat="44.98215" lon="5.89527">
        <ele>1262.83</ele>
        <time>2020-09-08T06:46:50Z</time>
      </trkpt>
      <trkpt lat="44.98202" lon="5.8951">
        <ele>1265.71</ele>
        <time>2020-09-08T06:47:07Z</time>
      </trkpt>
      <trkpt lat="44.98194" lon="5.89498">
        <ele>1266.19</ele>
        <time>2020-09-08T06:47:28Z</time>
      </trkpt>
      <trkpt lat="44.98189" lon="5.89489">
        <ele>1268.12</ele>
        <time>2020-09-08T06:47:39Z</time>
      </trkpt>
      <trkpt lat="44.98178" lon="5.89473">
        <ele>1271.48</ele>
        <time>2020-09-08T06:47:56Z</time>
      </trkpt>
      <trkpt lat="44.98173" lon="5.89455">
        <ele>1274.36</ele>
        <time>2020-09-08T06:48:12Z</time>
      </trkpt>
      <trkpt lat="44.98165" lon="5.89439">
        <ele>1277.73</ele>
        <time>2020-09-08T06:48:27Z</time>
      </trkpt>
      <trkpt lat="44.9816" lon="5.89419">
        <ele>1280.61</ele>
        <time>2020-09-08T06:48:42Z</time>
      </trkpt>
      <trkpt lat="44.98151" lon="5.89399">
        <ele>1283.02</ele>
        <time>2020-09-08T06:48:58Z</time>
      </trkpt>
      <trkpt lat="44.98145" lon="5.89387">
        <ele>1285.9</ele>
        <time>2020-09-08T06:49:11Z</time>
      </trkpt>
      <trkpt lat="44.98136" lon="5.89368">
        <ele>1289.75</ele>
        <time>2020-09-08T06:49:28Z</time>
      </trkpt>
      <trkpt lat="44.98127" lon="5.89354">
        <ele>1292.63</ele>
        <time>2020-09-08T06:49:43Z</time>
      </trkpt>
      <trkpt lat="44.98121" lon="5.89341">
        <ele>1295.99</ele>
        <time>2020-09-08T06:49:59Z</time>
      </trkpt>
      <trkpt lat="44.98115" lon="5.89332">
        <ele>1299.84</ele>
        <time>2020-09-08T06:50:14Z</time>
      </trkpt>
      <trkpt lat="44.98103" lon="5.89326">
        <ele>1303.2</ele>
        <time>2020-09-08T06:50:30Z</time>
      </trkpt>
      <trkpt lat="44.98095" lon="5.89316">
        <ele>1306.09</ele>
        <time>2020-09-08T06:50:44Z</time>
      </trkpt>
      <trkpt lat="44.98086" lon="5.89311">
        <ele>1309.45</ele>
        <time>2020-09-08T06:51:00Z</time>
      </trkpt>
      <trkpt lat="44.98072" lon="5.89307">
        <ele>1312.82</ele>
        <time>2020-09-08T06:51:17Z</time>
      </trkpt>
      <trkpt lat="44.98065" lon="5.89306">
        <ele>1313.78</ele>
        <time>2020-09-08T06:51:23Z</time>
      </trkpt>
      <trkpt lat="44.98055" lon="5.89304">
        <ele>1317.62</ele>
        <time>2020-09-08T06:51:37Z</time>
      </trkpt>
      <trkpt lat="44.98042" lon="5.893">
        <ele>1320.51</ele>
        <time>2020-09-08T06:51:53Z</time>
      </trkpt>
      <trkpt lat="44.9803" lon="5.89297">
        <ele>1322.91</ele>
        <time>2020-09-08T06:52:10Z</time>
      </trkpt>
      <trkpt lat="44.9802" lon="5.89295">
        <ele>1325.8</ele>
        <time>2020-09-08T06:52:27Z</time>
      </trkpt>
      <trkpt lat="44.98007" lon="5.89295">
        <ele>1329.16</ele>
        <time>2020-09-08T06:52:42Z</time>
      </trkpt>
      <trkpt lat="44.97994" lon="5.89293">
        <ele>1332.04</ele>
        <time>2020-09-08T06:52:56Z</time>
      </trkpt>
      <trkpt lat="44.97981" lon="5.8929">
        <ele>1334.93</ele>
        <time>2020-09-08T06:53:11Z</time>
      </trkpt>
      <trkpt lat="44.97968" lon="5.89291">
        <ele>1338.29</ele>
        <time>2020-09-08T06:53:29Z</time>
      </trkpt>
      <trkpt lat="44.97957" lon="5.89293">
        <ele>1341.18</ele>
        <time>2020-09-08T06:53:44Z</time>
      </trkpt>
      <trkpt lat="44.97946" lon="5.89296">
        <ele>1344.54</ele>
        <time>2020-09-08T06:53:58Z</time>
      </trkpt>
      <trkpt lat="44.97936" lon="5.89299">
        <ele>1347.43</ele>
        <time>2020-09-08T06:54:13Z</time>
      </trkpt>
      <trkpt lat="44.97923" lon="5.89302">
        <ele>1350.31</ele>
        <time>2020-09-08T06:54:31Z</time>
      </trkpt>
      <trkpt lat="44.97911" lon="5.89304">
        <ele>1353.67</ele>
        <time>2020-09-08T06:54:45Z</time>
      </trkpt>
      <trkpt lat="44.97897" lon="5.89304">
        <ele>1356.56</ele>
        <time>2020-09-08T06:55:03Z</time>
      </trkpt>
      <trkpt lat="44.97886" lon="5.89301">
        <ele>1359.92</ele>
        <time>2020-09-08T06:55:18Z</time>
      </trkpt>
      <trkpt lat="44.97877" lon="5.893">
        <ele>1363.29</ele>
        <time>2020-09-08T06:55:33Z</time>
      </trkpt>
      <trkpt lat="44.97862" lon="5.89298">
        <ele>1366.17</ele>
        <time>2020-09-08T06:55:48Z</time>
      </trkpt>
      <trkpt lat="44.97848" lon="5.89303">
        <ele>1368.09</ele>
        <time>2020-09-08T06:56:05Z</time>
      </trkpt>
      <trkpt lat="44.97832" lon="5.89313">
        <ele>1370.98</ele>
        <time>2020-09-08T06:56:21Z</time>
      </trkpt>
      <trkpt lat="44.97818" lon="5.89318">
        <ele>1371.94</ele>
        <time>2020-09-08T06:56:34Z</time>
      </trkpt>
      <trkpt lat="44.97802" lon="5.89326">
        <ele>1371.94</ele>
        <time>2020-09-08T06:56:48Z</time>
      </trkpt>
      <trkpt lat="44.97786" lon="5.89333">
        <ele>1372.9</ele>
        <time>2020-09-08T06:57:05Z</time>
      </trkpt>
      <trkpt lat="44.97772" lon="5.89335">
        <ele>1375.3</ele>
        <time>2020-09-08T06:57:21Z</time>
      </trkpt>
      <trkpt lat="44.97763" lon="5.89337">
        <ele>1376.75</ele>
        <time>2020-09-08T06:57:34Z</time>
      </trkpt>
      <trkpt lat="44.97748" lon="5.8934">
        <ele>1378.67</ele>
        <time>2020-09-08T06:57:48Z</time>
      </trkpt>
      <trkpt lat="44.97741" lon="5.89341">
        <ele>1378.67</ele>
        <time>2020-09-08T06:58:04Z</time>
      </trkpt>
      <trkpt lat="44.97739" lon="5.8934">
        <ele>1378.67</ele>
        <time>2020-09-08T06:58:29Z</time>
      </trkpt>
      <trkpt lat="44.97738" lon="5.89341">
        <ele>1378.67</ele>
        <time>2020-09-08T06:58:58Z</time>
      </trkpt>
      <trkpt lat="44.97741" lon="5.89341">
        <ele>1378.19</ele>
        <time>2020-09-08T06:59:17Z</time>
      </trkpt>
      <trkpt lat="44.97743" lon="5.8934">
        <ele>1378.19</ele>
        <time>2020-09-08T06:59:59Z</time>
      </trkpt>
      <trkpt lat="44.97744" lon="5.89344">
        <ele>1378.19</ele>
        <time>2020-09-08T07:00:33Z</time>
      </trkpt>
      <trkpt lat="44.97739" lon="5.89355">
        <ele>1381.07</ele>
        <time>2020-09-08T07:00:48Z</time>
      </trkpt>
      <trkpt lat="44.97732" lon="5.89366">
        <ele>1382.99</ele>
        <time>2020-09-08T07:01:04Z</time>
      </trkpt>
      <trkpt lat="44.97737" lon="5.89369">
        <ele>1384.44</ele>
        <time>2020-09-08T07:01:18Z</time>
      </trkpt>
      <trkpt lat="44.97741" lon="5.8937">
        <ele>1384.92</ele>
        <time>2020-09-08T07:01:23Z</time>
      </trkpt>
      <trkpt lat="44.97754" lon="5.8937">
        <ele>1385.4</ele>
        <time>2020-09-08T07:01:39Z</time>
      </trkpt>
      <trkpt lat="44.9777" lon="5.89369">
        <ele>1387.32</ele>
        <time>2020-09-08T07:01:55Z</time>
      </trkpt>
      <trkpt lat="44.97783" lon="5.89371">
        <ele>1390.2</ele>
        <time>2020-09-08T07:02:13Z</time>
      </trkpt>
      <trkpt lat="44.978" lon="5.89378">
        <ele>1393.09</ele>
        <time>2020-09-08T07:02:32Z</time>
      </trkpt>
      <trkpt lat="44.97813" lon="5.89382">
        <ele>1395.49</ele>
        <time>2020-09-08T07:02:49Z</time>
      </trkpt>
      <trkpt lat="44.97826" lon="5.8939">
        <ele>1397.89</ele>
        <time>2020-09-08T07:03:05Z</time>
      </trkpt>
      <trkpt lat="44.97831" lon="5.89413">
        <ele>1399.82</ele>
        <time>2020-09-08T07:03:19Z</time>
      </trkpt>
      <trkpt lat="44.9783" lon="5.89419">
        <ele>1401.74</ele>
        <time>2020-09-08T07:03:33Z</time>
      </trkpt>
      <trkpt lat="44.97839" lon="5.89417">
        <ele>1404.14</ele>
        <time>2020-09-08T07:03:47Z</time>
      </trkpt>
      <trkpt lat="44.97852" lon="5.89418">
        <ele>1406.07</ele>
        <time>2020-09-08T07:04:03Z</time>
      </trkpt>
      <trkpt lat="44.9786" lon="5.89427">
        <ele>1408.95</ele>
        <time>2020-09-08T07:04:18Z</time>
      </trkpt>
      <trkpt lat="44.97865" lon="5.89439">
        <ele>1412.31</ele>
        <time>2020-09-08T07:04:34Z</time>
      </trkpt>
      <trkpt lat="44.97869" lon="5.89448">
        <ele>1415.68</ele>
        <time>2020-09-08T07:04:51Z</time>
      </trkpt>
      <trkpt lat="44.97879" lon="5.8946">
        <ele>1418.56</ele>
        <time>2020-09-08T07:05:09Z</time>
      </trkpt>
      <trkpt lat="44.97885" lon="5.89466">
        <ele>1420</ele>
        <time>2020-09-08T07:05:15Z</time>
      </trkpt>
      <trkpt lat="44.97893" lon="5.89475">
        <ele>1421.93</ele>
        <time>2020-09-08T07:05:30Z</time>
      </trkpt>
      <trkpt lat="44.97907" lon="5.89489">
        <ele>1423.85</ele>
        <time>2020-09-08T07:05:48Z</time>
      </trkpt>
      <trkpt lat="44.97917" lon="5.89498">
        <ele>1426.73</ele>
        <time>2020-09-08T07:06:01Z</time>
      </trkpt>
      <trkpt lat="44.97919" lon="5.89517">
        <ele>1429.14</ele>
        <time>2020-09-08T07:06:16Z</time>
      </trkpt>
      <trkpt lat="44.97919" lon="5.89537">
        <ele>1432.02</ele>
        <time>2020-09-08T07:06:30Z</time>
      </trkpt>
      <trkpt lat="44.9791" lon="5.89546">
        <ele>1434.91</ele>
        <time>2020-09-08T07:06:48Z</time>
      </trkpt>
      <trkpt lat="44.97903" lon="5.89553">
        <ele>1438.27</ele>
        <time>2020-09-08T07:07:05Z</time>
      </trkpt>
      <trkpt lat="44.97891" lon="5.89566">
        <ele>1440.67</ele>
        <time>2020-09-08T07:07:23Z</time>
      </trkpt>
      <trkpt lat="44.97884" lon="5.89574">
        <ele>1443.56</ele>
        <time>2020-09-08T07:07:38Z</time>
      </trkpt>
      <trkpt lat="44.97875" lon="5.8958">
        <ele>1445.96</ele>
        <time>2020-09-08T07:07:52Z</time>
      </trkpt>
      <trkpt lat="44.97865" lon="5.89583">
        <ele>1448.36</ele>
        <time>2020-09-08T07:08:09Z</time>
      </trkpt>
      <trkpt lat="44.97859" lon="5.89585">
        <ele>1450.77</ele>
        <time>2020-09-08T07:08:24Z</time>
      </trkpt>
      <trkpt lat="44.97848" lon="5.89592">
        <ele>1453.65</ele>
        <time>2020-09-08T07:08:41Z</time>
      </trkpt>
      <trkpt lat="44.97837" lon="5.89598">
        <ele>1456.53</ele>
        <time>2020-09-08T07:08:57Z</time>
      </trkpt>
      <trkpt lat="44.97826" lon="5.89605">
        <ele>1459.42</ele>
        <time>2020-09-08T07:09:14Z</time>
      </trkpt>
      <trkpt lat="44.97814" lon="5.89613">
        <ele>1462.3</ele>
        <time>2020-09-08T07:09:33Z</time>
      </trkpt>
      <trkpt lat="44.97805" lon="5.89617">
        <ele>1465.19</ele>
        <time>2020-09-08T07:09:49Z</time>
      </trkpt>
      <trkpt lat="44.97797" lon="5.89624">
        <ele>1468.07</ele>
        <time>2020-09-08T07:10:05Z</time>
      </trkpt>
      <trkpt lat="44.9779" lon="5.89631">
        <ele>1470.95</ele>
        <time>2020-09-08T07:10:22Z</time>
      </trkpt>
      <trkpt lat="44.97782" lon="5.89637">
        <ele>1472.88</ele>
        <time>2020-09-08T07:10:38Z</time>
      </trkpt>
      <trkpt lat="44.97771" lon="5.89645">
        <ele>1476.24</ele>
        <time>2020-09-08T07:10:55Z</time>
      </trkpt>
      <trkpt lat="44.97762" lon="5.89651">
        <ele>1478.16</ele>
        <time>2020-09-08T07:11:12Z</time>
      </trkpt>
      <trkpt lat="44.97749" lon="5.8966">
        <ele>1480.57</ele>
        <time>2020-09-08T07:11:31Z</time>
      </trkpt>
      <trkpt lat="44.97738" lon="5.8967">
        <ele>1483.45</ele>
        <time>2020-09-08T07:11:49Z</time>
      </trkpt>
      <trkpt lat="44.97727" lon="5.89679">
        <ele>1485.37</ele>
        <time>2020-09-08T07:12:05Z</time>
      </trkpt>
      <trkpt lat="44.97718" lon="5.89689">
        <ele>1487.78</ele>
        <time>2020-09-08T07:12:20Z</time>
      </trkpt>
      <trkpt lat="44.9771" lon="5.89695">
        <ele>1489.22</ele>
        <time>2020-09-08T07:12:31Z</time>
      </trkpt>
      <trkpt lat="44.97699" lon="5.89709">
        <ele>1491.62</ele>
        <time>2020-09-08T07:12:48Z</time>
      </trkpt>
      <trkpt lat="44.97689" lon="5.89721">
        <ele>1493.06</ele>
        <time>2020-09-08T07:13:03Z</time>
      </trkpt>
      <trkpt lat="44.97677" lon="5.89725">
        <ele>1495.47</ele>
        <time>2020-09-08T07:13:19Z</time>
      </trkpt>
      <trkpt lat="44.97671" lon="5.89728">
        <ele>1495.95</ele>
        <time>2020-09-08T07:13:27Z</time>
      </trkpt>
      <trkpt lat="44.9766" lon="5.89733">
        <ele>1497.39</ele>
        <time>2020-09-08T07:13:42Z</time>
      </trkpt>
      <trkpt lat="44.97651" lon="5.89738">
        <ele>1500.76</ele>
        <time>2020-09-08T07:13:58Z</time>
      </trkpt>
      <trkpt lat="44.97641" lon="5.89741">
        <ele>1503.64</ele>
        <time>2020-09-08T07:14:14Z</time>
      </trkpt>
      <trkpt lat="44.97633" lon="5.89745">
        <ele>1505.56</ele>
        <time>2020-09-08T07:14:29Z</time>
      </trkpt>
      <trkpt lat="44.97624" lon="5.89747">
        <ele>1507.97</ele>
        <time>2020-09-08T07:14:45Z</time>
      </trkpt>
      <trkpt lat="44.97618" lon="5.89749">
        <ele>1509.41</ele>
        <time>2020-09-08T07:14:54Z</time>
      </trkpt>
      <trkpt lat="44.9761" lon="5.89746">
        <ele>1509.89</ele>
        <time>2020-09-08T07:15:10Z</time>
      </trkpt>
      <trkpt lat="44.97608" lon="5.89743">
        <ele>1509.89</ele>
        <time>2020-09-08T07:15:29Z</time>
      </trkpt>
      <trkpt lat="44.97607" lon="5.89743">
        <ele>1509.89</ele>
        <time>2020-09-08T07:15:51Z</time>
      </trkpt>
      <trkpt lat="44.97607" lon="5.89742">
        <ele>1509.89</ele>
        <time>2020-09-08T07:16:20Z</time>
      </trkpt>
      <trkpt lat="44.97597" lon="5.89741">
        <ele>1509.89</ele>
        <time>2020-09-08T07:16:33Z</time>
      </trkpt>
      <trkpt lat="44.97583" lon="5.89733">
        <ele>1509.89</ele>
        <time>2020-09-08T07:16:48Z</time>
      </trkpt>
      <trkpt lat="44.97569" lon="5.89719">
        <ele>1509.89</ele>
        <time>2020-09-08T07:17:03Z</time>
      </trkpt>
      <trkpt lat="44.97562" lon="5.89714">
        <ele>1510.37</ele>
        <time>2020-09-08T07:17:10Z</time>
      </trkpt>
      <trkpt lat="44.97549" lon="5.89705">
        <ele>1511.81</ele>
        <time>2020-09-08T07:17:26Z</time>
      </trkpt>
      <trkpt lat="44.97536" lon="5.89695">
        <ele>1514.21</ele>
        <time>2020-09-08T07:17:43Z</time>
      </trkpt>
      <trkpt lat="44.97521" lon="5.89683">
        <ele>1516.62</ele>
        <time>2020-09-08T07:18:02Z</time>
      </trkpt>
      <trkpt lat="44.97507" lon="5.89674">
        <ele>1518.54</ele>
        <time>2020-09-08T07:18:18Z</time>
      </trkpt>
      <trkpt lat="44.97494" lon="5.89668">
        <ele>1520.46</ele>
        <time>2020-09-08T07:18:34Z</time>
      </trkpt>
      <trkpt lat="44.97486" lon="5.89667">
        <ele>1521.9</ele>
        <time>2020-09-08T07:18:52Z</time>
      </trkpt>
      <trkpt lat="44.97473" lon="5.89668">
        <ele>1523.83</ele>
        <time>2020-09-08T07:19:08Z</time>
      </trkpt>
      <trkpt lat="44.97459" lon="5.89674">
        <ele>1526.23</ele>
        <time>2020-09-08T07:19:25Z</time>
      </trkpt>
      <trkpt lat="44.97445" lon="5.89679">
        <ele>1529.11</ele>
        <time>2020-09-08T07:19:43Z</time>
      </trkpt>
      <trkpt lat="44.97432" lon="5.89686">
        <ele>1531.52</ele>
        <time>2020-09-08T07:20:00Z</time>
      </trkpt>
      <trkpt lat="44.97421" lon="5.89692">
        <ele>1533.92</ele>
        <time>2020-09-08T07:20:15Z</time>
      </trkpt>
      <trkpt lat="44.97406" lon="5.89697">
        <ele>1535.84</ele>
        <time>2020-09-08T07:20:33Z</time>
      </trkpt>
      <trkpt lat="44.97393" lon="5.89703">
        <ele>1538.25</ele>
        <time>2020-09-08T07:20:50Z</time>
      </trkpt>
      <trkpt lat="44.97384" lon="5.89708">
        <ele>1540.65</ele>
        <time>2020-09-08T07:21:04Z</time>
      </trkpt>
      <trkpt lat="44.97373" lon="5.89712">
        <ele>1542.09</ele>
        <time>2020-09-08T07:21:19Z</time>
      </trkpt>
      <trkpt lat="44.97359" lon="5.89719">
        <ele>1544.01</ele>
        <time>2020-09-08T07:21:35Z</time>
      </trkpt>
      <trkpt lat="44.97346" lon="5.89726">
        <ele>1545.94</ele>
        <time>2020-09-08T07:21:51Z</time>
      </trkpt>
      <trkpt lat="44.97336" lon="5.89732">
        <ele>1546.9</ele>
        <time>2020-09-08T07:22:06Z</time>
      </trkpt>
      <trkpt lat="44.97336" lon="5.89732">
        <ele>1546.9</ele>
        <time>2020-09-08T07:22:14Z</time>
      </trkpt>
      <trkpt lat="44.97333" lon="5.8973">
        <ele>1545.94</ele>
        <time>2020-09-08T07:22:33Z</time>
      </trkpt>
      <trkpt lat="44.97333" lon="5.89729">
        <ele>1545.94</ele>
        <time>2020-09-08T07:23:00Z</time>
      </trkpt>
      <trkpt lat="44.97332" lon="5.8973">
        <ele>1545.46</ele>
        <time>2020-09-08T07:23:29Z</time>
      </trkpt>
      <trkpt lat="44.97334" lon="5.89731">
        <ele>1546.9</ele>
        <time>2020-09-08T07:23:48Z</time>
      </trkpt>
      <trkpt lat="44.97332" lon="5.89733">
        <ele>1546.9</ele>
        <time>2020-09-08T07:24:09Z</time>
      </trkpt>
      <trkpt lat="44.97331" lon="5.89732">
        <ele>1547.38</ele>
        <time>2020-09-08T07:24:35Z</time>
      </trkpt>
      <trkpt lat="44.97332" lon="5.89733">
        <ele>1547.38</ele>
        <time>2020-09-08T07:25:04Z</time>
      </trkpt>
      <trkpt lat="44.97332" lon="5.89732">
        <ele>1547.38</ele>
        <time>2020-09-08T07:25:32Z</time>
      </trkpt>
      <trkpt lat="44.97325" lon="5.89738">
        <ele>1547.38</ele>
        <time>2020-09-08T07:25:52Z</time>
      </trkpt>
      <trkpt lat="44.97309" lon="5.89751">
        <ele>1548.82</ele>
        <time>2020-09-08T07:26:08Z</time>
      </trkpt>
      <trkpt lat="44.97292" lon="5.89765">
        <ele>1550.74</ele>
        <time>2020-09-08T07:26:26Z</time>
      </trkpt>
      <trkpt lat="44.97276" lon="5.89775">
        <ele>1552.19</ele>
        <time>2020-09-08T07:26:42Z</time>
      </trkpt>
      <trkpt lat="44.97258" lon="5.89785">
        <ele>1555.07</ele>
        <time>2020-09-08T07:27:01Z</time>
      </trkpt>
      <trkpt lat="44.97254" lon="5.89787">
        <ele>1555.07</ele>
        <time>2020-09-08T07:27:05Z</time>
      </trkpt>
      <trkpt lat="44.97248" lon="5.89791">
        <ele>1556.51</ele>
        <time>2020-09-08T07:27:13Z</time>
      </trkpt>
      <trkpt lat="44.97235" lon="5.89788">
        <ele>1556.99</ele>
        <time>2020-09-08T07:27:27Z</time>
      </trkpt>
      <trkpt lat="44.97232" lon="5.89789">
        <ele>1558.43</ele>
        <time>2020-09-08T07:27:31Z</time>
      </trkpt>
      <trkpt lat="44.97222" lon="5.89786">
        <ele>1559.88</ele>
        <time>2020-09-08T07:27:45Z</time>
      </trkpt>
      <trkpt lat="44.97212" lon="5.8978">
        <ele>1561.32</ele>
        <time>2020-09-08T07:28:00Z</time>
      </trkpt>
      <trkpt lat="44.97203" lon="5.89774">
        <ele>1562.28</ele>
        <time>2020-09-08T07:28:14Z</time>
      </trkpt>
      <trkpt lat="44.97201" lon="5.8978">
        <ele>1563.72</ele>
        <time>2020-09-08T07:28:28Z</time>
      </trkpt>
      <trkpt lat="44.97201" lon="5.8978">
        <ele>1563.72</ele>
        <time>2020-09-08T07:28:48Z</time>
      </trkpt>
      <trkpt lat="44.97199" lon="5.89779">
        <ele>1563.72</ele>
        <time>2020-09-08T07:29:09Z</time>
      </trkpt>
      <trkpt lat="44.97199" lon="5.89779">
        <ele>1563.72</ele>
        <time>2020-09-08T07:29:41Z</time>
      </trkpt>
      <trkpt lat="44.97195" lon="5.89785">
        <ele>1565.16</ele>
        <time>2020-09-08T07:30:01Z</time>
      </trkpt>
      <trkpt lat="44.97191" lon="5.89786">
        <ele>1565.64</ele>
        <time>2020-09-08T07:30:07Z</time>
      </trkpt>
      <trkpt lat="44.97179" lon="5.89784">
        <ele>1567.57</ele>
        <time>2020-09-08T07:30:22Z</time>
      </trkpt>
      <trkpt lat="44.97167" lon="5.89782">
        <ele>1569.49</ele>
        <time>2020-09-08T07:30:37Z</time>
      </trkpt>
      <trkpt lat="44.9716" lon="5.89781">
        <ele>1570.93</ele>
        <time>2020-09-08T07:30:46Z</time>
      </trkpt>
      <trkpt lat="44.97151" lon="5.89782">
        <ele>1572.85</ele>
        <time>2020-09-08T07:31:02Z</time>
      </trkpt>
      <trkpt lat="44.97149" lon="5.89783">
        <ele>1573.33</ele>
        <time>2020-09-08T07:31:08Z</time>
      </trkpt>
      <trkpt lat="44.97137" lon="5.89773">
        <ele>1574.78</ele>
        <time>2020-09-08T07:31:19Z</time>
      </trkpt>
      <trkpt lat="44.97129" lon="5.89769">
        <ele>1576.7</ele>
        <time>2020-09-08T07:31:32Z</time>
      </trkpt>
      <trkpt lat="44.97128" lon="5.89765">
        <ele>1576.22</ele>
        <time>2020-09-08T07:31:55Z</time>
      </trkpt>
      <trkpt lat="44.97126" lon="5.89764">
        <ele>1576.7</ele>
        <time>2020-09-08T07:32:11Z</time>
      </trkpt>
      <trkpt lat="44.97124" lon="5.89765">
        <ele>1577.66</ele>
        <time>2020-09-08T07:32:14Z</time>
      </trkpt>
      <trkpt lat="44.97111" lon="5.89773">
        <ele>1579.58</ele>
        <time>2020-09-08T07:32:29Z</time>
      </trkpt>
      <trkpt lat="44.97101" lon="5.89783">
        <ele>1582.47</ele>
        <time>2020-09-08T07:32:45Z</time>
      </trkpt>
      <trkpt lat="44.97099" lon="5.89797">
        <ele>1585.35</ele>
        <time>2020-09-08T07:32:59Z</time>
      </trkpt>
      <trkpt lat="44.97097" lon="5.89809">
        <ele>1588.24</ele>
        <time>2020-09-08T07:33:11Z</time>
      </trkpt>
      <trkpt lat="44.97091" lon="5.89822">
        <ele>1591.6</ele>
        <time>2020-09-08T07:33:28Z</time>
      </trkpt>
      <trkpt lat="44.97082" lon="5.89834">
        <ele>1594.96</ele>
        <time>2020-09-08T07:33:45Z</time>
      </trkpt>
      <trkpt lat="44.97075" lon="5.89841">
        <ele>1598.33</ele>
        <time>2020-09-08T07:34:00Z</time>
      </trkpt>
      <trkpt lat="44.97066" lon="5.8985">
        <ele>1601.69</ele>
        <time>2020-09-08T07:34:18Z</time>
      </trkpt>
      <trkpt lat="44.97062" lon="5.89863">
        <ele>1604.1</ele>
        <time>2020-09-08T07:34:35Z</time>
      </trkpt>
      <trkpt lat="44.9706" lon="5.89873">
        <ele>1606.98</ele>
        <time>2020-09-08T07:34:49Z</time>
      </trkpt>
      <trkpt lat="44.97059" lon="5.89876">
        <ele>1608.42</ele>
        <time>2020-09-08T07:35:09Z</time>
      </trkpt>
      <trkpt lat="44.97058" lon="5.89874">
        <ele>1608.42</ele>
        <time>2020-09-08T07:35:36Z</time>
      </trkpt>
      <trkpt lat="44.97056" lon="5.89887">
        <ele>1610.35</ele>
        <time>2020-09-08T07:35:49Z</time>
      </trkpt>
      <trkpt lat="44.97051" lon="5.89899">
        <ele>1613.23</ele>
        <time>2020-09-08T07:36:05Z</time>
      </trkpt>
      <trkpt lat="44.97048" lon="5.8991">
        <ele>1616.11</ele>
        <time>2020-09-08T07:36:19Z</time>
      </trkpt>
      <trkpt lat="44.97044" lon="5.89921">
        <ele>1619</ele>
        <time>2020-09-08T07:36:35Z</time>
      </trkpt>
      <trkpt lat="44.9704" lon="5.89931">
        <ele>1621.88</ele>
        <time>2020-09-08T07:36:52Z</time>
      </trkpt>
      <trkpt lat="44.97035" lon="5.89942">
        <ele>1624.77</ele>
        <time>2020-09-08T07:37:10Z</time>
      </trkpt>
      <trkpt lat="44.9703" lon="5.89951">
        <ele>1628.13</ele>
        <time>2020-09-08T07:37:29Z</time>
      </trkpt>
      <trkpt lat="44.97026" lon="5.89962">
        <ele>1630.53</ele>
        <time>2020-09-08T07:37:46Z</time>
      </trkpt>
      <trkpt lat="44.97024" lon="5.89972">
        <ele>1633.9</ele>
        <time>2020-09-08T07:38:03Z</time>
      </trkpt>
      <trkpt lat="44.9702" lon="5.8998">
        <ele>1636.78</ele>
        <time>2020-09-08T07:38:17Z</time>
      </trkpt>
      <trkpt lat="44.97015" lon="5.89988">
        <ele>1639.67</ele>
        <time>2020-09-08T07:38:33Z</time>
      </trkpt>
      <trkpt lat="44.97012" lon="5.89998">
        <ele>1641.59</ele>
        <time>2020-09-08T07:38:48Z</time>
      </trkpt>
      <trkpt lat="44.97006" lon="5.90007">
        <ele>1644.95</ele>
        <time>2020-09-08T07:39:04Z</time>
      </trkpt>
      <trkpt lat="44.97004" lon="5.90016">
        <ele>1647.36</ele>
        <time>2020-09-08T07:39:19Z</time>
      </trkpt>
      <trkpt lat="44.97002" lon="5.90027">
        <ele>1650.24</ele>
        <time>2020-09-08T07:39:33Z</time>
      </trkpt>
      <trkpt lat="44.96999" lon="5.90037">
        <ele>1653.6</ele>
        <time>2020-09-08T07:39:50Z</time>
      </trkpt>
      <trkpt lat="44.96998" lon="5.90048">
        <ele>1656.97</ele>
        <time>2020-09-08T07:40:06Z</time>
      </trkpt>
      <trkpt lat="44.96996" lon="5.90058">
        <ele>1659.85</ele>
        <time>2020-09-08T07:40:22Z</time>
      </trkpt>
      <trkpt lat="44.96996" lon="5.90069">
        <ele>1663.22</ele>
        <time>2020-09-08T07:40:38Z</time>
      </trkpt>
      <trkpt lat="44.96996" lon="5.90069">
        <ele>1661.78</ele>
        <time>2020-09-08T07:40:44Z</time>
      </trkpt>
      <trkpt lat="44.96996" lon="5.9007">
        <ele>1663.22</ele>
        <time>2020-09-08T07:40:46Z</time>
      </trkpt>
      <trkpt lat="44.96996" lon="5.9007">
        <ele>1663.22</ele>
        <time>2020-09-08T07:41:07Z</time>
      </trkpt>
      <trkpt lat="44.96996" lon="5.9007">
        <ele>1662.74</ele>
        <time>2020-09-08T07:41:36Z</time>
      </trkpt>
      <trkpt lat="44.96996" lon="5.9007">
        <ele>1662.74</ele>
        <time>2020-09-08T07:41:58Z</time>
      </trkpt>
      <trkpt lat="44.96995" lon="5.90069">
        <ele>1662.74</ele>
        <time>2020-09-08T07:42:27Z</time>
      </trkpt>
      <trkpt lat="44.96995" lon="5.90068">
        <ele>1662.74</ele>
        <time>2020-09-08T07:42:53Z</time>
      </trkpt>
      <trkpt lat="44.96995" lon="5.90069">
        <ele>1662.74</ele>
        <time>2020-09-08T07:43:19Z</time>
      </trkpt>
      <trkpt lat="44.96995" lon="5.90073">
        <ele>1664.18</ele>
        <time>2020-09-08T07:43:47Z</time>
      </trkpt>
      <trkpt lat="44.96995" lon="5.90076">
        <ele>1665.14</ele>
        <time>2020-09-08T07:44:01Z</time>
      </trkpt>
      <trkpt lat="44.96993" lon="5.90077">
        <ele>1665.14</ele>
        <time>2020-09-08T07:44:28Z</time>
      </trkpt>
      <trkpt lat="44.96992" lon="5.90083">
        <ele>1666.1</ele>
        <time>2020-09-08T07:44:44Z</time>
      </trkpt>
      <trkpt lat="44.96989" lon="5.90092">
        <ele>1667.54</ele>
        <time>2020-09-08T07:44:59Z</time>
      </trkpt>
      <trkpt lat="44.96989" lon="5.90095">
        <ele>1668.02</ele>
        <time>2020-09-08T07:45:02Z</time>
      </trkpt>
      <trkpt lat="44.96983" lon="5.90104">
        <ele>1670.91</ele>
        <time>2020-09-08T07:45:17Z</time>
      </trkpt>
      <trkpt lat="44.96978" lon="5.90117">
        <ele>1673.79</ele>
        <time>2020-09-08T07:45:33Z</time>
      </trkpt>
      <trkpt lat="44.96976" lon="5.90126">
        <ele>1676.68</ele>
        <time>2020-09-08T07:45:49Z</time>
      </trkpt>
      <trkpt lat="44.96972" lon="5.90138">
        <ele>1679.56</ele>
        <time>2020-09-08T07:46:07Z</time>
      </trkpt>
      <trkpt lat="44.96969" lon="5.9015">
        <ele>1682.44</ele>
        <time>2020-09-08T07:46:24Z</time>
      </trkpt>
      <trkpt lat="44.96968" lon="5.90159">
        <ele>1685.81</ele>
        <time>2020-09-08T07:46:38Z</time>
      </trkpt>
      <trkpt lat="44.96965" lon="5.90167">
        <ele>1688.21</ele>
        <time>2020-09-08T07:46:56Z</time>
      </trkpt>
      <trkpt lat="44.96958" lon="5.90174">
        <ele>1690.14</ele>
        <time>2020-09-08T07:47:12Z</time>
      </trkpt>
      <trkpt lat="44.96951" lon="5.90181">
        <ele>1693.5</ele>
        <time>2020-09-08T07:47:28Z</time>
      </trkpt>
      <trkpt lat="44.96945" lon="5.90188">
        <ele>1695.9</ele>
        <time>2020-09-08T07:47:44Z</time>
      </trkpt>
      <trkpt lat="44.96939" lon="5.90193">
        <ele>1698.79</ele>
        <time>2020-09-08T07:48:01Z</time>
      </trkpt>
      <trkpt lat="44.96933" lon="5.90194">
        <ele>1700.71</ele>
        <time>2020-09-08T07:48:15Z</time>
      </trkpt>
      <trkpt lat="44.9693" lon="5.902">
        <ele>1703.59</ele>
        <time>2020-09-08T07:48:31Z</time>
      </trkpt>
      <trkpt lat="44.96928" lon="5.90195">
        <ele>1703.59</ele>
        <time>2020-09-08T07:48:55Z</time>
      </trkpt>
      <trkpt lat="44.96928" lon="5.90197">
        <ele>1704.07</ele>
        <time>2020-09-08T07:49:16Z</time>
      </trkpt>
      <trkpt lat="44.96926" lon="5.90202">
        <ele>1704.55</ele>
        <time>2020-09-08T07:49:41Z</time>
      </trkpt>
      <trkpt lat="44.96925" lon="5.90212">
        <ele>1706.96</ele>
        <time>2020-09-08T07:49:57Z</time>
      </trkpt>
      <trkpt lat="44.9693" lon="5.9022">
        <ele>1708.4</ele>
        <time>2020-09-08T07:50:09Z</time>
      </trkpt>
      <trkpt lat="44.96929" lon="5.90235">
        <ele>1711.28</ele>
        <time>2020-09-08T07:50:25Z</time>
      </trkpt>
      <trkpt lat="44.96927" lon="5.90246">
        <ele>1714.65</ele>
        <time>2020-09-08T07:50:40Z</time>
      </trkpt>
      <trkpt lat="44.96926" lon="5.90253">
        <ele>1717.53</ele>
        <time>2020-09-08T07:50:56Z</time>
      </trkpt>
      <trkpt lat="44.96926" lon="5.9026">
        <ele>1719.46</ele>
        <time>2020-09-08T07:51:09Z</time>
      </trkpt>
      <trkpt lat="44.96928" lon="5.90264">
        <ele>1721.86</ele>
        <time>2020-09-08T07:51:25Z</time>
      </trkpt>
      <trkpt lat="44.96927" lon="5.90266">
        <ele>1721.86</ele>
        <time>2020-09-08T07:51:52Z</time>
      </trkpt>
      <trkpt lat="44.96927" lon="5.90277">
        <ele>1723.78</ele>
        <time>2020-09-08T07:52:07Z</time>
      </trkpt>
      <trkpt lat="44.96924" lon="5.90286">
        <ele>1727.15</ele>
        <time>2020-09-08T07:52:23Z</time>
      </trkpt>
      <trkpt lat="44.96923" lon="5.90293">
        <ele>1730.51</ele>
        <time>2020-09-08T07:52:35Z</time>
      </trkpt>
      <trkpt lat="44.96923" lon="5.90301">
        <ele>1732.91</ele>
        <time>2020-09-08T07:52:51Z</time>
      </trkpt>
      <trkpt lat="44.96926" lon="5.90304">
        <ele>1734.84</ele>
        <time>2020-09-08T07:53:08Z</time>
      </trkpt>
      <trkpt lat="44.96926" lon="5.90305">
        <ele>1735.32</ele>
        <time>2020-09-08T07:53:23Z</time>
      </trkpt>
      <trkpt lat="44.96925" lon="5.90314">
        <ele>1736.28</ele>
        <time>2020-09-08T07:53:43Z</time>
      </trkpt>
      <trkpt lat="44.96925" lon="5.90321">
        <ele>1739.64</ele>
        <time>2020-09-08T07:53:55Z</time>
      </trkpt>
      <trkpt lat="44.96924" lon="5.90331">
        <ele>1742.53</ele>
        <time>2020-09-08T07:54:11Z</time>
      </trkpt>
      <trkpt lat="44.96923" lon="5.90338">
        <ele>1745.41</ele>
        <time>2020-09-08T07:54:27Z</time>
      </trkpt>
      <trkpt lat="44.96923" lon="5.90346">
        <ele>1748.29</ele>
        <time>2020-09-08T07:54:42Z</time>
      </trkpt>
      <trkpt lat="44.96924" lon="5.90353">
        <ele>1751.18</ele>
        <time>2020-09-08T07:54:56Z</time>
      </trkpt>
      <trkpt lat="44.96923" lon="5.90361">
        <ele>1753.58</ele>
        <time>2020-09-08T07:55:12Z</time>
      </trkpt>
      <trkpt lat="44.96924" lon="5.90365">
        <ele>1756.47</ele>
        <time>2020-09-08T07:55:28Z</time>
      </trkpt>
      <trkpt lat="44.96925" lon="5.90366">
        <ele>1756.47</ele>
        <time>2020-09-08T07:55:49Z</time>
      </trkpt>
      <trkpt lat="44.96925" lon="5.90367">
        <ele>1756.95</ele>
        <time>2020-09-08T07:56:18Z</time>
      </trkpt>
      <trkpt lat="44.96924" lon="5.90366">
        <ele>1756.95</ele>
        <time>2020-09-08T07:56:47Z</time>
      </trkpt>
      <trkpt lat="44.96924" lon="5.90375">
        <ele>1759.35</ele>
        <time>2020-09-08T07:57:04Z</time>
      </trkpt>
      <trkpt lat="44.96922" lon="5.90382">
        <ele>1761.75</ele>
        <time>2020-09-08T07:57:20Z</time>
      </trkpt>
      <trkpt lat="44.96922" lon="5.90389">
        <ele>1764.64</ele>
        <time>2020-09-08T07:57:36Z</time>
      </trkpt>
      <trkpt lat="44.96923" lon="5.90393">
        <ele>1766.56</ele>
        <time>2020-09-08T07:57:49Z</time>
      </trkpt>
      <trkpt lat="44.96924" lon="5.90395">
        <ele>1768</ele>
        <time>2020-09-08T07:58:07Z</time>
      </trkpt>
      <trkpt lat="44.96928" lon="5.90396">
        <ele>1769.92</ele>
        <time>2020-09-08T07:58:26Z</time>
      </trkpt>
      <trkpt lat="44.96928" lon="5.90396">
        <ele>1770.89</ele>
        <time>2020-09-08T07:58:47Z</time>
      </trkpt>
      <trkpt lat="44.9693" lon="5.90396">
        <ele>1770.89</ele>
        <time>2020-09-08T07:59:12Z</time>
      </trkpt>
      <trkpt lat="44.96938" lon="5.90396">
        <ele>1769.92</ele>
        <time>2020-09-08T07:59:26Z</time>
      </trkpt>
      <trkpt lat="44.96941" lon="5.90396">
        <ele>1770.89</ele>
        <time>2020-09-08T07:59:31Z</time>
      </trkpt>
      <trkpt lat="44.96952" lon="5.90401">
        <ele>1772.81</ele>
        <time>2020-09-08T07:59:46Z</time>
      </trkpt>
      <trkpt lat="44.96953" lon="5.90413">
        <ele>1776.17</ele>
        <time>2020-09-08T08:00:02Z</time>
      </trkpt>
      <trkpt lat="44.96954" lon="5.90416">
        <ele>1776.65</ele>
        <time>2020-09-08T08:00:20Z</time>
      </trkpt>
      <trkpt lat="44.96959" lon="5.90419">
        <ele>1778.1</ele>
        <time>2020-09-08T08:00:37Z</time>
      </trkpt>
      <trkpt lat="44.96965" lon="5.90424">
        <ele>1779.06</ele>
        <time>2020-09-08T08:00:55Z</time>
      </trkpt>
      <trkpt lat="44.96965" lon="5.90425">
        <ele>1779.06</ele>
        <time>2020-09-08T08:00:56Z</time>
      </trkpt>
      <trkpt lat="44.96976" lon="5.90428">
        <ele>1780.5</ele>
        <time>2020-09-08T08:01:10Z</time>
      </trkpt>
      <trkpt lat="44.96982" lon="5.90435">
        <ele>1781.94</ele>
        <time>2020-09-08T08:01:23Z</time>
      </trkpt>
      <trkpt lat="44.9699" lon="5.90439">
        <ele>1782.9</ele>
        <time>2020-09-08T08:01:37Z</time>
      </trkpt>
      <trkpt lat="44.96996" lon="5.90441">
        <ele>1784.82</ele>
        <time>2020-09-08T08:01:52Z</time>
      </trkpt>
      <trkpt lat="44.97001" lon="5.90445">
        <ele>1788.19</ele>
        <time>2020-09-08T08:02:05Z</time>
      </trkpt>
      <trkpt lat="44.97009" lon="5.90448">
        <ele>1789.63</ele>
        <time>2020-09-08T08:02:22Z</time>
      </trkpt>
      <trkpt lat="44.97016" lon="5.90453">
        <ele>1793</ele>
        <time>2020-09-08T08:02:38Z</time>
      </trkpt>
      <trkpt lat="44.97022" lon="5.90459">
        <ele>1794.92</ele>
        <time>2020-09-08T08:02:56Z</time>
      </trkpt>
      <trkpt lat="44.97026" lon="5.90464">
        <ele>1797.8</ele>
        <time>2020-09-08T08:03:12Z</time>
      </trkpt>
      <trkpt lat="44.97028" lon="5.90471">
        <ele>1800.21</ele>
        <time>2020-09-08T08:03:27Z</time>
      </trkpt>
      <trkpt lat="44.97022" lon="5.9048">
        <ele>1803.09</ele>
        <time>2020-09-08T08:03:46Z</time>
      </trkpt>
      <trkpt lat="44.97018" lon="5.90481">
        <ele>1804.05</ele>
        <time>2020-09-08T08:04:00Z</time>
      </trkpt>
      <trkpt lat="44.97019" lon="5.90478">
        <ele>1804.05</ele>
        <time>2020-09-08T08:04:19Z</time>
      </trkpt>
      <trkpt lat="44.97013" lon="5.90484">
        <ele>1805.01</ele>
        <time>2020-09-08T08:04:36Z</time>
      </trkpt>
      <trkpt lat="44.97008" lon="5.90488">
        <ele>1807.42</ele>
        <time>2020-09-08T08:04:52Z</time>
      </trkpt>
      <trkpt lat="44.97004" lon="5.90494">
        <ele>1809.34</ele>
        <time>2020-09-08T08:05:07Z</time>
      </trkpt>
      <trkpt lat="44.97003" lon="5.90501">
        <ele>1812.22</ele>
        <time>2020-09-08T08:05:22Z</time>
      </trkpt>
      <trkpt lat="44.97" lon="5.90505">
        <ele>1813.66</ele>
        <time>2020-09-08T08:05:37Z</time>
      </trkpt>
      <trkpt lat="44.97" lon="5.90507">
        <ele>1815.11</ele>
        <time>2020-09-08T08:05:58Z</time>
      </trkpt>
      <trkpt lat="44.97003" lon="5.90507">
        <ele>1817.03</ele>
        <time>2020-09-08T08:06:12Z</time>
      </trkpt>
      <trkpt lat="44.97004" lon="5.90515">
        <ele>1819.91</ele>
        <time>2020-09-08T08:06:29Z</time>
      </trkpt>
      <trkpt lat="44.97003" lon="5.90521">
        <ele>1822.32</ele>
        <time>2020-09-08T08:06:43Z</time>
      </trkpt>
      <trkpt lat="44.97004" lon="5.90526">
        <ele>1824.72</ele>
        <time>2020-09-08T08:06:58Z</time>
      </trkpt>
      <trkpt lat="44.97004" lon="5.90532">
        <ele>1827.12</ele>
        <time>2020-09-08T08:07:16Z</time>
      </trkpt>
      <trkpt lat="44.97006" lon="5.90537">
        <ele>1830.01</ele>
        <time>2020-09-08T08:07:34Z</time>
      </trkpt>
      <trkpt lat="44.97008" lon="5.90542">
        <ele>1832.41</ele>
        <time>2020-09-08T08:07:50Z</time>
      </trkpt>
      <trkpt lat="44.97009" lon="5.90548">
        <ele>1835.29</ele>
        <time>2020-09-08T08:08:08Z</time>
      </trkpt>
      <trkpt lat="44.97009" lon="5.90552">
        <ele>1837.7</ele>
        <time>2020-09-08T08:08:24Z</time>
      </trkpt>
      <trkpt lat="44.97009" lon="5.90558">
        <ele>1839.14</ele>
        <time>2020-09-08T08:08:39Z</time>
      </trkpt>
      <trkpt lat="44.9701" lon="5.9056">
        <ele>1841.54</ele>
        <time>2020-09-08T08:08:53Z</time>
      </trkpt>
      <trkpt lat="44.97015" lon="5.9056">
        <ele>1842.98</ele>
        <time>2020-09-08T08:09:08Z</time>
      </trkpt>
      <trkpt lat="44.97018" lon="5.90564">
        <ele>1845.39</ele>
        <time>2020-09-08T08:09:24Z</time>
      </trkpt>
      <trkpt lat="44.97023" lon="5.90567">
        <ele>1848.27</ele>
        <time>2020-09-08T08:09:40Z</time>
      </trkpt>
      <trkpt lat="44.97022" lon="5.90571">
        <ele>1849.71</ele>
        <time>2020-09-08T08:09:57Z</time>
      </trkpt>
      <trkpt lat="44.97024" lon="5.90574">
        <ele>1852.12</ele>
        <time>2020-09-08T08:10:13Z</time>
      </trkpt>
      <trkpt lat="44.97028" lon="5.90576">
        <ele>1854.52</ele>
        <time>2020-09-08T08:10:30Z</time>
      </trkpt>
      <trkpt lat="44.97028" lon="5.9058">
        <ele>1856.92</ele>
        <time>2020-09-08T08:10:47Z</time>
      </trkpt>
      <trkpt lat="44.97034" lon="5.90582">
        <ele>1858.85</ele>
        <time>2020-09-08T08:11:02Z</time>
      </trkpt>
      <trkpt lat="44.97032" lon="5.90585">
        <ele>1860.77</ele>
        <time>2020-09-08T08:11:19Z</time>
      </trkpt>
      <trkpt lat="44.97036" lon="5.90587">
        <ele>1862.21</ele>
        <time>2020-09-08T08:11:36Z</time>
      </trkpt>
      <trkpt lat="44.97035" lon="5.90586">
        <ele>1862.69</ele>
        <time>2020-09-08T08:11:59Z</time>
      </trkpt>
      <trkpt lat="44.97038" lon="5.90593">
        <ele>1864.13</ele>
        <time>2020-09-08T08:12:15Z</time>
      </trkpt>
      <trkpt lat="44.97037" lon="5.90598">
        <ele>1867.02</ele>
        <time>2020-09-08T08:12:32Z</time>
      </trkpt>
      <trkpt lat="44.97036" lon="5.90602">
        <ele>1868.94</ele>
        <time>2020-09-08T08:12:47Z</time>
      </trkpt>
      <trkpt lat="44.97038" lon="5.90604">
        <ele>1871.34</ele>
        <time>2020-09-08T08:13:02Z</time>
      </trkpt>
      <trkpt lat="44.97038" lon="5.90606">
        <ele>1873.75</ele>
        <time>2020-09-08T08:13:19Z</time>
      </trkpt>
      <trkpt lat="44.97038" lon="5.90609">
        <ele>1875.19</ele>
        <time>2020-09-08T08:13:33Z</time>
      </trkpt>
      <trkpt lat="44.97038" lon="5.9061">
        <ele>1876.63</ele>
        <time>2020-09-08T08:13:44Z</time>
      </trkpt>
      <trkpt lat="44.97039" lon="5.90612">
        <ele>1878.07</ele>
        <time>2020-09-08T08:14:06Z</time>
      </trkpt>
      <trkpt lat="44.97044" lon="5.90612">
        <ele>1879.03</ele>
        <time>2020-09-08T08:14:22Z</time>
      </trkpt>
      <trkpt lat="44.97047" lon="5.90615">
        <ele>1880</ele>
        <time>2020-09-08T08:14:32Z</time>
      </trkpt>
      <trkpt lat="44.97045" lon="5.90621">
        <ele>1881.44</ele>
        <time>2020-09-08T08:14:46Z</time>
      </trkpt>
      <trkpt lat="44.97043" lon="5.90625">
        <ele>1882.4</ele>
        <time>2020-09-08T08:15:02Z</time>
      </trkpt>
      <trkpt lat="44.9704" lon="5.90625">
        <ele>1884.32</ele>
        <time>2020-09-08T08:15:20Z</time>
      </trkpt>
      <trkpt lat="44.97044" lon="5.90625">
        <ele>1886.72</ele>
        <time>2020-09-08T08:15:36Z</time>
      </trkpt>
      <trkpt lat="44.97047" lon="5.90629">
        <ele>1888.65</ele>
        <time>2020-09-08T08:15:49Z</time>
      </trkpt>
      <trkpt lat="44.97048" lon="5.90632">
        <ele>1890.57</ele>
        <time>2020-09-08T08:16:04Z</time>
      </trkpt>
      <trkpt lat="44.97048" lon="5.90636">
        <ele>1892.01</ele>
        <time>2020-09-08T08:16:19Z</time>
      </trkpt>
      <trkpt lat="44.97047" lon="5.90641">
        <ele>1893.45</ele>
        <time>2020-09-08T08:16:32Z</time>
      </trkpt>
      <trkpt lat="44.97045" lon="5.90642">
        <ele>1895.38</ele>
        <time>2020-09-08T08:16:48Z</time>
      </trkpt>
      <trkpt lat="44.97046" lon="5.90643">
        <ele>1895.38</ele>
        <time>2020-09-08T08:17:17Z</time>
      </trkpt>
      <trkpt lat="44.97045" lon="5.90642">
        <ele>1897.3</ele>
        <time>2020-09-08T08:17:30Z</time>
      </trkpt>
      <trkpt lat="44.97044" lon="5.90649">
        <ele>1898.74</ele>
        <time>2020-09-08T08:17:43Z</time>
      </trkpt>
      <trkpt lat="44.97043" lon="5.90653">
        <ele>1901.14</ele>
        <time>2020-09-08T08:18:00Z</time>
      </trkpt>
      <trkpt lat="44.97045" lon="5.90652">
        <ele>1903.07</ele>
        <time>2020-09-08T08:18:14Z</time>
      </trkpt>
      <trkpt lat="44.97047" lon="5.90654">
        <ele>1905.47</ele>
        <time>2020-09-08T08:18:27Z</time>
      </trkpt>
      <trkpt lat="44.97046" lon="5.90659">
        <ele>1907.39</ele>
        <time>2020-09-08T08:18:40Z</time>
      </trkpt>
      <trkpt lat="44.97045" lon="5.90666">
        <ele>1909.32</ele>
        <time>2020-09-08T08:18:55Z</time>
      </trkpt>
      <trkpt lat="44.97044" lon="5.90671">
        <ele>1912.2</ele>
        <time>2020-09-08T08:19:14Z</time>
      </trkpt>
      <trkpt lat="44.97042" lon="5.90675">
        <ele>1914.12</ele>
        <time>2020-09-08T08:19:29Z</time>
      </trkpt>
      <trkpt lat="44.9704" lon="5.9068">
        <ele>1916.04</ele>
        <time>2020-09-08T08:19:44Z</time>
      </trkpt>
      <trkpt lat="44.97041" lon="5.90685">
        <ele>1918.93</ele>
        <time>2020-09-08T08:20:00Z</time>
      </trkpt>
      <trkpt lat="44.97043" lon="5.90687">
        <ele>1921.33</ele>
        <time>2020-09-08T08:20:16Z</time>
      </trkpt>
      <trkpt lat="44.97045" lon="5.9069">
        <ele>1923.25</ele>
        <time>2020-09-08T08:20:28Z</time>
      </trkpt>
      <trkpt lat="44.97046" lon="5.90689">
        <ele>1924.7</ele>
        <time>2020-09-08T08:20:46Z</time>
      </trkpt>
      <trkpt lat="44.97048" lon="5.90692">
        <ele>1925.66</ele>
        <time>2020-09-08T08:20:57Z</time>
      </trkpt>
      <trkpt lat="44.97047" lon="5.90698">
        <ele>1928.06</ele>
        <time>2020-09-08T08:21:13Z</time>
      </trkpt>
      <trkpt lat="44.97045" lon="5.90704">
        <ele>1929.98</ele>
        <time>2020-09-08T08:21:26Z</time>
      </trkpt>
      <trkpt lat="44.97048" lon="5.90706">
        <ele>1932.87</ele>
        <time>2020-09-08T08:21:41Z</time>
      </trkpt>
      <trkpt lat="44.97052" lon="5.90706">
        <ele>1933.83</ele>
        <time>2020-09-08T08:21:53Z</time>
      </trkpt>
      <trkpt lat="44.97055" lon="5.90707">
        <ele>1935.27</ele>
        <time>2020-09-08T08:22:07Z</time>
      </trkpt>
      <trkpt lat="44.9706" lon="5.90711">
        <ele>1937.67</ele>
        <time>2020-09-08T08:22:22Z</time>
      </trkpt>
      <trkpt lat="44.97063" lon="5.90715">
        <ele>1939.12</ele>
        <time>2020-09-08T08:22:35Z</time>
      </trkpt>
      <trkpt lat="44.97062" lon="5.90722">
        <ele>1941.52</ele>
        <time>2020-09-08T08:22:54Z</time>
      </trkpt>
      <trkpt lat="44.97061" lon="5.90724">
        <ele>1942.48</ele>
        <time>2020-09-08T08:23:10Z</time>
      </trkpt>
      <trkpt lat="44.97061" lon="5.90727">
        <ele>1943.92</ele>
        <time>2020-09-08T08:23:32Z</time>
      </trkpt>
      <trkpt lat="44.97062" lon="5.90729">
        <ele>1946.33</ele>
        <time>2020-09-08T08:23:46Z</time>
      </trkpt>
      <trkpt lat="44.97065" lon="5.90733">
        <ele>1948.73</ele>
        <time>2020-09-08T08:24:01Z</time>
      </trkpt>
      <trkpt lat="44.97065" lon="5.90732">
        <ele>1950.17</ele>
        <time>2020-09-08T08:24:18Z</time>
      </trkpt>
      <trkpt lat="44.97066" lon="5.90735">
        <ele>1950.17</ele>
        <time>2020-09-08T08:24:39Z</time>
      </trkpt>
      <trkpt lat="44.97065" lon="5.90734">
        <ele>1950.17</ele>
        <time>2020-09-08T08:25:09Z</time>
      </trkpt>
      <trkpt lat="44.97066" lon="5.90733">
        <ele>1950.17</ele>
        <time>2020-09-08T08:25:33Z</time>
      </trkpt>
      <trkpt lat="44.97069" lon="5.90736">
        <ele>1952.57</ele>
        <time>2020-09-08T08:25:45Z</time>
      </trkpt>
      <trkpt lat="44.97068" lon="5.9074">
        <ele>1954.5</ele>
        <time>2020-09-08T08:25:59Z</time>
      </trkpt>
      <trkpt lat="44.97071" lon="5.90741">
        <ele>1956.42</ele>
        <time>2020-09-08T08:26:12Z</time>
      </trkpt>
      <trkpt lat="44.97073" lon="5.90749">
        <ele>1957.86</ele>
        <time>2020-09-08T08:26:26Z</time>
      </trkpt>
      <trkpt lat="44.97071" lon="5.90754">
        <ele>1960.27</ele>
        <time>2020-09-08T08:26:42Z</time>
      </trkpt>
      <trkpt lat="44.97071" lon="5.90756">
        <ele>1962.19</ele>
        <time>2020-09-08T08:26:59Z</time>
      </trkpt>
      <trkpt lat="44.97074" lon="5.90758">
        <ele>1964.59</ele>
        <time>2020-09-08T08:27:15Z</time>
      </trkpt>
      <trkpt lat="44.97073" lon="5.90765">
        <ele>1966.03</ele>
        <time>2020-09-08T08:27:31Z</time>
      </trkpt>
      <trkpt lat="44.97071" lon="5.90767">
        <ele>1966.99</ele>
        <time>2020-09-08T08:27:50Z</time>
      </trkpt>
      <trkpt lat="44.9707" lon="5.90772">
        <ele>1968.44</ele>
        <time>2020-09-08T08:28:03Z</time>
      </trkpt>
      <trkpt lat="44.97067" lon="5.90776">
        <ele>1970.84</ele>
        <time>2020-09-08T08:28:19Z</time>
      </trkpt>
      <trkpt lat="44.97063" lon="5.90781">
        <ele>1973.72</ele>
        <time>2020-09-08T08:28:37Z</time>
      </trkpt>
      <trkpt lat="44.97063" lon="5.90782">
        <ele>1974.69</ele>
        <time>2020-09-08T08:28:54Z</time>
      </trkpt>
      <trkpt lat="44.97065" lon="5.90784">
        <ele>1977.09</ele>
        <time>2020-09-08T08:29:08Z</time>
      </trkpt>
      <trkpt lat="44.97062" lon="5.90791">
        <ele>1979.01</ele>
        <time>2020-09-08T08:29:24Z</time>
      </trkpt>
      <trkpt lat="44.9706" lon="5.90796">
        <ele>1981.41</ele>
        <time>2020-09-08T08:29:43Z</time>
      </trkpt>
      <trkpt lat="44.97058" lon="5.90799">
        <ele>1982.86</ele>
        <time>2020-09-08T08:30:01Z</time>
      </trkpt>
      <trkpt lat="44.97056" lon="5.90803">
        <ele>1985.26</ele>
        <time>2020-09-08T08:30:17Z</time>
      </trkpt>
      <trkpt lat="44.97056" lon="5.90806">
        <ele>1987.18</ele>
        <time>2020-09-08T08:30:32Z</time>
      </trkpt>
      <trkpt lat="44.97054" lon="5.90812">
        <ele>1988.62</ele>
        <time>2020-09-08T08:30:48Z</time>
      </trkpt>
      <trkpt lat="44.97053" lon="5.9081">
        <ele>1989.59</ele>
        <time>2020-09-08T08:31:08Z</time>
      </trkpt>
      <trkpt lat="44.97054" lon="5.90813">
        <ele>1991.99</ele>
        <time>2020-09-08T08:31:24Z</time>
      </trkpt>
      <trkpt lat="44.97055" lon="5.90817">
        <ele>1992.95</ele>
        <time>2020-09-08T08:31:40Z</time>
      </trkpt>
      <trkpt lat="44.97053" lon="5.90823">
        <ele>1995.35</ele>
        <time>2020-09-08T08:31:56Z</time>
      </trkpt>
      <trkpt lat="44.97051" lon="5.90825">
        <ele>1996.8</ele>
        <time>2020-09-08T08:32:11Z</time>
      </trkpt>
      <trkpt lat="44.97048" lon="5.90825">
        <ele>1999.2</ele>
        <time>2020-09-08T08:32:26Z</time>
      </trkpt>
      <trkpt lat="44.97049" lon="5.90827">
        <ele>2000.64</ele>
        <time>2020-09-08T08:32:44Z</time>
      </trkpt>
      <trkpt lat="44.9705" lon="5.90829">
        <ele>2002.08</ele>
        <time>2020-09-08T08:32:59Z</time>
      </trkpt>
      <trkpt lat="44.97053" lon="5.90832">
        <ele>2004.49</ele>
        <time>2020-09-08T08:33:13Z</time>
      </trkpt>
      <trkpt lat="44.97055" lon="5.90833">
        <ele>2005.93</ele>
        <time>2020-09-08T08:33:26Z</time>
      </trkpt>
      <trkpt lat="44.97058" lon="5.90838">
        <ele>2008.33</ele>
        <time>2020-09-08T08:33:44Z</time>
      </trkpt>
      <trkpt lat="44.97061" lon="5.90839">
        <ele>2009.29</ele>
        <time>2020-09-08T08:34:00Z</time>
      </trkpt>
      <trkpt lat="44.97064" lon="5.90841">
        <ele>2011.7</ele>
        <time>2020-09-08T08:34:15Z</time>
      </trkpt>
      <trkpt lat="44.97067" lon="5.90841">
        <ele>2012.66</ele>
        <time>2020-09-08T08:34:26Z</time>
      </trkpt>
      <trkpt lat="44.97068" lon="5.90841">
        <ele>2012.66</ele>
        <time>2020-09-08T08:34:41Z</time>
      </trkpt>
      <trkpt lat="44.97069" lon="5.90843">
        <ele>2012.66</ele>
        <time>2020-09-08T08:35:05Z</time>
      </trkpt>
      <trkpt lat="44.9707" lon="5.90844">
        <ele>2012.66</ele>
        <time>2020-09-08T08:35:31Z</time>
      </trkpt>
      <trkpt lat="44.97071" lon="5.90844">
        <ele>2012.66</ele>
        <time>2020-09-08T08:35:52Z</time>
      </trkpt>
      <trkpt lat="44.9707" lon="5.90844">
        <ele>2013.14</ele>
        <time>2020-09-08T08:36:12Z</time>
      </trkpt>
      <trkpt lat="44.9707" lon="5.90847">
        <ele>2014.1</ele>
        <time>2020-09-08T08:36:25Z</time>
      </trkpt>
      <trkpt lat="44.97074" lon="5.90852">
        <ele>2016.98</ele>
        <time>2020-09-08T08:36:39Z</time>
      </trkpt>
      <trkpt lat="44.97074" lon="5.90859">
        <ele>2018.91</ele>
        <time>2020-09-08T08:36:55Z</time>
      </trkpt>
      <trkpt lat="44.97074" lon="5.90864">
        <ele>2021.79</ele>
        <time>2020-09-08T08:37:08Z</time>
      </trkpt>
      <trkpt lat="44.97073" lon="5.90867">
        <ele>2023.23</ele>
        <time>2020-09-08T08:37:24Z</time>
      </trkpt>
      <trkpt lat="44.97076" lon="5.90869">
        <ele>2025.15</ele>
        <time>2020-09-08T08:37:38Z</time>
      </trkpt>
      <trkpt lat="44.97075" lon="5.90874">
        <ele>2027.08</ele>
        <time>2020-09-08T08:37:54Z</time>
      </trkpt>
      <trkpt lat="44.97076" lon="5.90873">
        <ele>2027.56</ele>
        <time>2020-09-08T08:38:18Z</time>
      </trkpt>
      <trkpt lat="44.97076" lon="5.90873">
        <ele>2028.04</ele>
        <time>2020-09-08T08:38:53Z</time>
      </trkpt>
      <trkpt lat="44.97076" lon="5.90873">
        <ele>2028.04</ele>
        <time>2020-09-08T08:39:21Z</time>
      </trkpt>
      <trkpt lat="44.97076" lon="5.90875">
        <ele>2028.04</ele>
        <time>2020-09-08T08:39:47Z</time>
      </trkpt>
      <trkpt lat="44.97075" lon="5.90873">
        <ele>2028.52</ele>
        <time>2020-09-08T08:40:09Z</time>
      </trkpt>
      <trkpt lat="44.97071" lon="5.90878">
        <ele>2029.48</ele>
        <time>2020-09-08T08:40:27Z</time>
      </trkpt>
      <trkpt lat="44.97063" lon="5.90883">
        <ele>2032.84</ele>
        <time>2020-09-08T08:40:46Z</time>
      </trkpt>
      <trkpt lat="44.97059" lon="5.90892">
        <ele>2036.21</ele>
        <time>2020-09-08T08:41:02Z</time>
      </trkpt>
      <trkpt lat="44.97054" lon="5.90897">
        <ele>2039.09</ele>
        <time>2020-09-08T08:41:17Z</time>
      </trkpt>
      <trkpt lat="44.97049" lon="5.90899">
        <ele>2041.02</ele>
        <time>2020-09-08T08:41:33Z</time>
      </trkpt>
      <trkpt lat="44.97041" lon="5.90905">
        <ele>2043.9</ele>
        <time>2020-09-08T08:41:51Z</time>
      </trkpt>
      <trkpt lat="44.97034" lon="5.90909">
        <ele>2046.3</ele>
        <time>2020-09-08T08:42:08Z</time>
      </trkpt>
      <trkpt lat="44.97024" lon="5.90914">
        <ele>2049.19</ele>
        <time>2020-09-08T08:42:26Z</time>
      </trkpt>
      <trkpt lat="44.9702" lon="5.90919">
        <ele>2052.55</ele>
        <time>2020-09-08T08:42:44Z</time>
      </trkpt>
      <trkpt lat="44.97014" lon="5.90925">
        <ele>2055.44</ele>
        <time>2020-09-08T08:43:02Z</time>
      </trkpt>
      <trkpt lat="44.97008" lon="5.9093">
        <ele>2058.32</ele>
        <time>2020-09-08T08:43:21Z</time>
      </trkpt>
      <trkpt lat="44.96998" lon="5.90935">
        <ele>2061.2</ele>
        <time>2020-09-08T08:43:42Z</time>
      </trkpt>
      <trkpt lat="44.96994" lon="5.90944">
        <ele>2064.09</ele>
        <time>2020-09-08T08:43:59Z</time>
      </trkpt>
      <trkpt lat="44.96989" lon="5.9095">
        <ele>2066.97</ele>
        <time>2020-09-08T08:44:16Z</time>
      </trkpt>
      <trkpt lat="44.96983" lon="5.90957">
        <ele>2070.34</ele>
        <time>2020-09-08T08:44:35Z</time>
      </trkpt>
      <trkpt lat="44.96978" lon="5.90964">
        <ele>2072.74</ele>
        <time>2020-09-08T08:44:52Z</time>
      </trkpt>
      <trkpt lat="44.96975" lon="5.9097">
        <ele>2076.1</ele>
        <time>2020-09-08T08:45:09Z</time>
      </trkpt>
      <trkpt lat="44.96971" lon="5.90977">
        <ele>2078.51</ele>
        <time>2020-09-08T08:45:26Z</time>
      </trkpt>
      <trkpt lat="44.96966" lon="5.90983">
        <ele>2080.91</ele>
        <time>2020-09-08T08:45:43Z</time>
      </trkpt>
      <trkpt lat="44.96958" lon="5.90991">
        <ele>2084.28</ele>
        <time>2020-09-08T08:46:01Z</time>
      </trkpt>
      <trkpt lat="44.96955" lon="5.90996">
        <ele>2086.68</ele>
        <time>2020-09-08T08:46:16Z</time>
      </trkpt>
      <trkpt lat="44.96951" lon="5.91001">
        <ele>2089.08</ele>
        <time>2020-09-08T08:46:35Z</time>
      </trkpt>
      <trkpt lat="44.96945" lon="5.91006">
        <ele>2091.49</ele>
        <time>2020-09-08T08:46:50Z</time>
      </trkpt>
      <trkpt lat="44.96941" lon="5.91009">
        <ele>2093.89</ele>
        <time>2020-09-08T08:47:04Z</time>
      </trkpt>
      <trkpt lat="44.96934" lon="5.91013">
        <ele>2096.77</ele>
        <time>2020-09-08T08:47:22Z</time>
      </trkpt>
      <trkpt lat="44.96925" lon="5.91017">
        <ele>2100.14</ele>
        <time>2020-09-08T08:47:42Z</time>
      </trkpt>
      <trkpt lat="44.96918" lon="5.91021">
        <ele>2102.06</ele>
        <time>2020-09-08T08:47:57Z</time>
      </trkpt>
      <trkpt lat="44.9691" lon="5.91023">
        <ele>2105.42</ele>
        <time>2020-09-08T08:48:15Z</time>
      </trkpt>
      <trkpt lat="44.969" lon="5.91022">
        <ele>2107.35</ele>
        <time>2020-09-08T08:48:33Z</time>
      </trkpt>
      <trkpt lat="44.96893" lon="5.91024">
        <ele>2109.27</ele>
        <time>2020-09-08T08:48:49Z</time>
      </trkpt>
      <trkpt lat="44.96888" lon="5.91029">
        <ele>2111.67</ele>
        <time>2020-09-08T08:49:08Z</time>
      </trkpt>
      <trkpt lat="44.96882" lon="5.91031">
        <ele>2115.04</ele>
        <time>2020-09-08T08:49:24Z</time>
      </trkpt>
      <trkpt lat="44.96873" lon="5.91028">
        <ele>2116</ele>
        <time>2020-09-08T08:49:41Z</time>
      </trkpt>
      <trkpt lat="44.96864" lon="5.91029">
        <ele>2118.4</ele>
        <time>2020-09-08T08:49:59Z</time>
      </trkpt>
      <trkpt lat="44.96856" lon="5.91031">
        <ele>2121.29</ele>
        <time>2020-09-08T08:50:16Z</time>
      </trkpt>
      <trkpt lat="44.96849" lon="5.91033">
        <ele>2123.69</ele>
        <time>2020-09-08T08:50:35Z</time>
      </trkpt>
      <trkpt lat="44.96839" lon="5.91034">
        <ele>2126.57</ele>
        <time>2020-09-08T08:50:55Z</time>
      </trkpt>
      <trkpt lat="44.96831" lon="5.91033">
        <ele>2128.5</ele>
        <time>2020-09-08T08:51:11Z</time>
      </trkpt>
      <trkpt lat="44.96825" lon="5.91034">
        <ele>2130.9</ele>
        <time>2020-09-08T08:51:28Z</time>
      </trkpt>
      <trkpt lat="44.96817" lon="5.91037">
        <ele>2133.78</ele>
        <time>2020-09-08T08:51:46Z</time>
      </trkpt>
      <trkpt lat="44.9681" lon="5.91038">
        <ele>2135.71</ele>
        <time>2020-09-08T08:52:04Z</time>
      </trkpt>
      <trkpt lat="44.96803" lon="5.9104">
        <ele>2139.07</ele>
        <time>2020-09-08T08:52:22Z</time>
      </trkpt>
      <trkpt lat="44.96795" lon="5.91043">
        <ele>2142.44</ele>
        <time>2020-09-08T08:52:41Z</time>
      </trkpt>
      <trkpt lat="44.96786" lon="5.91046">
        <ele>2144.84</ele>
        <time>2020-09-08T08:52:59Z</time>
      </trkpt>
      <trkpt lat="44.96782" lon="5.91048">
        <ele>2146.76</ele>
        <time>2020-09-08T08:53:12Z</time>
      </trkpt>
      <trkpt lat="44.96778" lon="5.9105">
        <ele>2149.16</ele>
        <time>2020-09-08T08:53:26Z</time>
      </trkpt>
      <trkpt lat="44.96772" lon="5.91051">
        <ele>2152.05</ele>
        <time>2020-09-08T08:53:43Z</time>
      </trkpt>
      <trkpt lat="44.96766" lon="5.91053">
        <ele>2154.45</ele>
        <time>2020-09-08T08:53:58Z</time>
      </trkpt>
      <trkpt lat="44.96765" lon="5.91054">
        <ele>2155.41</ele>
        <time>2020-09-08T08:54:14Z</time>
      </trkpt>
      <trkpt lat="44.96764" lon="5.91054">
        <ele>2156.37</ele>
        <time>2020-09-08T08:54:32Z</time>
      </trkpt>
      <trkpt lat="44.96762" lon="5.91054">
        <ele>2156.37</ele>
        <time>2020-09-08T08:55:02Z</time>
      </trkpt>
      <trkpt lat="44.96763" lon="5.91053">
        <ele>2156.37</ele>
        <time>2020-09-08T08:55:28Z</time>
      </trkpt>
      <trkpt lat="44.96763" lon="5.91052">
        <ele>2157.34</ele>
        <time>2020-09-08T08:55:55Z</time>
      </trkpt>
      <trkpt lat="44.96762" lon="5.91052">
        <ele>2157.34</ele>
        <time>2020-09-08T08:56:20Z</time>
      </trkpt>
      <trkpt lat="44.96762" lon="5.91053">
        <ele>2157.34</ele>
        <time>2020-09-08T08:56:48Z</time>
      </trkpt>
      <trkpt lat="44.96762" lon="5.91053">
        <ele>2157.82</ele>
        <time>2020-09-08T08:56:55Z</time>
      </trkpt>
      <trkpt lat="44.96762" lon="5.91053">
        <ele>2156.37</ele>
        <time>2020-09-08T08:56:58Z</time>
      </trkpt>
      <trkpt lat="44.96757" lon="5.91053">
        <ele>2157.82</ele>
        <time>2020-09-08T08:57:09Z</time>
      </trkpt>
      <trkpt lat="44.9675" lon="5.91057">
        <ele>2161.18</ele>
        <time>2020-09-08T08:57:27Z</time>
      </trkpt>
      <trkpt lat="44.96742" lon="5.91061">
        <ele>2163.1</ele>
        <time>2020-09-08T08:57:44Z</time>
      </trkpt>
      <trkpt lat="44.96738" lon="5.91064">
        <ele>2165.51</ele>
        <time>2020-09-08T08:57:59Z</time>
      </trkpt>
      <trkpt lat="44.96734" lon="5.91067">
        <ele>2167.43</ele>
        <time>2020-09-08T08:58:14Z</time>
      </trkpt>
      <trkpt lat="44.96728" lon="5.9107">
        <ele>2170.31</ele>
        <time>2020-09-08T08:58:30Z</time>
      </trkpt>
      <trkpt lat="44.96723" lon="5.91072">
        <ele>2172.24</ele>
        <time>2020-09-08T08:58:46Z</time>
      </trkpt>
      <trkpt lat="44.96718" lon="5.91075">
        <ele>2174.64</ele>
        <time>2020-09-08T08:59:03Z</time>
      </trkpt>
      <trkpt lat="44.96713" lon="5.91079">
        <ele>2177.04</ele>
        <time>2020-09-08T08:59:18Z</time>
      </trkpt>
      <trkpt lat="44.96712" lon="5.91083">
        <ele>2179.45</ele>
        <time>2020-09-08T08:59:35Z</time>
      </trkpt>
      <trkpt lat="44.96708" lon="5.91086">
        <ele>2181.85</ele>
        <time>2020-09-08T08:59:52Z</time>
      </trkpt>
      <trkpt lat="44.96708" lon="5.91086">
        <ele>2182.81</ele>
        <time>2020-09-08T09:00:10Z</time>
      </trkpt>
      <trkpt lat="44.96702" lon="5.91087">
        <ele>2184.73</ele>
        <time>2020-09-08T09:00:27Z</time>
      </trkpt>
      <trkpt lat="44.967" lon="5.91091">
        <ele>2186.66</ele>
        <time>2020-09-08T09:00:41Z</time>
      </trkpt>
      <trkpt lat="44.96694" lon="5.91091">
        <ele>2188.1</ele>
        <time>2020-09-08T09:00:54Z</time>
      </trkpt>
      <trkpt lat="44.96686" lon="5.91093">
        <ele>2190.5</ele>
        <time>2020-09-08T09:01:15Z</time>
      </trkpt>
      <trkpt lat="44.96682" lon="5.91098">
        <ele>2192.42</ele>
        <time>2020-09-08T09:01:32Z</time>
      </trkpt>
      <trkpt lat="44.96679" lon="5.91104">
        <ele>2194.83</ele>
        <time>2020-09-08T09:01:49Z</time>
      </trkpt>
      <trkpt lat="44.96677" lon="5.91109">
        <ele>2197.23</ele>
        <time>2020-09-08T09:02:07Z</time>
      </trkpt>
      <trkpt lat="44.96675" lon="5.91112">
        <ele>2199.15</ele>
        <time>2020-09-08T09:02:24Z</time>
      </trkpt>
      <trkpt lat="44.96674" lon="5.91114">
        <ele>2199.15</ele>
        <time>2020-09-08T09:02:46Z</time>
      </trkpt>
      <trkpt lat="44.96673" lon="5.91118">
        <ele>2200.59</ele>
        <time>2020-09-08T09:02:58Z</time>
      </trkpt>
      <trkpt lat="44.96672" lon="5.9112">
        <ele>2202.52</ele>
        <time>2020-09-08T09:03:10Z</time>
      </trkpt>
      <trkpt lat="44.96671" lon="5.91124">
        <ele>2204.44</ele>
        <time>2020-09-08T09:03:21Z</time>
      </trkpt>
      <trkpt lat="44.96667" lon="5.91129">
        <ele>2206.84</ele>
        <time>2020-09-08T09:03:37Z</time>
      </trkpt>
      <trkpt lat="44.9666" lon="5.91133">
        <ele>2207.32</ele>
        <time>2020-09-08T09:03:53Z</time>
      </trkpt>
      <trkpt lat="44.96656" lon="5.91135">
        <ele>2207.81</ele>
        <time>2020-09-08T09:04:09Z</time>
      </trkpt>
      <trkpt lat="44.9665" lon="5.9114">
        <ele>2208.77</ele>
        <time>2020-09-08T09:04:25Z</time>
      </trkpt>
      <trkpt lat="44.96647" lon="5.91141">
        <ele>2209.25</ele>
        <time>2020-09-08T09:04:40Z</time>
      </trkpt>
      <trkpt lat="44.96642" lon="5.91143">
        <ele>2209.73</ele>
        <time>2020-09-08T09:04:55Z</time>
      </trkpt>
      <trkpt lat="44.96638" lon="5.91146">
        <ele>2210.69</ele>
        <time>2020-09-08T09:05:09Z</time>
      </trkpt>
      <trkpt lat="44.96635" lon="5.91146">
        <ele>2211.17</ele>
        <time>2020-09-08T09:05:25Z</time>
      </trkpt>
      <trkpt lat="44.9663" lon="5.91145">
        <ele>2211.65</ele>
        <time>2020-09-08T09:05:41Z</time>
      </trkpt>
      <trkpt lat="44.96628" lon="5.91146">
        <ele>2213.09</ele>
        <time>2020-09-08T09:06:00Z</time>
      </trkpt>
      <trkpt lat="44.96629" lon="5.91148">
        <ele>2213.09</ele>
        <time>2020-09-08T09:06:16Z</time>
      </trkpt>
      <trkpt lat="44.96628" lon="5.91148">
        <ele>2213.57</ele>
        <time>2020-09-08T09:06:30Z</time>
      </trkpt>
      <trkpt lat="44.96622" lon="5.91149">
        <ele>2215.5</ele>
        <time>2020-09-08T09:06:44Z</time>
      </trkpt>
      <trkpt lat="44.96617" lon="5.9115">
        <ele>2216.46</ele>
        <time>2020-09-08T09:07:02Z</time>
      </trkpt>
      <trkpt lat="44.96611" lon="5.91148">
        <ele>2216.46</ele>
        <time>2020-09-08T09:07:19Z</time>
      </trkpt>
      <trkpt lat="44.96607" lon="5.91146">
        <ele>2215.5</ele>
        <time>2020-09-08T09:07:33Z</time>
      </trkpt>
      <trkpt lat="44.96602" lon="5.91145">
        <ele>2215.01</ele>
        <time>2020-09-08T09:07:47Z</time>
      </trkpt>
      <trkpt lat="44.96601" lon="5.91145">
        <ele>2216.46</ele>
        <time>2020-09-08T09:07:50Z</time>
      </trkpt>
      <trkpt lat="44.96597" lon="5.91145">
        <ele>2217.9</ele>
        <time>2020-09-08T09:08:04Z</time>
      </trkpt>
      <trkpt lat="44.96592" lon="5.91146">
        <ele>2220.3</ele>
        <time>2020-09-08T09:08:20Z</time>
      </trkpt>
      <trkpt lat="44.96588" lon="5.91146">
        <ele>2222.71</ele>
        <time>2020-09-08T09:08:35Z</time>
      </trkpt>
      <trkpt lat="44.96583" lon="5.91146">
        <ele>2224.63</ele>
        <time>2020-09-08T09:08:51Z</time>
      </trkpt>
      <trkpt lat="44.96576" lon="5.91145">
        <ele>2226.07</ele>
        <time>2020-09-08T09:09:09Z</time>
      </trkpt>
      <trkpt lat="44.96573" lon="5.91149">
        <ele>2227.51</ele>
        <time>2020-09-08T09:09:24Z</time>
      </trkpt>
      <trkpt lat="44.9657" lon="5.91149">
        <ele>2227.99</ele>
        <time>2020-09-08T09:09:38Z</time>
      </trkpt>
      <trkpt lat="44.96568" lon="5.91155">
        <ele>2228.95</ele>
        <time>2020-09-08T09:09:54Z</time>
      </trkpt>
      <trkpt lat="44.96566" lon="5.91155">
        <ele>2229.43</ele>
        <time>2020-09-08T09:09:57Z</time>
      </trkpt>
      <trkpt lat="44.9656" lon="5.91164">
        <ele>2231.36</ele>
        <time>2020-09-08T09:10:13Z</time>
      </trkpt>
      <trkpt lat="44.96558" lon="5.91165">
        <ele>2232.32</ele>
        <time>2020-09-08T09:10:32Z</time>
      </trkpt>
      <trkpt lat="44.96559" lon="5.91165">
        <ele>2232.8</ele>
        <time>2020-09-08T09:10:58Z</time>
      </trkpt>
      <trkpt lat="44.96558" lon="5.91167">
        <ele>2232.8</ele>
        <time>2020-09-08T09:11:16Z</time>
      </trkpt>
      <trkpt lat="44.96559" lon="5.91167">
        <ele>2232.8</ele>
        <time>2020-09-08T09:11:42Z</time>
      </trkpt>
      <trkpt lat="44.96559" lon="5.91165">
        <ele>2231.84</ele>
        <time>2020-09-08T09:11:57Z</time>
      </trkpt>
      <trkpt lat="44.96558" lon="5.91166">
        <ele>2231.84</ele>
        <time>2020-09-08T09:12:14Z</time>
      </trkpt>
      <trkpt lat="44.9656" lon="5.91159">
        <ele>2230.4</ele>
        <time>2020-09-08T09:12:30Z</time>
      </trkpt>
      <trkpt lat="44.96566" lon="5.91157">
        <ele>2229.92</ele>
        <time>2020-09-08T09:12:44Z</time>
      </trkpt>
      <trkpt lat="44.96566" lon="5.91158">
        <ele>2229.92</ele>
        <time>2020-09-08T09:13:19Z</time>
      </trkpt>
      <trkpt lat="44.9656" lon="5.91162">
        <ele>2231.36</ele>
        <time>2020-09-08T09:13:32Z</time>
      </trkpt>
      <trkpt lat="44.9656" lon="5.91163">
        <ele>2231.36</ele>
        <time>2020-09-08T09:13:33Z</time>
      </trkpt>
      <trkpt lat="44.9656" lon="5.91162">
        <ele>2231.84</ele>
        <time>2020-09-08T09:13:51Z</time>
      </trkpt>
      <trkpt lat="44.9656" lon="5.91165">
        <ele>2230.88</ele>
        <time>2020-09-08T09:14:07Z</time>
      </trkpt>
      <trkpt lat="44.96559" lon="5.91166">
        <ele>2232.32</ele>
        <time>2020-09-08T09:14:24Z</time>
      </trkpt>
      <trkpt lat="44.9656" lon="5.91167">
        <ele>2232.32</ele>
        <time>2020-09-08T09:14:43Z</time>
      </trkpt>
      <trkpt lat="44.96563" lon="5.91172">
        <ele>2233.28</ele>
        <time>2020-09-08T09:15:00Z</time>
      </trkpt>
      <trkpt lat="44.96572" lon="5.91171">
        <ele>2235.2</ele>
        <time>2020-09-08T09:15:16Z</time>
      </trkpt>
      <trkpt lat="44.96578" lon="5.91172">
        <ele>2237.61</ele>
        <time>2020-09-08T09:15:32Z</time>
      </trkpt>
      <trkpt lat="44.96581" lon="5.91176">
        <ele>2239.53</ele>
        <time>2020-09-08T09:15:48Z</time>
      </trkpt>
      <trkpt lat="44.96584" lon="5.91183">
        <ele>2241.45</ele>
        <time>2020-09-08T09:16:04Z</time>
      </trkpt>
      <trkpt lat="44.96587" lon="5.91187">
        <ele>2244.33</ele>
        <time>2020-09-08T09:16:20Z</time>
      </trkpt>
      <trkpt lat="44.96591" lon="5.91192">
        <ele>2245.78</ele>
        <time>2020-09-08T09:16:39Z</time>
      </trkpt>
      <trkpt lat="44.96588" lon="5.91196">
        <ele>2247.7</ele>
        <time>2020-09-08T09:16:56Z</time>
      </trkpt>
      <trkpt lat="44.96584" lon="5.91201">
        <ele>2250.1</ele>
        <time>2020-09-08T09:17:12Z</time>
      </trkpt>
      <trkpt lat="44.9658" lon="5.91206">
        <ele>2251.54</ele>
        <time>2020-09-08T09:17:27Z</time>
      </trkpt>
      <trkpt lat="44.96577" lon="5.91211">
        <ele>2252.03</ele>
        <time>2020-09-08T09:17:44Z</time>
      </trkpt>
      <trkpt lat="44.9658" lon="5.91214">
        <ele>2255.39</ele>
        <time>2020-09-08T09:17:59Z</time>
      </trkpt>
      <trkpt lat="44.96585" lon="5.91217">
        <ele>2257.31</ele>
        <time>2020-09-08T09:18:16Z</time>
      </trkpt>
      <trkpt lat="44.9659" lon="5.9122">
        <ele>2259.72</ele>
        <time>2020-09-08T09:18:32Z</time>
      </trkpt>
      <trkpt lat="44.96596" lon="5.91226">
        <ele>2262.6</ele>
        <time>2020-09-08T09:18:50Z</time>
      </trkpt>
      <trkpt lat="44.96599" lon="5.91232">
        <ele>2264.04</ele>
        <time>2020-09-08T09:19:07Z</time>
      </trkpt>
      <trkpt lat="44.96594" lon="5.91235">
        <ele>2265.96</ele>
        <time>2020-09-08T09:19:22Z</time>
      </trkpt>
      <trkpt lat="44.96599" lon="5.91238">
        <ele>2268.37</ele>
        <time>2020-09-08T09:19:40Z</time>
      </trkpt>
      <trkpt lat="44.96601" lon="5.91243">
        <ele>2269.81</ele>
        <time>2020-09-08T09:19:57Z</time>
      </trkpt>
      <trkpt lat="44.96603" lon="5.91246">
        <ele>2272.21</ele>
        <time>2020-09-08T09:20:13Z</time>
      </trkpt>
      <trkpt lat="44.96605" lon="5.91247">
        <ele>2273.17</ele>
        <time>2020-09-08T09:20:30Z</time>
      </trkpt>
      <trkpt lat="44.96608" lon="5.91253">
        <ele>2275.58</ele>
        <time>2020-09-08T09:20:48Z</time>
      </trkpt>
      <trkpt lat="44.96612" lon="5.91257">
        <ele>2278.46</ele>
        <time>2020-09-08T09:21:06Z</time>
      </trkpt>
      <trkpt lat="44.96612" lon="5.91256">
        <ele>2279.42</ele>
        <time>2020-09-08T09:21:22Z</time>
      </trkpt>
      <trkpt lat="44.96614" lon="5.91257">
        <ele>2280.38</ele>
        <time>2020-09-08T09:21:35Z</time>
      </trkpt>
      <trkpt lat="44.96613" lon="5.91256">
        <ele>2280.38</ele>
        <time>2020-09-08T09:22:02Z</time>
      </trkpt>
      <trkpt lat="44.96615" lon="5.91262">
        <ele>2281.83</ele>
        <time>2020-09-08T09:22:27Z</time>
      </trkpt>
      <trkpt lat="44.96615" lon="5.91262">
        <ele>2281.83</ele>
        <time>2020-09-08T09:23:02Z</time>
      </trkpt>
      <trkpt lat="44.96614" lon="5.91262">
        <ele>2281.83</ele>
        <time>2020-09-08T09:23:32Z</time>
      </trkpt>
      <trkpt lat="44.96619" lon="5.91266">
        <ele>2282.79</ele>
        <time>2020-09-08T09:23:52Z</time>
      </trkpt>
      <trkpt lat="44.96623" lon="5.91268">
        <ele>2284.23</ele>
        <time>2020-09-08T09:24:06Z</time>
      </trkpt>
      <trkpt lat="44.9662" lon="5.91272">
        <ele>2287.11</ele>
        <time>2020-09-08T09:24:23Z</time>
      </trkpt>
      <trkpt lat="44.96613" lon="5.91273">
        <ele>2289.04</ele>
        <time>2020-09-08T09:24:38Z</time>
      </trkpt>
      <trkpt lat="44.9661" lon="5.91279">
        <ele>2290.96</ele>
        <time>2020-09-08T09:24:54Z</time>
      </trkpt>
      <trkpt lat="44.96606" lon="5.9128">
        <ele>2293.36</ele>
        <time>2020-09-08T09:25:10Z</time>
      </trkpt>
      <trkpt lat="44.96602" lon="5.91283">
        <ele>2295.28</ele>
        <time>2020-09-08T09:25:25Z</time>
      </trkpt>
      <trkpt lat="44.96601" lon="5.91284">
        <ele>2295.77</ele>
        <time>2020-09-08T09:25:34Z</time>
      </trkpt>
      <trkpt lat="44.96592" lon="5.91291">
        <ele>2298.65</ele>
        <time>2020-09-08T09:25:50Z</time>
      </trkpt>
      <trkpt lat="44.96586" lon="5.91293">
        <ele>2299.13</ele>
        <time>2020-09-08T09:26:05Z</time>
      </trkpt>
      <trkpt lat="44.96584" lon="5.91293">
        <ele>2299.13</ele>
        <time>2020-09-08T09:26:37Z</time>
      </trkpt>
      <trkpt lat="44.96583" lon="5.91298">
        <ele>2300.09</ele>
        <time>2020-09-08T09:26:51Z</time>
      </trkpt>
      <trkpt lat="44.96581" lon="5.91306">
        <ele>2301.05</ele>
        <time>2020-09-08T09:27:05Z</time>
      </trkpt>
      <trkpt lat="44.96578" lon="5.91317">
        <ele>2302.98</ele>
        <time>2020-09-08T09:27:22Z</time>
      </trkpt>
      <trkpt lat="44.96573" lon="5.91325">
        <ele>2306.34</ele>
        <time>2020-09-08T09:27:41Z</time>
      </trkpt>
      <trkpt lat="44.9657" lon="5.9133">
        <ele>2308.26</ele>
        <time>2020-09-08T09:27:58Z</time>
      </trkpt>
      <trkpt lat="44.96569" lon="5.91333">
        <ele>2310.67</ele>
        <time>2020-09-08T09:28:14Z</time>
      </trkpt>
      <trkpt lat="44.9657" lon="5.91336">
        <ele>2312.59</ele>
        <time>2020-09-08T09:28:30Z</time>
      </trkpt>
      <trkpt lat="44.96567" lon="5.9134">
        <ele>2314.03</ele>
        <time>2020-09-08T09:28:43Z</time>
      </trkpt>
      <trkpt lat="44.96566" lon="5.91342">
        <ele>2315.95</ele>
        <time>2020-09-08T09:28:56Z</time>
      </trkpt>
      <trkpt lat="44.96568" lon="5.91349">
        <ele>2317.4</ele>
        <time>2020-09-08T09:29:09Z</time>
      </trkpt>
      <trkpt lat="44.96565" lon="5.91357">
        <ele>2318.84</ele>
        <time>2020-09-08T09:29:25Z</time>
      </trkpt>
      <trkpt lat="44.96564" lon="5.91365">
        <ele>2320.76</ele>
        <time>2020-09-08T09:29:40Z</time>
      </trkpt>
      <trkpt lat="44.96558" lon="5.9137">
        <ele>2322.68</ele>
        <time>2020-09-08T09:29:55Z</time>
      </trkpt>
      <trkpt lat="44.96556" lon="5.91379">
        <ele>2324.61</ele>
        <time>2020-09-08T09:30:09Z</time>
      </trkpt>
      <trkpt lat="44.96557" lon="5.9138">
        <ele>2324.12</ele>
        <time>2020-09-08T09:30:23Z</time>
      </trkpt>
      <trkpt lat="44.96556" lon="5.91377">
        <ele>2324.12</ele>
        <time>2020-09-08T09:30:41Z</time>
      </trkpt>
      <trkpt lat="44.96556" lon="5.91378">
        <ele>2324.61</ele>
        <time>2020-09-08T09:31:06Z</time>
      </trkpt>
      <trkpt lat="44.96557" lon="5.91378">
        <ele>2325.57</ele>
        <time>2020-09-08T09:31:11Z</time>
      </trkpt>
      <trkpt lat="44.96555" lon="5.91378">
        <ele>2326.05</ele>
        <time>2020-09-08T09:31:36Z</time>
      </trkpt>
      <trkpt lat="44.96555" lon="5.91377">
        <ele>2326.05</ele>
        <time>2020-09-08T09:31:59Z</time>
      </trkpt>
      <trkpt lat="44.96555" lon="5.91378">
        <ele>2326.05</ele>
        <time>2020-09-08T09:32:28Z</time>
      </trkpt>
      <trkpt lat="44.96555" lon="5.91379">
        <ele>2325.57</ele>
        <time>2020-09-08T09:32:57Z</time>
      </trkpt>
      <trkpt lat="44.96554" lon="5.9138">
        <ele>2325.57</ele>
        <time>2020-09-08T09:33:23Z</time>
      </trkpt>
      <trkpt lat="44.96553" lon="5.9138">
        <ele>2325.57</ele>
        <time>2020-09-08T09:33:50Z</time>
      </trkpt>
      <trkpt lat="44.96555" lon="5.91379">
        <ele>2325.09</ele>
        <time>2020-09-08T09:34:19Z</time>
      </trkpt>
      <trkpt lat="44.96556" lon="5.91379">
        <ele>2325.09</ele>
        <time>2020-09-08T09:34:55Z</time>
      </trkpt>
      <trkpt lat="44.96556" lon="5.9138">
        <ele>2326.53</ele>
        <time>2020-09-08T09:35:09Z</time>
      </trkpt>
      <trkpt lat="44.96555" lon="5.91378">
        <ele>2325.09</ele>
        <time>2020-09-08T09:35:20Z</time>
      </trkpt>
      <trkpt lat="44.96555" lon="5.91378">
        <ele>2325.09</ele>
        <time>2020-09-08T09:35:43Z</time>
      </trkpt>
      <trkpt lat="44.96555" lon="5.91379">
        <ele>2325.09</ele>
        <time>2020-09-08T09:36:16Z</time>
      </trkpt>
      <trkpt lat="44.96555" lon="5.91381">
        <ele>2325.09</ele>
        <time>2020-09-08T09:36:47Z</time>
      </trkpt>
      <trkpt lat="44.96556" lon="5.91382">
        <ele>2325.09</ele>
        <time>2020-09-08T09:37:05Z</time>
      </trkpt>
      <trkpt lat="44.96558" lon="5.91381">
        <ele>2325.09</ele>
        <time>2020-09-08T09:37:29Z</time>
      </trkpt>
      <trkpt lat="44.96555" lon="5.91381">
        <ele>2327.01</ele>
        <time>2020-09-08T09:37:54Z</time>
      </trkpt>
      <trkpt lat="44.96555" lon="5.9138">
        <ele>2325.09</ele>
        <time>2020-09-08T09:37:56Z</time>
      </trkpt>
      <trkpt lat="44.96555" lon="5.9138">
        <ele>2326.53</ele>
        <time>2020-09-08T09:37:59Z</time>
      </trkpt>
      <trkpt lat="44.96553" lon="5.91379">
        <ele>2326.53</ele>
        <time>2020-09-08T09:38:35Z</time>
      </trkpt>
      <trkpt lat="44.96554" lon="5.91379">
        <ele>2327.01</ele>
        <time>2020-09-08T09:39:19Z</time>
      </trkpt>
      <trkpt lat="44.96553" lon="5.9138">
        <ele>2327.01</ele>
        <time>2020-09-08T09:39:57Z</time>
      </trkpt>
      <trkpt lat="44.96553" lon="5.91381">
        <ele>2325.57</ele>
        <time>2020-09-08T09:40:01Z</time>
      </trkpt>
      <trkpt lat="44.96551" lon="5.9138">
        <ele>2325.57</ele>
        <time>2020-09-08T09:40:36Z</time>
      </trkpt>
      <trkpt lat="44.96551" lon="5.9138">
        <ele>2325.57</ele>
        <time>2020-09-08T09:41:14Z</time>
      </trkpt>
      <trkpt lat="44.96551" lon="5.91379">
        <ele>2326.05</ele>
        <time>2020-09-08T09:41:53Z</time>
      </trkpt>
      <trkpt lat="44.96551" lon="5.91379">
        <ele>2326.05</ele>
        <time>2020-09-08T09:42:30Z</time>
      </trkpt>
      <trkpt lat="44.96552" lon="5.9138">
        <ele>2326.05</ele>
        <time>2020-09-08T09:43:05Z</time>
      </trkpt>
      <trkpt lat="44.96552" lon="5.91381">
        <ele>2325.57</ele>
        <time>2020-09-08T09:43:39Z</time>
      </trkpt>
      <trkpt lat="44.96552" lon="5.9138">
        <ele>2327.49</ele>
        <time>2020-09-08T09:43:46Z</time>
      </trkpt>
      <trkpt lat="44.96552" lon="5.91379">
        <ele>2326.05</ele>
        <time>2020-09-08T09:43:48Z</time>
      </trkpt>
      <trkpt lat="44.96554" lon="5.91378">
        <ele>2326.53</ele>
        <time>2020-09-08T09:44:13Z</time>
      </trkpt>
      <trkpt lat="44.96554" lon="5.91379">
        <ele>2326.53</ele>
        <time>2020-09-08T09:44:39Z</time>
      </trkpt>
      <trkpt lat="44.96554" lon="5.91378">
        <ele>2326.53</ele>
        <time>2020-09-08T09:45:12Z</time>
      </trkpt>
      <trkpt lat="44.96555" lon="5.91377">
        <ele>2326.05</ele>
        <time>2020-09-08T09:45:32Z</time>
      </trkpt>
      <trkpt lat="44.96554" lon="5.91378">
        <ele>2326.05</ele>
        <time>2020-09-08T09:45:53Z</time>
      </trkpt>
      <trkpt lat="44.96554" lon="5.91375">
        <ele>2326.05</ele>
        <time>2020-09-08T09:46:21Z</time>
      </trkpt>
      <trkpt lat="44.96556" lon="5.91377">
        <ele>2325.57</ele>
        <time>2020-09-08T09:46:43Z</time>
      </trkpt>
      <trkpt lat="44.96557" lon="5.91377">
        <ele>2326.05</ele>
        <time>2020-09-08T09:47:11Z</time>
      </trkpt>
      <trkpt lat="44.96559" lon="5.91376">
        <ele>2326.05</ele>
        <time>2020-09-08T09:47:36Z</time>
      </trkpt>
      <trkpt lat="44.96558" lon="5.91372">
        <ele>2325.57</ele>
        <time>2020-09-08T09:47:49Z</time>
      </trkpt>
      <trkpt lat="44.96558" lon="5.91366">
        <ele>2325.09</ele>
        <time>2020-09-08T09:48:07Z</time>
      </trkpt>
      <trkpt lat="44.9656" lon="5.91363">
        <ele>2323.64</ele>
        <time>2020-09-08T09:48:19Z</time>
      </trkpt>
      <trkpt lat="44.9656" lon="5.91358">
        <ele>2322.2</ele>
        <time>2020-09-08T09:48:30Z</time>
      </trkpt>
      <trkpt lat="44.96561" lon="5.91348">
        <ele>2320.28</ele>
        <time>2020-09-08T09:48:43Z</time>
      </trkpt>
      <trkpt lat="44.96565" lon="5.91342">
        <ele>2318.36</ele>
        <time>2020-09-08T09:48:58Z</time>
      </trkpt>
      <trkpt lat="44.96565" lon="5.91339">
        <ele>2316.43</ele>
        <time>2020-09-08T09:49:11Z</time>
      </trkpt>
      <trkpt lat="44.96568" lon="5.91332">
        <ele>2314.03</ele>
        <time>2020-09-08T09:49:26Z</time>
      </trkpt>
      <trkpt lat="44.96567" lon="5.91326">
        <ele>2311.63</ele>
        <time>2020-09-08T09:49:39Z</time>
      </trkpt>
      <trkpt lat="44.96572" lon="5.91321">
        <ele>2308.26</ele>
        <time>2020-09-08T09:49:50Z</time>
      </trkpt>
      <trkpt lat="44.96576" lon="5.91311">
        <ele>2305.38</ele>
        <time>2020-09-08T09:50:03Z</time>
      </trkpt>
      <trkpt lat="44.96582" lon="5.913">
        <ele>2303.94</ele>
        <time>2020-09-08T09:50:18Z</time>
      </trkpt>
      <trkpt lat="44.96587" lon="5.91288">
        <ele>2302.01</ele>
        <time>2020-09-08T09:50:32Z</time>
      </trkpt>
      <trkpt lat="44.96594" lon="5.91281">
        <ele>2299.13</ele>
        <time>2020-09-08T09:50:46Z</time>
      </trkpt>
      <trkpt lat="44.96599" lon="5.91277">
        <ele>2296.25</ele>
        <time>2020-09-08T09:50:59Z</time>
      </trkpt>
      <trkpt lat="44.96604" lon="5.91273">
        <ele>2293.84</ele>
        <time>2020-09-08T09:51:12Z</time>
      </trkpt>
      <trkpt lat="44.96608" lon="5.9127">
        <ele>2290.96</ele>
        <time>2020-09-08T09:51:27Z</time>
      </trkpt>
      <trkpt lat="44.96614" lon="5.91267">
        <ele>2288.56</ele>
        <time>2020-09-08T09:51:42Z</time>
      </trkpt>
      <trkpt lat="44.96615" lon="5.91263">
        <ele>2286.63</ele>
        <time>2020-09-08T09:51:59Z</time>
      </trkpt>
      <trkpt lat="44.96612" lon="5.91258">
        <ele>2283.27</ele>
        <time>2020-09-08T09:52:13Z</time>
      </trkpt>
      <trkpt lat="44.96607" lon="5.91253">
        <ele>2281.35</ele>
        <time>2020-09-08T09:52:30Z</time>
      </trkpt>
      <trkpt lat="44.96602" lon="5.91248">
        <ele>2278.46</ele>
        <time>2020-09-08T09:52:47Z</time>
      </trkpt>
      <trkpt lat="44.96599" lon="5.91245">
        <ele>2276.54</ele>
        <time>2020-09-08T09:52:59Z</time>
      </trkpt>
      <trkpt lat="44.96594" lon="5.91242">
        <ele>2275.1</ele>
        <time>2020-09-08T09:53:14Z</time>
      </trkpt>
      <trkpt lat="44.96592" lon="5.9124">
        <ele>2273.66</ele>
        <time>2020-09-08T09:53:27Z</time>
      </trkpt>
      <trkpt lat="44.96587" lon="5.91233">
        <ele>2270.29</ele>
        <time>2020-09-08T09:53:43Z</time>
      </trkpt>
      <trkpt lat="44.96587" lon="5.91228">
        <ele>2267.89</ele>
        <time>2020-09-08T09:53:57Z</time>
      </trkpt>
      <trkpt lat="44.96584" lon="5.91224">
        <ele>2266.45</ele>
        <time>2020-09-08T09:54:14Z</time>
      </trkpt>
      <trkpt lat="44.9658" lon="5.91219">
        <ele>2263.08</ele>
        <time>2020-09-08T09:54:27Z</time>
      </trkpt>
      <trkpt lat="44.96585" lon="5.9121">
        <ele>2260.2</ele>
        <time>2020-09-08T09:54:40Z</time>
      </trkpt>
      <trkpt lat="44.96588" lon="5.91206">
        <ele>2258.75</ele>
        <time>2020-09-08T09:54:47Z</time>
      </trkpt>
      <trkpt lat="44.96591" lon="5.91201">
        <ele>2256.83</ele>
        <time>2020-09-08T09:55:02Z</time>
      </trkpt>
      <trkpt lat="44.9659" lon="5.91196">
        <ele>2254.91</ele>
        <time>2020-09-08T09:55:15Z</time>
      </trkpt>
      <trkpt lat="44.96587" lon="5.91192">
        <ele>2252.03</ele>
        <time>2020-09-08T09:55:27Z</time>
      </trkpt>
      <trkpt lat="44.96582" lon="5.91186">
        <ele>2249.14</ele>
        <time>2020-09-08T09:55:40Z</time>
      </trkpt>
      <trkpt lat="44.9658" lon="5.91178">
        <ele>2245.78</ele>
        <time>2020-09-08T09:55:52Z</time>
      </trkpt>
      <trkpt lat="44.9658" lon="5.91177">
        <ele>2244.82</ele>
        <time>2020-09-08T09:56:07Z</time>
      </trkpt>
      <trkpt lat="44.96577" lon="5.91173">
        <ele>2243.37</ele>
        <time>2020-09-08T09:56:26Z</time>
      </trkpt>
      <trkpt lat="44.96576" lon="5.91174">
        <ele>2243.37</ele>
        <time>2020-09-08T09:56:57Z</time>
      </trkpt>
      <trkpt lat="44.96576" lon="5.91168">
        <ele>2242.89</ele>
        <time>2020-09-08T09:57:24Z</time>
      </trkpt>
      <trkpt lat="44.96577" lon="5.91167">
        <ele>2242.41</ele>
        <time>2020-09-08T09:57:50Z</time>
      </trkpt>
      <trkpt lat="44.96575" lon="5.91163">
        <ele>2240.49</ele>
        <time>2020-09-08T09:58:05Z</time>
      </trkpt>
      <trkpt lat="44.96572" lon="5.91156">
        <ele>2237.61</ele>
        <time>2020-09-08T09:58:18Z</time>
      </trkpt>
      <trkpt lat="44.96574" lon="5.91153">
        <ele>2236.64</ele>
        <time>2020-09-08T09:58:38Z</time>
      </trkpt>
      <trkpt lat="44.96574" lon="5.91152">
        <ele>2236.64</ele>
        <time>2020-09-08T09:58:55Z</time>
      </trkpt>
      <trkpt lat="44.96573" lon="5.91151">
        <ele>2235.68</ele>
        <time>2020-09-08T09:58:57Z</time>
      </trkpt>
      <trkpt lat="44.96567" lon="5.91146">
        <ele>2232.8</ele>
        <time>2020-09-08T09:59:10Z</time>
      </trkpt>
      <trkpt lat="44.96561" lon="5.91138">
        <ele>2229.92</ele>
        <time>2020-09-08T09:59:24Z</time>
      </trkpt>
      <trkpt lat="44.96556" lon="5.91126">
        <ele>2227.03</ele>
        <time>2020-09-08T09:59:39Z</time>
      </trkpt>
      <trkpt lat="44.96554" lon="5.91116">
        <ele>2224.15</ele>
        <time>2020-09-08T09:59:55Z</time>
      </trkpt>
      <trkpt lat="44.9655" lon="5.91106">
        <ele>2222.71</ele>
        <time>2020-09-08T10:00:11Z</time>
      </trkpt>
      <trkpt lat="44.96548" lon="5.911">
        <ele>2221.26</ele>
        <time>2020-09-08T10:00:25Z</time>
      </trkpt>
      <trkpt lat="44.96546" lon="5.91094">
        <ele>2220.3</ele>
        <time>2020-09-08T10:00:39Z</time>
      </trkpt>
      <trkpt lat="44.96547" lon="5.91087">
        <ele>2218.38</ele>
        <time>2020-09-08T10:00:52Z</time>
      </trkpt>
      <trkpt lat="44.96547" lon="5.91078">
        <ele>2214.53</ele>
        <time>2020-09-08T10:01:07Z</time>
      </trkpt>
      <trkpt lat="44.96546" lon="5.91069">
        <ele>2212.61</ele>
        <time>2020-09-08T10:01:23Z</time>
      </trkpt>
      <trkpt lat="44.96546" lon="5.91065">
        <ele>2210.69</ele>
        <time>2020-09-08T10:01:36Z</time>
      </trkpt>
      <trkpt lat="44.96545" lon="5.91058">
        <ele>2208.29</ele>
        <time>2020-09-08T10:01:52Z</time>
      </trkpt>
      <trkpt lat="44.96546" lon="5.91052">
        <ele>2205.88</ele>
        <time>2020-09-08T10:02:09Z</time>
      </trkpt>
      <trkpt lat="44.96548" lon="5.91047">
        <ele>2203.48</ele>
        <time>2020-09-08T10:02:23Z</time>
      </trkpt>
      <trkpt lat="44.96547" lon="5.91044">
        <ele>2202.04</ele>
        <time>2020-09-08T10:02:36Z</time>
      </trkpt>
      <trkpt lat="44.96547" lon="5.9104">
        <ele>2200.11</ele>
        <time>2020-09-08T10:02:54Z</time>
      </trkpt>
      <trkpt lat="44.96548" lon="5.91038">
        <ele>2199.15</ele>
        <time>2020-09-08T10:03:08Z</time>
      </trkpt>
      <trkpt lat="44.96548" lon="5.91033">
        <ele>2196.75</ele>
        <time>2020-09-08T10:03:33Z</time>
      </trkpt>
      <trkpt lat="44.96549" lon="5.91029">
        <ele>2195.31</ele>
        <time>2020-09-08T10:03:47Z</time>
      </trkpt>
      <trkpt lat="44.96548" lon="5.91024">
        <ele>2191.94</ele>
        <time>2020-09-08T10:04:07Z</time>
      </trkpt>
      <trkpt lat="44.96548" lon="5.91017">
        <ele>2190.02</ele>
        <time>2020-09-08T10:04:16Z</time>
      </trkpt>
      <trkpt lat="44.96547" lon="5.91016">
        <ele>2191.46</ele>
        <time>2020-09-08T10:04:22Z</time>
      </trkpt>
      <trkpt lat="44.96546" lon="5.91014">
        <ele>2190.5</ele>
        <time>2020-09-08T10:04:28Z</time>
      </trkpt>
      <trkpt lat="44.96539" lon="5.9101">
        <ele>2189.06</ele>
        <time>2020-09-08T10:04:47Z</time>
      </trkpt>
      <trkpt lat="44.96538" lon="5.9101">
        <ele>2189.06</ele>
        <time>2020-09-08T10:05:20Z</time>
      </trkpt>
      <trkpt lat="44.96537" lon="5.91013">
        <ele>2189.06</ele>
        <time>2020-09-08T10:05:43Z</time>
      </trkpt>
      <trkpt lat="44.96536" lon="5.91014">
        <ele>2190.5</ele>
        <time>2020-09-08T10:06:04Z</time>
      </trkpt>
      <trkpt lat="44.96537" lon="5.91015">
        <ele>2189.54</ele>
        <time>2020-09-08T10:06:27Z</time>
      </trkpt>
      <trkpt lat="44.96536" lon="5.91015">
        <ele>2189.54</ele>
        <time>2020-09-08T10:06:46Z</time>
      </trkpt>
      <trkpt lat="44.96538" lon="5.91016">
        <ele>2189.54</ele>
        <time>2020-09-08T10:07:14Z</time>
      </trkpt>
      <trkpt lat="44.96543" lon="5.91016">
        <ele>2189.54</ele>
        <time>2020-09-08T10:07:28Z</time>
      </trkpt>
      <trkpt lat="44.96549" lon="5.91015">
        <ele>2191.46</ele>
        <time>2020-09-08T10:07:41Z</time>
      </trkpt>
      <trkpt lat="44.96555" lon="5.91024">
        <ele>2192.9</ele>
        <time>2020-09-08T10:07:54Z</time>
      </trkpt>
      <trkpt lat="44.96558" lon="5.91034">
        <ele>2194.83</ele>
        <time>2020-09-08T10:08:07Z</time>
      </trkpt>
      <trkpt lat="44.96564" lon="5.91045">
        <ele>2197.23</ele>
        <time>2020-09-08T10:08:22Z</time>
      </trkpt>
      <trkpt lat="44.96566" lon="5.91056">
        <ele>2199.15</ele>
        <time>2020-09-08T10:08:38Z</time>
      </trkpt>
      <trkpt lat="44.96569" lon="5.91063">
        <ele>2201.08</ele>
        <time>2020-09-08T10:08:53Z</time>
      </trkpt>
      <trkpt lat="44.96569" lon="5.91071">
        <ele>2203.48</ele>
        <time>2020-09-08T10:09:09Z</time>
      </trkpt>
      <trkpt lat="44.96571" lon="5.91081">
        <ele>2205.88</ele>
        <time>2020-09-08T10:09:28Z</time>
      </trkpt>
      <trkpt lat="44.96571" lon="5.91079">
        <ele>2205.4</ele>
        <time>2020-09-08T10:09:52Z</time>
      </trkpt>
      <trkpt lat="44.96572" lon="5.91082">
        <ele>2205.4</ele>
        <time>2020-09-08T10:10:16Z</time>
      </trkpt>
      <trkpt lat="44.9657" lon="5.91084">
        <ele>2207.32</ele>
        <time>2020-09-08T10:10:29Z</time>
      </trkpt>
      <trkpt lat="44.96567" lon="5.91088">
        <ele>2209.73</ele>
        <time>2020-09-08T10:10:43Z</time>
      </trkpt>
      <trkpt lat="44.96567" lon="5.91091">
        <ele>2211.17</ele>
        <time>2020-09-08T10:10:57Z</time>
      </trkpt>
      <trkpt lat="44.96566" lon="5.91094">
        <ele>2212.13</ele>
        <time>2020-09-08T10:11:12Z</time>
      </trkpt>
      <trkpt lat="44.96564" lon="5.91098">
        <ele>2214.05</ele>
        <time>2020-09-08T10:11:26Z</time>
      </trkpt>
      <trkpt lat="44.96565" lon="5.91099">
        <ele>2215.01</ele>
        <time>2020-09-08T10:11:43Z</time>
      </trkpt>
      <trkpt lat="44.96562" lon="5.91103">
        <ele>2216.94</ele>
        <time>2020-09-08T10:11:58Z</time>
      </trkpt>
      <trkpt lat="44.96559" lon="5.91105">
        <ele>2219.34</ele>
        <time>2020-09-08T10:12:16Z</time>
      </trkpt>
      <trkpt lat="44.96559" lon="5.91113">
        <ele>2221.74</ele>
        <time>2020-09-08T10:12:31Z</time>
      </trkpt>
      <trkpt lat="44.96558" lon="5.91116">
        <ele>2223.19</ele>
        <time>2020-09-08T10:12:44Z</time>
      </trkpt>
      <trkpt lat="44.96559" lon="5.91122">
        <ele>2226.07</ele>
        <time>2020-09-08T10:12:58Z</time>
      </trkpt>
      <trkpt lat="44.96561" lon="5.91132">
        <ele>2227.99</ele>
        <time>2020-09-08T10:13:15Z</time>
      </trkpt>
      <trkpt lat="44.96566" lon="5.91142">
        <ele>2230.88</ele>
        <time>2020-09-08T10:13:33Z</time>
      </trkpt>
      <trkpt lat="44.96565" lon="5.91146">
        <ele>2232.32</ele>
        <time>2020-09-08T10:13:50Z</time>
      </trkpt>
      <trkpt lat="44.96563" lon="5.91151">
        <ele>2234.24</ele>
        <time>2020-09-08T10:14:06Z</time>
      </trkpt>
      <trkpt lat="44.96561" lon="5.91159">
        <ele>2237.13</ele>
        <time>2020-09-08T10:14:22Z</time>
      </trkpt>
      <trkpt lat="44.9656" lon="5.91163">
        <ele>2237.61</ele>
        <time>2020-09-08T10:14:41Z</time>
      </trkpt>
      <trkpt lat="44.96561" lon="5.91172">
        <ele>2239.53</ele>
        <time>2020-09-08T10:14:56Z</time>
      </trkpt>
      <trkpt lat="44.96559" lon="5.91172">
        <ele>2239.53</ele>
        <time>2020-09-08T10:15:21Z</time>
      </trkpt>
      <trkpt lat="44.96562" lon="5.91173">
        <ele>2240.01</ele>
        <time>2020-09-08T10:15:43Z</time>
      </trkpt>
      <trkpt lat="44.96561" lon="5.91173">
        <ele>2240.01</ele>
        <time>2020-09-08T10:16:11Z</time>
      </trkpt>
      <trkpt lat="44.96559" lon="5.91175">
        <ele>2240.01</ele>
        <time>2020-09-08T10:16:41Z</time>
      </trkpt>
      <trkpt lat="44.96558" lon="5.91174">
        <ele>2240.01</ele>
        <time>2020-09-08T10:16:59Z</time>
      </trkpt>
      <trkpt lat="44.96561" lon="5.91173">
        <ele>2240.01</ele>
        <time>2020-09-08T10:17:14Z</time>
      </trkpt>
      <trkpt lat="44.96559" lon="5.91166">
        <ele>2238.09</ele>
        <time>2020-09-08T10:17:21Z</time>
      </trkpt>
      <trkpt lat="44.96557" lon="5.91154">
        <ele>2236.16</ele>
        <time>2020-09-08T10:17:35Z</time>
      </trkpt>
      <trkpt lat="44.96557" lon="5.9115">
        <ele>2235.68</ele>
        <time>2020-09-08T10:17:53Z</time>
      </trkpt>
      <trkpt lat="44.96557" lon="5.91149">
        <ele>2234.72</ele>
        <time>2020-09-08T10:18:11Z</time>
      </trkpt>
      <trkpt lat="44.96558" lon="5.91149">
        <ele>2234.72</ele>
        <time>2020-09-08T10:18:36Z</time>
      </trkpt>
      <trkpt lat="44.96557" lon="5.9115">
        <ele>2234.72</ele>
        <time>2020-09-08T10:19:16Z</time>
      </trkpt>
      <trkpt lat="44.96558" lon="5.91149">
        <ele>2234.72</ele>
        <time>2020-09-08T10:19:53Z</time>
      </trkpt>
      <trkpt lat="44.96557" lon="5.91149">
        <ele>2234.72</ele>
        <time>2020-09-08T10:20:32Z</time>
      </trkpt>
      <trkpt lat="44.96558" lon="5.91149">
        <ele>2234.72</ele>
        <time>2020-09-08T10:21:09Z</time>
      </trkpt>
      <trkpt lat="44.96556" lon="5.91149">
        <ele>2234.72</ele>
        <time>2020-09-08T10:21:49Z</time>
      </trkpt>
      <trkpt lat="44.96556" lon="5.91149">
        <ele>2234.72</ele>
        <time>2020-09-08T10:22:25Z</time>
      </trkpt>
      <trkpt lat="44.96558" lon="5.91151">
        <ele>2234.72</ele>
        <time>2020-09-08T10:22:59Z</time>
      </trkpt>
      <trkpt lat="44.96556" lon="5.91149">
        <ele>2234.72</ele>
        <time>2020-09-08T10:23:44Z</time>
      </trkpt>
      <trkpt lat="44.96556" lon="5.91148">
        <ele>2234.72</ele>
        <time>2020-09-08T10:24:22Z</time>
      </trkpt>
      <trkpt lat="44.96557" lon="5.9115">
        <ele>2234.72</ele>
        <time>2020-09-08T10:25:04Z</time>
      </trkpt>
      <trkpt lat="44.96558" lon="5.91149">
        <ele>2234.72</ele>
        <time>2020-09-08T10:25:47Z</time>
      </trkpt>
      <trkpt lat="44.96557" lon="5.91149">
        <ele>2234.72</ele>
        <time>2020-09-08T10:26:20Z</time>
      </trkpt>
      <trkpt lat="44.96557" lon="5.91149">
        <ele>2234.72</ele>
        <time>2020-09-08T10:26:53Z</time>
      </trkpt>
      <trkpt lat="44.96559" lon="5.9115">
        <ele>2234.72</ele>
        <time>2020-09-08T10:27:33Z</time>
      </trkpt>
      <trkpt lat="44.96557" lon="5.91149">
        <ele>2234.72</ele>
        <time>2020-09-08T10:28:17Z</time>
      </trkpt>
      <trkpt lat="44.96557" lon="5.9115">
        <ele>2234.72</ele>
        <time>2020-09-08T10:28:52Z</time>
      </trkpt>
      <trkpt lat="44.96558" lon="5.91149">
        <ele>2234.72</ele>
        <time>2020-09-08T10:29:32Z</time>
      </trkpt>
      <trkpt lat="44.96557" lon="5.91149">
        <ele>2234.72</ele>
        <time>2020-09-08T10:30:11Z</time>
      </trkpt>
      <trkpt lat="44.96558" lon="5.9115">
        <ele>2234.72</ele>
        <time>2020-09-08T10:30:53Z</time>
      </trkpt>
      <trkpt lat="44.96556" lon="5.91148">
        <ele>2234.72</ele>
        <time>2020-09-08T10:31:36Z</time>
      </trkpt>
      <trkpt lat="44.96558" lon="5.91149">
        <ele>2234.72</ele>
        <time>2020-09-08T10:32:06Z</time>
      </trkpt>
      <trkpt lat="44.96557" lon="5.91149">
        <ele>2234.72</ele>
        <time>2020-09-08T10:32:37Z</time>
      </trkpt>
      <trkpt lat="44.96559" lon="5.9115">
        <ele>2234.72</ele>
        <time>2020-09-08T10:33:15Z</time>
      </trkpt>
      <trkpt lat="44.96557" lon="5.91149">
        <ele>2234.72</ele>
        <time>2020-09-08T10:33:52Z</time>
      </trkpt>
      <trkpt lat="44.96558" lon="5.91149">
        <ele>2234.72</ele>
        <time>2020-09-08T10:34:24Z</time>
      </trkpt>
      <trkpt lat="44.96558" lon="5.91149">
        <ele>2234.72</ele>
        <time>2020-09-08T10:34:54Z</time>
      </trkpt>
      <trkpt lat="44.96558" lon="5.91149">
        <ele>2234.72</ele>
        <time>2020-09-08T10:35:37Z</time>
      </trkpt>
      <trkpt lat="44.96558" lon="5.9115">
        <ele>2235.2</ele>
        <time>2020-09-08T10:36:04Z</time>
      </trkpt>
      <trkpt lat="44.96558" lon="5.9115">
        <ele>2235.2</ele>
        <time>2020-09-08T10:36:42Z</time>
      </trkpt>
      <trkpt lat="44.96557" lon="5.91149">
        <ele>2234.72</ele>
        <time>2020-09-08T10:37:18Z</time>
      </trkpt>
      <trkpt lat="44.96558" lon="5.91149">
        <ele>2234.72</ele>
        <time>2020-09-08T10:37:57Z</time>
      </trkpt>
      <trkpt lat="44.96558" lon="5.91149">
        <ele>2234.72</ele>
        <time>2020-09-08T10:38:23Z</time>
      </trkpt>
      <trkpt lat="44.96557" lon="5.91148">
        <ele>2234.72</ele>
        <time>2020-09-08T10:38:52Z</time>
      </trkpt>
      <trkpt lat="44.96557" lon="5.9115">
        <ele>2234.72</ele>
        <time>2020-09-08T10:39:22Z</time>
      </trkpt>
      <trkpt lat="44.96557" lon="5.9115">
        <ele>2234.72</ele>
        <time>2020-09-08T10:40:00Z</time>
      </trkpt>
      <trkpt lat="44.96556" lon="5.91149">
        <ele>2234.72</ele>
        <time>2020-09-08T10:40:42Z</time>
      </trkpt>
      <trkpt lat="44.96556" lon="5.91149">
        <ele>2234.72</ele>
        <time>2020-09-08T10:41:20Z</time>
      </trkpt>
      <trkpt lat="44.96557" lon="5.91149">
        <ele>2234.72</ele>
        <time>2020-09-08T10:41:45Z</time>
      </trkpt>
      <trkpt lat="44.96557" lon="5.9115">
        <ele>2234.72</ele>
        <time>2020-09-08T10:42:12Z</time>
      </trkpt>
      <trkpt lat="44.96555" lon="5.91149">
        <ele>2234.72</ele>
        <time>2020-09-08T10:42:37Z</time>
      </trkpt>
      <trkpt lat="44.96556" lon="5.91148">
        <ele>2234.72</ele>
        <time>2020-09-08T10:43:15Z</time>
      </trkpt>
      <trkpt lat="44.96557" lon="5.91149">
        <ele>2234.72</ele>
        <time>2020-09-08T10:43:49Z</time>
      </trkpt>
      <trkpt lat="44.96557" lon="5.9115">
        <ele>2234.72</ele>
        <time>2020-09-08T10:44:15Z</time>
      </trkpt>
      <trkpt lat="44.96556" lon="5.91148">
        <ele>2234.72</ele>
        <time>2020-09-08T10:44:55Z</time>
      </trkpt>
      <trkpt lat="44.96556" lon="5.91149">
        <ele>2234.24</ele>
        <time>2020-09-08T10:45:27Z</time>
      </trkpt>
      <trkpt lat="44.96557" lon="5.91148">
        <ele>2234.24</ele>
        <time>2020-09-08T10:46:02Z</time>
      </trkpt>
      <trkpt lat="44.96558" lon="5.91148">
        <ele>2234.24</ele>
        <time>2020-09-08T10:46:25Z</time>
      </trkpt>
      <trkpt lat="44.96557" lon="5.91149">
        <ele>2234.24</ele>
        <time>2020-09-08T10:46:54Z</time>
      </trkpt>
      <trkpt lat="44.96556" lon="5.91149">
        <ele>2233.76</ele>
        <time>2020-09-08T10:47:24Z</time>
      </trkpt>
      <trkpt lat="44.96557" lon="5.91149">
        <ele>2233.76</ele>
        <time>2020-09-08T10:47:56Z</time>
      </trkpt>
      <trkpt lat="44.96556" lon="5.91149">
        <ele>2233.76</ele>
        <time>2020-09-08T10:48:35Z</time>
      </trkpt>
      <trkpt lat="44.96557" lon="5.91149">
        <ele>2233.76</ele>
        <time>2020-09-08T10:49:07Z</time>
      </trkpt>
      <trkpt lat="44.96558" lon="5.91148">
        <ele>2233.76</ele>
        <time>2020-09-08T10:49:32Z</time>
      </trkpt>
      <trkpt lat="44.96555" lon="5.91147">
        <ele>2233.76</ele>
        <time>2020-09-08T10:50:01Z</time>
      </trkpt>
      <trkpt lat="44.96557" lon="5.91148">
        <ele>2233.76</ele>
        <time>2020-09-08T10:50:35Z</time>
      </trkpt>
      <trkpt lat="44.96556" lon="5.91149">
        <ele>2233.76</ele>
        <time>2020-09-08T10:51:12Z</time>
      </trkpt>
      <trkpt lat="44.96556" lon="5.91148">
        <ele>2233.76</ele>
        <time>2020-09-08T10:51:47Z</time>
      </trkpt>
      <trkpt lat="44.96556" lon="5.91147">
        <ele>2233.76</ele>
        <time>2020-09-08T10:52:17Z</time>
      </trkpt>
      <trkpt lat="44.96557" lon="5.91149">
        <ele>2233.76</ele>
        <time>2020-09-08T10:52:42Z</time>
      </trkpt>
      <trkpt lat="44.96556" lon="5.91148">
        <ele>2233.76</ele>
        <time>2020-09-08T10:53:16Z</time>
      </trkpt>
      <trkpt lat="44.96554" lon="5.91147">
        <ele>2233.76</ele>
        <time>2020-09-08T10:53:54Z</time>
      </trkpt>
      <trkpt lat="44.96556" lon="5.91149">
        <ele>2233.28</ele>
        <time>2020-09-08T10:54:25Z</time>
      </trkpt>
      <trkpt lat="44.96556" lon="5.91148">
        <ele>2233.28</ele>
        <time>2020-09-08T10:54:58Z</time>
      </trkpt>
      <trkpt lat="44.96555" lon="5.91148">
        <ele>2233.28</ele>
        <time>2020-09-08T10:55:29Z</time>
      </trkpt>
      <trkpt lat="44.96554" lon="5.91147">
        <ele>2233.28</ele>
        <time>2020-09-08T10:56:01Z</time>
      </trkpt>
      <trkpt lat="44.96557" lon="5.91149">
        <ele>2233.28</ele>
        <time>2020-09-08T10:56:37Z</time>
      </trkpt>
      <trkpt lat="44.96556" lon="5.91148">
        <ele>2233.28</ele>
        <time>2020-09-08T10:57:07Z</time>
      </trkpt>
      <trkpt lat="44.96555" lon="5.91148">
        <ele>2233.28</ele>
        <time>2020-09-08T10:57:39Z</time>
      </trkpt>
      <trkpt lat="44.96556" lon="5.91148">
        <ele>2233.28</ele>
        <time>2020-09-08T10:58:14Z</time>
      </trkpt>
      <trkpt lat="44.96555" lon="5.91149">
        <ele>2233.28</ele>
        <time>2020-09-08T10:58:51Z</time>
      </trkpt>
      <trkpt lat="44.96556" lon="5.91147">
        <ele>2232.8</ele>
        <time>2020-09-08T10:59:21Z</time>
      </trkpt>
      <trkpt lat="44.96556" lon="5.91147">
        <ele>2232.8</ele>
        <time>2020-09-08T10:59:51Z</time>
      </trkpt>
      <trkpt lat="44.96556" lon="5.91148">
        <ele>2232.8</ele>
        <time>2020-09-08T11:00:33Z</time>
      </trkpt>
      <trkpt lat="44.96556" lon="5.91148">
        <ele>2232.8</ele>
        <time>2020-09-08T11:01:07Z</time>
      </trkpt>
      <trkpt lat="44.96556" lon="5.91147">
        <ele>2232.8</ele>
        <time>2020-09-08T11:01:45Z</time>
      </trkpt>
      <trkpt lat="44.96556" lon="5.91148">
        <ele>2232.8</ele>
        <time>2020-09-08T11:02:18Z</time>
      </trkpt>
      <trkpt lat="44.96556" lon="5.91148">
        <ele>2232.8</ele>
        <time>2020-09-08T11:02:48Z</time>
      </trkpt>
      <trkpt lat="44.96557" lon="5.91148">
        <ele>2232.8</ele>
        <time>2020-09-08T11:03:20Z</time>
      </trkpt>
      <trkpt lat="44.96558" lon="5.91149">
        <ele>2232.8</ele>
        <time>2020-09-08T11:03:51Z</time>
      </trkpt>
      <trkpt lat="44.96559" lon="5.91149">
        <ele>2232.8</ele>
        <time>2020-09-08T11:04:24Z</time>
      </trkpt>
      <trkpt lat="44.96558" lon="5.91148">
        <ele>2232.8</ele>
        <time>2020-09-08T11:04:58Z</time>
      </trkpt>
      <trkpt lat="44.96559" lon="5.91149">
        <ele>2232.8</ele>
        <time>2020-09-08T11:05:33Z</time>
      </trkpt>
      <trkpt lat="44.96558" lon="5.91149">
        <ele>2232.8</ele>
        <time>2020-09-08T11:06:04Z</time>
      </trkpt>
      <trkpt lat="44.96558" lon="5.91149">
        <ele>2232.8</ele>
        <time>2020-09-08T11:06:39Z</time>
      </trkpt>
      <trkpt lat="44.96558" lon="5.91149">
        <ele>2232.8</ele>
        <time>2020-09-08T11:07:12Z</time>
      </trkpt>
      <trkpt lat="44.96558" lon="5.91149">
        <ele>2232.8</ele>
        <time>2020-09-08T11:07:48Z</time>
      </trkpt>
      <trkpt lat="44.96559" lon="5.9115">
        <ele>2232.8</ele>
        <time>2020-09-08T11:08:27Z</time>
      </trkpt>
      <trkpt lat="44.96558" lon="5.91149">
        <ele>2233.76</ele>
        <time>2020-09-08T11:08:58Z</time>
      </trkpt>
      <trkpt lat="44.96558" lon="5.9115">
        <ele>2233.76</ele>
        <time>2020-09-08T11:09:39Z</time>
      </trkpt>
      <trkpt lat="44.96559" lon="5.91149">
        <ele>2233.76</ele>
        <time>2020-09-08T11:10:20Z</time>
      </trkpt>
      <trkpt lat="44.96558" lon="5.91148">
        <ele>2233.76</ele>
        <time>2020-09-08T11:10:59Z</time>
      </trkpt>
      <trkpt lat="44.9656" lon="5.91148">
        <ele>2234.24</ele>
        <time>2020-09-08T11:11:38Z</time>
      </trkpt>
      <trkpt lat="44.96559" lon="5.91148">
        <ele>2234.24</ele>
        <time>2020-09-08T11:12:24Z</time>
      </trkpt>
      <trkpt lat="44.96559" lon="5.91149">
        <ele>2234.24</ele>
        <time>2020-09-08T11:13:00Z</time>
      </trkpt>
      <trkpt lat="44.96559" lon="5.91149">
        <ele>2234.24</ele>
        <time>2020-09-08T11:13:36Z</time>
      </trkpt>
      <trkpt lat="44.9656" lon="5.91148">
        <ele>2234.24</ele>
        <time>2020-09-08T11:14:12Z</time>
      </trkpt>
      <trkpt lat="44.96561" lon="5.91148">
        <ele>2234.24</ele>
        <time>2020-09-08T11:14:49Z</time>
      </trkpt>
      <trkpt lat="44.96561" lon="5.91149">
        <ele>2234.72</ele>
        <time>2020-09-08T11:15:28Z</time>
      </trkpt>
      <trkpt lat="44.96562" lon="5.91149">
        <ele>2234.72</ele>
        <time>2020-09-08T11:16:10Z</time>
      </trkpt>
      <trkpt lat="44.96562" lon="5.91148">
        <ele>2234.72</ele>
        <time>2020-09-08T11:16:44Z</time>
      </trkpt>
      <trkpt lat="44.96563" lon="5.91148">
        <ele>2235.2</ele>
        <time>2020-09-08T11:17:26Z</time>
      </trkpt>
      <trkpt lat="44.96563" lon="5.91147">
        <ele>2235.2</ele>
        <time>2020-09-08T11:17:59Z</time>
      </trkpt>
      <trkpt lat="44.96562" lon="5.91146">
        <ele>2235.2</ele>
        <time>2020-09-08T11:18:26Z</time>
      </trkpt>
      <trkpt lat="44.96561" lon="5.91147">
        <ele>2235.68</ele>
        <time>2020-09-08T11:19:03Z</time>
      </trkpt>
      <trkpt lat="44.96558" lon="5.91148">
        <ele>2235.68</ele>
        <time>2020-09-08T11:19:32Z</time>
      </trkpt>
      <trkpt lat="44.96559" lon="5.91148">
        <ele>2235.68</ele>
        <time>2020-09-08T11:20:05Z</time>
      </trkpt>
      <trkpt lat="44.96559" lon="5.91149">
        <ele>2235.68</ele>
        <time>2020-09-08T11:20:42Z</time>
      </trkpt>
      <trkpt lat="44.96558" lon="5.9115">
        <ele>2235.68</ele>
        <time>2020-09-08T11:21:21Z</time>
      </trkpt>
      <trkpt lat="44.96556" lon="5.91148">
        <ele>2236.16</ele>
        <time>2020-09-08T11:21:47Z</time>
      </trkpt>
      <trkpt lat="44.96556" lon="5.91148">
        <ele>2236.16</ele>
        <time>2020-09-08T11:22:05Z</time>
      </trkpt>
      <trkpt lat="44.96558" lon="5.91148">
        <ele>2236.16</ele>
        <time>2020-09-08T11:22:38Z</time>
      </trkpt>
      <trkpt lat="44.96558" lon="5.91148">
        <ele>2236.16</ele>
        <time>2020-09-08T11:22:57Z</time>
      </trkpt>
      <trkpt lat="44.96557" lon="5.91148">
        <ele>2236.16</ele>
        <time>2020-09-08T11:23:19Z</time>
      </trkpt>
      <trkpt lat="44.96557" lon="5.91148">
        <ele>2236.64</ele>
        <time>2020-09-08T11:23:39Z</time>
      </trkpt>
      <trkpt lat="44.96558" lon="5.91149">
        <ele>2236.64</ele>
        <time>2020-09-08T11:23:57Z</time>
      </trkpt>
      <trkpt lat="44.96565" lon="5.91151">
        <ele>2234.72</ele>
        <time>2020-09-08T11:24:12Z</time>
      </trkpt>
      <trkpt lat="44.96568" lon="5.91153">
        <ele>2236.16</ele>
        <time>2020-09-08T11:24:20Z</time>
      </trkpt>
      <trkpt lat="44.96577" lon="5.91152">
        <ele>2238.57</ele>
        <time>2020-09-08T11:24:36Z</time>
      </trkpt>
      <trkpt lat="44.96585" lon="5.91157">
        <ele>2236.16</ele>
        <time>2020-09-08T11:24:52Z</time>
      </trkpt>
      <trkpt lat="44.96597" lon="5.9116">
        <ele>2235.2</ele>
        <time>2020-09-08T11:25:08Z</time>
      </trkpt>
      <trkpt lat="44.96605" lon="5.91159">
        <ele>2233.76</ele>
        <time>2020-09-08T11:25:22Z</time>
      </trkpt>
      <trkpt lat="44.96614" lon="5.9116">
        <ele>2232.32</ele>
        <time>2020-09-08T11:25:35Z</time>
      </trkpt>
      <trkpt lat="44.96622" lon="5.91163">
        <ele>2230.88</ele>
        <time>2020-09-08T11:25:49Z</time>
      </trkpt>
      <trkpt lat="44.96633" lon="5.91163">
        <ele>2229.92</ele>
        <time>2020-09-08T11:26:05Z</time>
      </trkpt>
      <trkpt lat="44.96638" lon="5.91161">
        <ele>2227.99</ele>
        <time>2020-09-08T11:26:18Z</time>
      </trkpt>
      <trkpt lat="44.96648" lon="5.91159">
        <ele>2227.99</ele>
        <time>2020-09-08T11:26:33Z</time>
      </trkpt>
      <trkpt lat="44.96657" lon="5.91155">
        <ele>2226.55</ele>
        <time>2020-09-08T11:26:47Z</time>
      </trkpt>
      <trkpt lat="44.96662" lon="5.91152">
        <ele>2225.59</ele>
        <time>2020-09-08T11:27:08Z</time>
      </trkpt>
      <trkpt lat="44.96669" lon="5.91144">
        <ele>2223.19</ele>
        <time>2020-09-08T11:27:24Z</time>
      </trkpt>
      <trkpt lat="44.96677" lon="5.9114">
        <ele>2221.74</ele>
        <time>2020-09-08T11:27:38Z</time>
      </trkpt>
      <trkpt lat="44.96683" lon="5.91136">
        <ele>2220.3</ele>
        <time>2020-09-08T11:27:52Z</time>
      </trkpt>
      <trkpt lat="44.96689" lon="5.91135">
        <ele>2219.82</ele>
        <time>2020-09-08T11:28:07Z</time>
      </trkpt>
      <trkpt lat="44.96695" lon="5.91134">
        <ele>2218.86</ele>
        <time>2020-09-08T11:28:14Z</time>
      </trkpt>
      <trkpt lat="44.96707" lon="5.91132">
        <ele>2216.46</ele>
        <time>2020-09-08T11:28:30Z</time>
      </trkpt>
      <trkpt lat="44.96711" lon="5.91132">
        <ele>2216.46</ele>
        <time>2020-09-08T11:28:35Z</time>
      </trkpt>
      <trkpt lat="44.96721" lon="5.91131">
        <ele>2214.53</ele>
        <time>2020-09-08T11:28:47Z</time>
      </trkpt>
      <trkpt lat="44.96734" lon="5.91129">
        <ele>2211.65</ele>
        <time>2020-09-08T11:29:05Z</time>
      </trkpt>
      <trkpt lat="44.96739" lon="5.91128">
        <ele>2211.17</ele>
        <time>2020-09-08T11:29:11Z</time>
      </trkpt>
      <trkpt lat="44.96749" lon="5.91127">
        <ele>2208.29</ele>
        <time>2020-09-08T11:29:26Z</time>
      </trkpt>
      <trkpt lat="44.9676" lon="5.91126">
        <ele>2207.32</ele>
        <time>2020-09-08T11:29:41Z</time>
      </trkpt>
      <trkpt lat="44.96773" lon="5.91118">
        <ele>2205.4</ele>
        <time>2020-09-08T11:29:59Z</time>
      </trkpt>
      <trkpt lat="44.96776" lon="5.91114">
        <ele>2204.44</ele>
        <time>2020-09-08T11:30:12Z</time>
      </trkpt>
      <trkpt lat="44.96775" lon="5.91116">
        <ele>2203.96</ele>
        <time>2020-09-08T11:30:36Z</time>
      </trkpt>
      <trkpt lat="44.96777" lon="5.91112">
        <ele>2203.96</ele>
        <time>2020-09-08T11:31:01Z</time>
      </trkpt>
      <trkpt lat="44.96779" lon="5.91112">
        <ele>2203.96</ele>
        <time>2020-09-08T11:31:32Z</time>
      </trkpt>
      <trkpt lat="44.96782" lon="5.91117">
        <ele>2203</ele>
        <time>2020-09-08T11:31:42Z</time>
      </trkpt>
      <trkpt lat="44.96789" lon="5.91125">
        <ele>2202.04</ele>
        <time>2020-09-08T11:31:57Z</time>
      </trkpt>
      <trkpt lat="44.96793" lon="5.91125">
        <ele>2201.08</ele>
        <time>2020-09-08T11:32:10Z</time>
      </trkpt>
      <trkpt lat="44.968" lon="5.91125">
        <ele>2197.71</ele>
        <time>2020-09-08T11:32:23Z</time>
      </trkpt>
      <trkpt lat="44.96807" lon="5.91128">
        <ele>2195.79</ele>
        <time>2020-09-08T11:32:38Z</time>
      </trkpt>
      <trkpt lat="44.96811" lon="5.91124">
        <ele>2192.9</ele>
        <time>2020-09-08T11:32:52Z</time>
      </trkpt>
      <trkpt lat="44.96811" lon="5.91125">
        <ele>2192.9</ele>
        <time>2020-09-08T11:32:53Z</time>
      </trkpt>
      <trkpt lat="44.96817" lon="5.91122">
        <ele>2190.98</ele>
        <time>2020-09-08T11:33:08Z</time>
      </trkpt>
      <trkpt lat="44.96819" lon="5.91123">
        <ele>2190.5</ele>
        <time>2020-09-08T11:33:26Z</time>
      </trkpt>
      <trkpt lat="44.96825" lon="5.91119">
        <ele>2186.66</ele>
        <time>2020-09-08T11:33:38Z</time>
      </trkpt>
      <trkpt lat="44.9683" lon="5.91115">
        <ele>2183.77</ele>
        <time>2020-09-08T11:33:52Z</time>
      </trkpt>
      <trkpt lat="44.96835" lon="5.9111">
        <ele>2180.41</ele>
        <time>2020-09-08T11:34:03Z</time>
      </trkpt>
      <trkpt lat="44.96839" lon="5.9111">
        <ele>2178.97</ele>
        <time>2020-09-08T11:34:17Z</time>
      </trkpt>
      <trkpt lat="44.96843" lon="5.91107">
        <ele>2176.08</ele>
        <time>2020-09-08T11:34:27Z</time>
      </trkpt>
      <trkpt lat="44.96848" lon="5.91104">
        <ele>2172.72</ele>
        <time>2020-09-08T11:34:40Z</time>
      </trkpt>
      <trkpt lat="44.96848" lon="5.91104">
        <ele>2172.72</ele>
        <time>2020-09-08T11:34:41Z</time>
      </trkpt>
      <trkpt lat="44.96854" lon="5.911">
        <ele>2169.35</ele>
        <time>2020-09-08T11:34:54Z</time>
      </trkpt>
      <trkpt lat="44.96861" lon="5.91096">
        <ele>2165.99</ele>
        <time>2020-09-08T11:35:08Z</time>
      </trkpt>
      <trkpt lat="44.96866" lon="5.91094">
        <ele>2163.58</ele>
        <time>2020-09-08T11:35:19Z</time>
      </trkpt>
      <trkpt lat="44.9688" lon="5.91095">
        <ele>2160.7</ele>
        <time>2020-09-08T11:35:35Z</time>
      </trkpt>
      <trkpt lat="44.96888" lon="5.91093">
        <ele>2157.82</ele>
        <time>2020-09-08T11:35:48Z</time>
      </trkpt>
      <trkpt lat="44.96897" lon="5.9109">
        <ele>2153.97</ele>
        <time>2020-09-08T11:36:02Z</time>
      </trkpt>
      <trkpt lat="44.96907" lon="5.91089">
        <ele>2151.09</ele>
        <time>2020-09-08T11:36:18Z</time>
      </trkpt>
      <trkpt lat="44.96911" lon="5.91084">
        <ele>2147.72</ele>
        <time>2020-09-08T11:36:30Z</time>
      </trkpt>
      <trkpt lat="44.96911" lon="5.91084">
        <ele>2147.72</ele>
        <time>2020-09-08T11:36:31Z</time>
      </trkpt>
      <trkpt lat="44.96913" lon="5.91084">
        <ele>2146.28</ele>
        <time>2020-09-08T11:36:45Z</time>
      </trkpt>
      <trkpt lat="44.96915" lon="5.91081">
        <ele>2144.36</ele>
        <time>2020-09-08T11:37:04Z</time>
      </trkpt>
      <trkpt lat="44.96918" lon="5.91076">
        <ele>2142.44</ele>
        <time>2020-09-08T11:37:17Z</time>
      </trkpt>
      <trkpt lat="44.96924" lon="5.91072">
        <ele>2139.07</ele>
        <time>2020-09-08T11:37:31Z</time>
      </trkpt>
      <trkpt lat="44.96927" lon="5.91066">
        <ele>2135.71</ele>
        <time>2020-09-08T11:37:45Z</time>
      </trkpt>
      <trkpt lat="44.96927" lon="5.91059">
        <ele>2132.82</ele>
        <time>2020-09-08T11:37:59Z</time>
      </trkpt>
      <trkpt lat="44.96928" lon="5.91058">
        <ele>2131.38</ele>
        <time>2020-09-08T11:38:01Z</time>
      </trkpt>
      <trkpt lat="44.96931" lon="5.91053">
        <ele>2128.98</ele>
        <time>2020-09-08T11:38:17Z</time>
      </trkpt>
      <trkpt lat="44.96934" lon="5.91049">
        <ele>2126.57</ele>
        <time>2020-09-08T11:38:29Z</time>
      </trkpt>
      <trkpt lat="44.96936" lon="5.91045">
        <ele>2124.17</ele>
        <time>2020-09-08T11:38:50Z</time>
      </trkpt>
      <trkpt lat="44.96937" lon="5.91042">
        <ele>2122.73</ele>
        <time>2020-09-08T11:39:09Z</time>
      </trkpt>
      <trkpt lat="44.9694" lon="5.91037">
        <ele>2119.36</ele>
        <time>2020-09-08T11:39:21Z</time>
      </trkpt>
      <trkpt lat="44.96942" lon="5.91034">
        <ele>2117.92</ele>
        <time>2020-09-08T11:39:37Z</time>
      </trkpt>
      <trkpt lat="44.96944" lon="5.9103">
        <ele>2115.52</ele>
        <time>2020-09-08T11:39:59Z</time>
      </trkpt>
      <trkpt lat="44.96944" lon="5.91026">
        <ele>2113.12</ele>
        <time>2020-09-08T11:40:15Z</time>
      </trkpt>
      <trkpt lat="44.96944" lon="5.91027">
        <ele>2114.08</ele>
        <time>2020-09-08T11:40:25Z</time>
      </trkpt>
      <trkpt lat="44.96945" lon="5.91027">
        <ele>2112.63</ele>
        <time>2020-09-08T11:40:39Z</time>
      </trkpt>
      <trkpt lat="44.96945" lon="5.91028">
        <ele>2112.63</ele>
        <time>2020-09-08T11:41:05Z</time>
      </trkpt>
      <trkpt lat="44.96944" lon="5.91028">
        <ele>2112.63</ele>
        <time>2020-09-08T11:41:20Z</time>
      </trkpt>
      <trkpt lat="44.96944" lon="5.91021">
        <ele>2109.75</ele>
        <time>2020-09-08T11:41:35Z</time>
      </trkpt>
      <trkpt lat="44.96949" lon="5.91017">
        <ele>2108.31</ele>
        <time>2020-09-08T11:41:48Z</time>
      </trkpt>
      <trkpt lat="44.96955" lon="5.91013">
        <ele>2106.39</ele>
        <time>2020-09-08T11:42:00Z</time>
      </trkpt>
      <trkpt lat="44.96958" lon="5.91011">
        <ele>2105.42</ele>
        <time>2020-09-08T11:42:12Z</time>
      </trkpt>
      <trkpt lat="44.9696" lon="5.91007">
        <ele>2103.5</ele>
        <time>2020-09-08T11:42:25Z</time>
      </trkpt>
      <trkpt lat="44.96969" lon="5.91002">
        <ele>2102.06</ele>
        <time>2020-09-08T11:42:41Z</time>
      </trkpt>
      <trkpt lat="44.96976" lon="5.90994">
        <ele>2098.7</ele>
        <time>2020-09-08T11:42:54Z</time>
      </trkpt>
      <trkpt lat="44.9698" lon="5.90988">
        <ele>2096.29</ele>
        <time>2020-09-08T11:43:04Z</time>
      </trkpt>
      <trkpt lat="44.96987" lon="5.90981">
        <ele>2093.41</ele>
        <time>2020-09-08T11:43:18Z</time>
      </trkpt>
      <trkpt lat="44.96988" lon="5.90976">
        <ele>2091.49</ele>
        <time>2020-09-08T11:43:34Z</time>
      </trkpt>
      <trkpt lat="44.96989" lon="5.90971">
        <ele>2088.6</ele>
        <time>2020-09-08T11:43:48Z</time>
      </trkpt>
      <trkpt lat="44.96996" lon="5.90962">
        <ele>2085.24</ele>
        <time>2020-09-08T11:44:00Z</time>
      </trkpt>
      <trkpt lat="44.96996" lon="5.90963">
        <ele>2085.24</ele>
        <time>2020-09-08T11:44:18Z</time>
      </trkpt>
      <trkpt lat="44.96998" lon="5.9096">
        <ele>2084.28</ele>
        <time>2020-09-08T11:44:31Z</time>
      </trkpt>
      <trkpt lat="44.96998" lon="5.90956">
        <ele>2082.35</ele>
        <time>2020-09-08T11:44:37Z</time>
      </trkpt>
      <trkpt lat="44.97003" lon="5.90952">
        <ele>2079.95</ele>
        <time>2020-09-08T11:44:54Z</time>
      </trkpt>
      <trkpt lat="44.97002" lon="5.90949">
        <ele>2079.47</ele>
        <time>2020-09-08T11:45:14Z</time>
      </trkpt>
      <trkpt lat="44.96998" lon="5.90943">
        <ele>2076.1</ele>
        <time>2020-09-08T11:45:28Z</time>
      </trkpt>
      <trkpt lat="44.97001" lon="5.90937">
        <ele>2073.22</ele>
        <time>2020-09-08T11:45:42Z</time>
      </trkpt>
      <trkpt lat="44.96997" lon="5.90933">
        <ele>2071.78</ele>
        <time>2020-09-08T11:45:58Z</time>
      </trkpt>
      <trkpt lat="44.96998" lon="5.90935">
        <ele>2071.78</ele>
        <time>2020-09-08T11:46:28Z</time>
      </trkpt>
      <trkpt lat="44.97" lon="5.90931">
        <ele>2070.82</ele>
        <time>2020-09-08T11:46:41Z</time>
      </trkpt>
      <trkpt lat="44.97009" lon="5.90924">
        <ele>2067.45</ele>
        <time>2020-09-08T11:46:55Z</time>
      </trkpt>
      <trkpt lat="44.97015" lon="5.9092">
        <ele>2065.05</ele>
        <time>2020-09-08T11:47:10Z</time>
      </trkpt>
      <trkpt lat="44.97018" lon="5.90914">
        <ele>2061.68</ele>
        <time>2020-09-08T11:47:20Z</time>
      </trkpt>
      <trkpt lat="44.97024" lon="5.9091">
        <ele>2057.84</ele>
        <time>2020-09-08T11:47:30Z</time>
      </trkpt>
      <trkpt lat="44.97025" lon="5.90909">
        <ele>2057.84</ele>
        <time>2020-09-08T11:47:31Z</time>
      </trkpt>
      <trkpt lat="44.97026" lon="5.90908">
        <ele>2057.84</ele>
        <time>2020-09-08T11:47:33Z</time>
      </trkpt>
      <trkpt lat="44.97033" lon="5.90903">
        <ele>2055.92</ele>
        <time>2020-09-08T11:47:46Z</time>
      </trkpt>
      <trkpt lat="44.9704" lon="5.909">
        <ele>2053.51</ele>
        <time>2020-09-08T11:47:58Z</time>
      </trkpt>
      <trkpt lat="44.97048" lon="5.90895">
        <ele>2050.63</ele>
        <time>2020-09-08T11:48:13Z</time>
      </trkpt>
      <trkpt lat="44.97054" lon="5.90889">
        <ele>2047.75</ele>
        <time>2020-09-08T11:48:25Z</time>
      </trkpt>
      <trkpt lat="44.97056" lon="5.90886">
        <ele>2046.3</ele>
        <time>2020-09-08T11:48:30Z</time>
      </trkpt>
      <trkpt lat="44.97061" lon="5.9088">
        <ele>2042.94</ele>
        <time>2020-09-08T11:48:40Z</time>
      </trkpt>
      <trkpt lat="44.9707" lon="5.90876">
        <ele>2039.57</ele>
        <time>2020-09-08T11:48:56Z</time>
      </trkpt>
      <trkpt lat="44.97079" lon="5.90873">
        <ele>2036.69</ele>
        <time>2020-09-08T11:49:08Z</time>
      </trkpt>
      <trkpt lat="44.97079" lon="5.90873">
        <ele>2036.69</ele>
        <time>2020-09-08T11:49:09Z</time>
      </trkpt>
      <trkpt lat="44.97087" lon="5.90867">
        <ele>2034.29</ele>
        <time>2020-09-08T11:49:22Z</time>
      </trkpt>
      <trkpt lat="44.97093" lon="5.90862">
        <ele>2031.4</ele>
        <time>2020-09-08T11:49:36Z</time>
      </trkpt>
      <trkpt lat="44.97096" lon="5.90861">
        <ele>2030.44</ele>
        <time>2020-09-08T11:49:55Z</time>
      </trkpt>
      <trkpt lat="44.97096" lon="5.9086">
        <ele>2030.44</ele>
        <time>2020-09-08T11:49:56Z</time>
      </trkpt>
      <trkpt lat="44.97098" lon="5.90857">
        <ele>2028.04</ele>
        <time>2020-09-08T11:49:59Z</time>
      </trkpt>
      <trkpt lat="44.971" lon="5.90855">
        <ele>2028.52</ele>
        <time>2020-09-08T11:50:17Z</time>
      </trkpt>
      <trkpt lat="44.97101" lon="5.90856">
        <ele>2027.56</ele>
        <time>2020-09-08T11:50:45Z</time>
      </trkpt>
      <trkpt lat="44.97101" lon="5.90857">
        <ele>2027.56</ele>
        <time>2020-09-08T11:51:04Z</time>
      </trkpt>
      <trkpt lat="44.97096" lon="5.90857">
        <ele>2026.12</ele>
        <time>2020-09-08T11:51:26Z</time>
      </trkpt>
      <trkpt lat="44.97084" lon="5.90855">
        <ele>2025.15</ele>
        <time>2020-09-08T11:51:43Z</time>
      </trkpt>
      <trkpt lat="44.97076" lon="5.90854">
        <ele>2023.71</ele>
        <time>2020-09-08T11:51:57Z</time>
      </trkpt>
      <trkpt lat="44.97071" lon="5.90849">
        <ele>2023.71</ele>
        <time>2020-09-08T11:52:15Z</time>
      </trkpt>
      <trkpt lat="44.97067" lon="5.90851">
        <ele>2023.23</ele>
        <time>2020-09-08T11:52:37Z</time>
      </trkpt>
      <trkpt lat="44.97054" lon="5.90852">
        <ele>2021.79</ele>
        <time>2020-09-08T11:52:53Z</time>
      </trkpt>
      <trkpt lat="44.9705" lon="5.90851">
        <ele>2021.79</ele>
        <time>2020-09-08T11:52:58Z</time>
      </trkpt>
      <trkpt lat="44.97042" lon="5.9085">
        <ele>2020.83</ele>
        <time>2020-09-08T11:53:14Z</time>
      </trkpt>
      <trkpt lat="44.97036" lon="5.90849">
        <ele>2020.83</ele>
        <time>2020-09-08T11:53:24Z</time>
      </trkpt>
      <trkpt lat="44.97026" lon="5.90844">
        <ele>2018.43</ele>
        <time>2020-09-08T11:53:39Z</time>
      </trkpt>
      <trkpt lat="44.97017" lon="5.90837">
        <ele>2016.02</ele>
        <time>2020-09-08T11:53:55Z</time>
      </trkpt>
      <trkpt lat="44.97016" lon="5.90835">
        <ele>2016.02</ele>
        <time>2020-09-08T11:54:11Z</time>
      </trkpt>
      <trkpt lat="44.97015" lon="5.90831">
        <ele>2015.54</ele>
        <time>2020-09-08T11:54:29Z</time>
      </trkpt>
      <trkpt lat="44.97015" lon="5.9083">
        <ele>2015.54</ele>
        <time>2020-09-08T11:54:32Z</time>
      </trkpt>
      <trkpt lat="44.97006" lon="5.90829">
        <ele>2014.58</ele>
        <time>2020-09-08T11:54:46Z</time>
      </trkpt>
      <trkpt lat="44.97003" lon="5.90829">
        <ele>2013.62</ele>
        <time>2020-09-08T11:55:03Z</time>
      </trkpt>
      <trkpt lat="44.96998" lon="5.90829">
        <ele>2012.66</ele>
        <time>2020-09-08T11:55:18Z</time>
      </trkpt>
      <trkpt lat="44.96994" lon="5.90829">
        <ele>2011.7</ele>
        <time>2020-09-08T11:55:35Z</time>
      </trkpt>
      <trkpt lat="44.96988" lon="5.90831">
        <ele>2009.29</ele>
        <time>2020-09-08T11:55:50Z</time>
      </trkpt>
      <trkpt lat="44.9698" lon="5.90831">
        <ele>2006.89</ele>
        <time>2020-09-08T11:56:05Z</time>
      </trkpt>
      <trkpt lat="44.96974" lon="5.90831">
        <ele>2004.97</ele>
        <time>2020-09-08T11:56:19Z</time>
      </trkpt>
      <trkpt lat="44.9697" lon="5.9083">
        <ele>2003.04</ele>
        <time>2020-09-08T11:56:38Z</time>
      </trkpt>
      <trkpt lat="44.96965" lon="5.90828">
        <ele>2001.6</ele>
        <time>2020-09-08T11:56:52Z</time>
      </trkpt>
      <trkpt lat="44.96958" lon="5.90827">
        <ele>1998.72</ele>
        <time>2020-09-08T11:57:07Z</time>
      </trkpt>
      <trkpt lat="44.96947" lon="5.90824">
        <ele>1995.83</ele>
        <time>2020-09-08T11:57:22Z</time>
      </trkpt>
      <trkpt lat="44.96939" lon="5.90825">
        <ele>1992.95</ele>
        <time>2020-09-08T11:57:36Z</time>
      </trkpt>
      <trkpt lat="44.96931" lon="5.90823">
        <ele>1991.51</ele>
        <time>2020-09-08T11:57:51Z</time>
      </trkpt>
      <trkpt lat="44.96925" lon="5.9082">
        <ele>1990.07</ele>
        <time>2020-09-08T11:58:12Z</time>
      </trkpt>
      <trkpt lat="44.96923" lon="5.90817">
        <ele>1988.14</ele>
        <time>2020-09-08T11:58:29Z</time>
      </trkpt>
      <trkpt lat="44.96921" lon="5.90817">
        <ele>1987.18</ele>
        <time>2020-09-08T11:58:43Z</time>
      </trkpt>
      <trkpt lat="44.96915" lon="5.90815">
        <ele>1986.22</ele>
        <time>2020-09-08T11:58:57Z</time>
      </trkpt>
      <trkpt lat="44.96909" lon="5.90811">
        <ele>1984.3</ele>
        <time>2020-09-08T11:59:12Z</time>
      </trkpt>
      <trkpt lat="44.96899" lon="5.90807">
        <ele>1981.9</ele>
        <time>2020-09-08T11:59:28Z</time>
      </trkpt>
      <trkpt lat="44.96893" lon="5.90802">
        <ele>1978.53</ele>
        <time>2020-09-08T11:59:41Z</time>
      </trkpt>
      <trkpt lat="44.96887" lon="5.90798">
        <ele>1977.09</ele>
        <time>2020-09-08T11:59:55Z</time>
      </trkpt>
      <trkpt lat="44.96883" lon="5.90795">
        <ele>1974.69</ele>
        <time>2020-09-08T12:00:11Z</time>
      </trkpt>
      <trkpt lat="44.96879" lon="5.90793">
        <ele>1974.2</ele>
        <time>2020-09-08T12:00:27Z</time>
      </trkpt>
      <trkpt lat="44.96873" lon="5.9079">
        <ele>1971.8</ele>
        <time>2020-09-08T12:00:41Z</time>
      </trkpt>
      <trkpt lat="44.9687" lon="5.9079">
        <ele>1972.76</ele>
        <time>2020-09-08T12:00:53Z</time>
      </trkpt>
      <trkpt lat="44.96868" lon="5.90788">
        <ele>1971.8</ele>
        <time>2020-09-08T12:01:02Z</time>
      </trkpt>
      <trkpt lat="44.96866" lon="5.90782">
        <ele>1970.84</ele>
        <time>2020-09-08T12:01:16Z</time>
      </trkpt>
      <trkpt lat="44.96863" lon="5.90774">
        <ele>1968.92</ele>
        <time>2020-09-08T12:01:30Z</time>
      </trkpt>
      <trkpt lat="44.96858" lon="5.90766">
        <ele>1966.03</ele>
        <time>2020-09-08T12:01:45Z</time>
      </trkpt>
      <trkpt lat="44.96852" lon="5.90757">
        <ele>1964.11</ele>
        <time>2020-09-08T12:02:01Z</time>
      </trkpt>
      <trkpt lat="44.96847" lon="5.90751">
        <ele>1961.23</ele>
        <time>2020-09-08T12:02:18Z</time>
      </trkpt>
      <trkpt lat="44.96844" lon="5.90748">
        <ele>1959.3</ele>
        <time>2020-09-08T12:02:32Z</time>
      </trkpt>
      <trkpt lat="44.96839" lon="5.90743">
        <ele>1959.3</ele>
        <time>2020-09-08T12:02:47Z</time>
      </trkpt>
      <trkpt lat="44.96837" lon="5.90739">
        <ele>1957.86</ele>
        <time>2020-09-08T12:03:06Z</time>
      </trkpt>
      <trkpt lat="44.96835" lon="5.90738">
        <ele>1956.42</ele>
        <time>2020-09-08T12:03:18Z</time>
      </trkpt>
      <trkpt lat="44.96829" lon="5.90741">
        <ele>1956.9</ele>
        <time>2020-09-08T12:03:27Z</time>
      </trkpt>
      <trkpt lat="44.9682" lon="5.90741">
        <ele>1957.86</ele>
        <time>2020-09-08T12:03:42Z</time>
      </trkpt>
      <trkpt lat="44.96818" lon="5.90741">
        <ele>1958.34</ele>
        <time>2020-09-08T12:03:53Z</time>
      </trkpt>
      <trkpt lat="44.96815" lon="5.9074">
        <ele>1958.34</ele>
        <time>2020-09-08T12:04:07Z</time>
      </trkpt>
      <trkpt lat="44.9681" lon="5.90743">
        <ele>1959.78</ele>
        <time>2020-09-08T12:04:21Z</time>
      </trkpt>
      <trkpt lat="44.96807" lon="5.90744">
        <ele>1959.78</ele>
        <time>2020-09-08T12:04:40Z</time>
      </trkpt>
      <trkpt lat="44.968" lon="5.90744">
        <ele>1958.34</ele>
        <time>2020-09-08T12:04:53Z</time>
      </trkpt>
      <trkpt lat="44.96794" lon="5.90745">
        <ele>1957.86</ele>
        <time>2020-09-08T12:05:08Z</time>
      </trkpt>
      <trkpt lat="44.96788" lon="5.90747">
        <ele>1957.86</ele>
        <time>2020-09-08T12:05:20Z</time>
      </trkpt>
      <trkpt lat="44.96784" lon="5.90748">
        <ele>1959.3</ele>
        <time>2020-09-08T12:05:40Z</time>
      </trkpt>
      <trkpt lat="44.96776" lon="5.90751">
        <ele>1960.75</ele>
        <time>2020-09-08T12:05:57Z</time>
      </trkpt>
      <trkpt lat="44.96769" lon="5.90753">
        <ele>1961.23</ele>
        <time>2020-09-08T12:06:13Z</time>
      </trkpt>
      <trkpt lat="44.96765" lon="5.90753">
        <ele>1962.19</ele>
        <time>2020-09-08T12:06:32Z</time>
      </trkpt>
      <trkpt lat="44.96759" lon="5.90753">
        <ele>1962.19</ele>
        <time>2020-09-08T12:06:46Z</time>
      </trkpt>
      <trkpt lat="44.96754" lon="5.90749">
        <ele>1962.19</ele>
        <time>2020-09-08T12:07:01Z</time>
      </trkpt>
      <trkpt lat="44.96748" lon="5.90747">
        <ele>1962.67</ele>
        <time>2020-09-08T12:07:15Z</time>
      </trkpt>
      <trkpt lat="44.96745" lon="5.90746">
        <ele>1961.23</ele>
        <time>2020-09-08T12:07:25Z</time>
      </trkpt>
      <trkpt lat="44.96739" lon="5.90745">
        <ele>1962.19</ele>
        <time>2020-09-08T12:07:42Z</time>
      </trkpt>
      <trkpt lat="44.96734" lon="5.90745">
        <ele>1962.19</ele>
        <time>2020-09-08T12:07:58Z</time>
      </trkpt>
      <trkpt lat="44.96733" lon="5.90744">
        <ele>1962.67</ele>
        <time>2020-09-08T12:08:16Z</time>
      </trkpt>
      <trkpt lat="44.96727" lon="5.90744">
        <ele>1962.67</ele>
        <time>2020-09-08T12:08:32Z</time>
      </trkpt>
      <trkpt lat="44.96726" lon="5.90744">
        <ele>1962.67</ele>
        <time>2020-09-08T12:08:33Z</time>
      </trkpt>
      <trkpt lat="44.96724" lon="5.90745">
        <ele>1964.59</ele>
        <time>2020-09-08T12:08:45Z</time>
      </trkpt>
      <trkpt lat="44.96719" lon="5.90743">
        <ele>1965.55</ele>
        <time>2020-09-08T12:09:00Z</time>
      </trkpt>
      <trkpt lat="44.96717" lon="5.90737">
        <ele>1964.59</ele>
        <time>2020-09-08T12:09:18Z</time>
      </trkpt>
      <trkpt lat="44.96711" lon="5.9073">
        <ele>1964.59</ele>
        <time>2020-09-08T12:09:36Z</time>
      </trkpt>
      <trkpt lat="44.96707" lon="5.90727">
        <ele>1965.55</ele>
        <time>2020-09-08T12:09:49Z</time>
      </trkpt>
      <trkpt lat="44.96706" lon="5.90719">
        <ele>1965.55</ele>
        <time>2020-09-08T12:10:14Z</time>
      </trkpt>
      <trkpt lat="44.96701" lon="5.90716">
        <ele>1966.51</ele>
        <time>2020-09-08T12:10:33Z</time>
      </trkpt>
      <trkpt lat="44.96696" lon="5.90711">
        <ele>1966.99</ele>
        <time>2020-09-08T12:10:49Z</time>
      </trkpt>
      <trkpt lat="44.96688" lon="5.90703">
        <ele>1967.96</ele>
        <time>2020-09-08T12:11:06Z</time>
      </trkpt>
      <trkpt lat="44.96683" lon="5.90696">
        <ele>1968.92</ele>
        <time>2020-09-08T12:11:23Z</time>
      </trkpt>
      <trkpt lat="44.96678" lon="5.90691">
        <ele>1970.36</ele>
        <time>2020-09-08T12:11:35Z</time>
      </trkpt>
      <trkpt lat="44.96671" lon="5.90678">
        <ele>1970.84</ele>
        <time>2020-09-08T12:11:54Z</time>
      </trkpt>
      <trkpt lat="44.96669" lon="5.90669">
        <ele>1970.84</ele>
        <time>2020-09-08T12:12:08Z</time>
      </trkpt>
      <trkpt lat="44.96665" lon="5.90666">
        <ele>1973.24</ele>
        <time>2020-09-08T12:12:21Z</time>
      </trkpt>
      <trkpt lat="44.96659" lon="5.90653">
        <ele>1973.24</ele>
        <time>2020-09-08T12:12:36Z</time>
      </trkpt>
      <trkpt lat="44.96658" lon="5.9065">
        <ele>1972.28</ele>
        <time>2020-09-08T12:12:39Z</time>
      </trkpt>
      <trkpt lat="44.96651" lon="5.9064">
        <ele>1971.8</ele>
        <time>2020-09-08T12:12:55Z</time>
      </trkpt>
      <trkpt lat="44.96649" lon="5.90638">
        <ele>1973.24</ele>
        <time>2020-09-08T12:12:59Z</time>
      </trkpt>
      <trkpt lat="44.96643" lon="5.90631">
        <ele>1973.72</ele>
        <time>2020-09-08T12:13:15Z</time>
      </trkpt>
      <trkpt lat="44.96637" lon="5.90624">
        <ele>1971.32</ele>
        <time>2020-09-08T12:13:28Z</time>
      </trkpt>
      <trkpt lat="44.96633" lon="5.90619">
        <ele>1970.84</ele>
        <time>2020-09-08T12:13:41Z</time>
      </trkpt>
      <trkpt lat="44.96627" lon="5.90614">
        <ele>1969.4</ele>
        <time>2020-09-08T12:13:55Z</time>
      </trkpt>
      <trkpt lat="44.96623" lon="5.9061">
        <ele>1969.4</ele>
        <time>2020-09-08T12:14:10Z</time>
      </trkpt>
      <trkpt lat="44.96617" lon="5.90605">
        <ele>1969.4</ele>
        <time>2020-09-08T12:14:27Z</time>
      </trkpt>
      <trkpt lat="44.96611" lon="5.90602">
        <ele>1969.4</ele>
        <time>2020-09-08T12:14:43Z</time>
      </trkpt>
      <trkpt lat="44.96601" lon="5.90595">
        <ele>1969.4</ele>
        <time>2020-09-08T12:14:58Z</time>
      </trkpt>
      <trkpt lat="44.96591" lon="5.90592">
        <ele>1970.84</ele>
        <time>2020-09-08T12:15:16Z</time>
      </trkpt>
      <trkpt lat="44.96583" lon="5.90585">
        <ele>1973.24</ele>
        <time>2020-09-08T12:15:33Z</time>
      </trkpt>
      <trkpt lat="44.96577" lon="5.90581">
        <ele>1975.17</ele>
        <time>2020-09-08T12:15:49Z</time>
      </trkpt>
      <trkpt lat="44.96574" lon="5.90577">
        <ele>1975.17</ele>
        <time>2020-09-08T12:16:05Z</time>
      </trkpt>
      <trkpt lat="44.96572" lon="5.90571">
        <ele>1974.69</ele>
        <time>2020-09-08T12:16:22Z</time>
      </trkpt>
      <trkpt lat="44.96571" lon="5.90567">
        <ele>1973.72</ele>
        <time>2020-09-08T12:16:45Z</time>
      </trkpt>
      <trkpt lat="44.96566" lon="5.9056">
        <ele>1972.28</ele>
        <time>2020-09-08T12:16:58Z</time>
      </trkpt>
      <trkpt lat="44.96563" lon="5.90555">
        <ele>1971.8</ele>
        <time>2020-09-08T12:17:18Z</time>
      </trkpt>
      <trkpt lat="44.96558" lon="5.90544">
        <ele>1970.84</ele>
        <time>2020-09-08T12:17:34Z</time>
      </trkpt>
      <trkpt lat="44.96553" lon="5.90536">
        <ele>1970.36</ele>
        <time>2020-09-08T12:17:47Z</time>
      </trkpt>
      <trkpt lat="44.96553" lon="5.90535">
        <ele>1971.8</ele>
        <time>2020-09-08T12:17:49Z</time>
      </trkpt>
      <trkpt lat="44.96554" lon="5.90521">
        <ele>1972.76</ele>
        <time>2020-09-08T12:18:02Z</time>
      </trkpt>
      <trkpt lat="44.96555" lon="5.9051">
        <ele>1973.72</ele>
        <time>2020-09-08T12:18:25Z</time>
      </trkpt>
      <trkpt lat="44.96555" lon="5.90503">
        <ele>1975.65</ele>
        <time>2020-09-08T12:18:39Z</time>
      </trkpt>
      <trkpt lat="44.96556" lon="5.90491">
        <ele>1974.2</ele>
        <time>2020-09-08T12:18:53Z</time>
      </trkpt>
      <trkpt lat="44.96556" lon="5.9049">
        <ele>1974.2</ele>
        <time>2020-09-08T12:18:54Z</time>
      </trkpt>
      <trkpt lat="44.96553" lon="5.90477">
        <ele>1972.28</ele>
        <time>2020-09-08T12:19:06Z</time>
      </trkpt>
      <trkpt lat="44.96551" lon="5.90474">
        <ele>1973.72</ele>
        <time>2020-09-08T12:19:10Z</time>
      </trkpt>
      <trkpt lat="44.9655" lon="5.90467">
        <ele>1971.8</ele>
        <time>2020-09-08T12:19:17Z</time>
      </trkpt>
      <trkpt lat="44.96543" lon="5.9045">
        <ele>1972.76</ele>
        <time>2020-09-08T12:19:33Z</time>
      </trkpt>
      <trkpt lat="44.96543" lon="5.90449">
        <ele>1972.76</ele>
        <time>2020-09-08T12:19:34Z</time>
      </trkpt>
      <trkpt lat="44.96542" lon="5.90436">
        <ele>1973.24</ele>
        <time>2020-09-08T12:19:44Z</time>
      </trkpt>
      <trkpt lat="44.96544" lon="5.90426">
        <ele>1971.8</ele>
        <time>2020-09-08T12:19:51Z</time>
      </trkpt>
      <trkpt lat="44.96544" lon="5.9042">
        <ele>1971.8</ele>
        <time>2020-09-08T12:20:05Z</time>
      </trkpt>
      <trkpt lat="44.96543" lon="5.90418">
        <ele>1971.32</ele>
        <time>2020-09-08T12:20:27Z</time>
      </trkpt>
      <trkpt lat="44.96545" lon="5.90418">
        <ele>1972.76</ele>
        <time>2020-09-08T12:20:36Z</time>
      </trkpt>
      <trkpt lat="44.96545" lon="5.90418">
        <ele>1971.32</ele>
        <time>2020-09-08T12:20:38Z</time>
      </trkpt>
      <trkpt lat="44.96543" lon="5.90415">
        <ele>1972.28</ele>
        <time>2020-09-08T12:21:05Z</time>
      </trkpt>
      <trkpt lat="44.96543" lon="5.90415">
        <ele>1972.28</ele>
        <time>2020-09-08T12:21:06Z</time>
      </trkpt>
      <trkpt lat="44.96542" lon="5.90409">
        <ele>1970.84</ele>
        <time>2020-09-08T12:21:11Z</time>
      </trkpt>
      <trkpt lat="44.9654" lon="5.90406">
        <ele>1970.36</ele>
        <time>2020-09-08T12:21:15Z</time>
      </trkpt>
      <trkpt lat="44.96538" lon="5.90392">
        <ele>1968.92</ele>
        <time>2020-09-08T12:21:24Z</time>
      </trkpt>
      <trkpt lat="44.96538" lon="5.9039">
        <ele>1968.92</ele>
        <time>2020-09-08T12:21:26Z</time>
      </trkpt>
      <trkpt lat="44.96537" lon="5.90385">
        <ele>1968.44</ele>
        <time>2020-09-08T12:21:30Z</time>
      </trkpt>
      <trkpt lat="44.96532" lon="5.9037">
        <ele>1968.44</ele>
        <time>2020-09-08T12:21:47Z</time>
      </trkpt>
      <trkpt lat="44.96532" lon="5.90369">
        <ele>1968.44</ele>
        <time>2020-09-08T12:21:48Z</time>
      </trkpt>
      <trkpt lat="44.96532" lon="5.90369">
        <ele>1966.99</ele>
        <time>2020-09-08T12:21:51Z</time>
      </trkpt>
      <trkpt lat="44.9653" lon="5.90363">
        <ele>1966.03</ele>
        <time>2020-09-08T12:22:12Z</time>
      </trkpt>
      <trkpt lat="44.9653" lon="5.90353">
        <ele>1962.19</ele>
        <time>2020-09-08T12:22:26Z</time>
      </trkpt>
      <trkpt lat="44.96527" lon="5.90343">
        <ele>1958.82</ele>
        <time>2020-09-08T12:22:41Z</time>
      </trkpt>
      <trkpt lat="44.96526" lon="5.90334">
        <ele>1955.94</ele>
        <time>2020-09-08T12:22:53Z</time>
      </trkpt>
      <trkpt lat="44.96525" lon="5.90324">
        <ele>1952.57</ele>
        <time>2020-09-08T12:23:06Z</time>
      </trkpt>
      <trkpt lat="44.9652" lon="5.90316">
        <ele>1951.13</ele>
        <time>2020-09-08T12:23:23Z</time>
      </trkpt>
      <trkpt lat="44.96514" lon="5.90306">
        <ele>1948.25</ele>
        <time>2020-09-08T12:23:40Z</time>
      </trkpt>
      <trkpt lat="44.96509" lon="5.90295">
        <ele>1944.88</ele>
        <time>2020-09-08T12:23:57Z</time>
      </trkpt>
      <trkpt lat="44.96504" lon="5.90287">
        <ele>1942</ele>
        <time>2020-09-08T12:24:11Z</time>
      </trkpt>
      <trkpt lat="44.96502" lon="5.90283">
        <ele>1939.6</ele>
        <time>2020-09-08T12:24:25Z</time>
      </trkpt>
      <trkpt lat="44.96499" lon="5.90276">
        <ele>1937.19</ele>
        <time>2020-09-08T12:24:40Z</time>
      </trkpt>
      <trkpt lat="44.96502" lon="5.90268">
        <ele>1934.31</ele>
        <time>2020-09-08T12:24:50Z</time>
      </trkpt>
      <trkpt lat="44.96501" lon="5.9026">
        <ele>1930.95</ele>
        <time>2020-09-08T12:25:03Z</time>
      </trkpt>
      <trkpt lat="44.965" lon="5.90259">
        <ele>1929.98</ele>
        <time>2020-09-08T12:25:05Z</time>
      </trkpt>
      <trkpt lat="44.96497" lon="5.9025">
        <ele>1926.62</ele>
        <time>2020-09-08T12:25:17Z</time>
      </trkpt>
      <trkpt lat="44.96494" lon="5.90241">
        <ele>1923.25</ele>
        <time>2020-09-08T12:25:31Z</time>
      </trkpt>
      <trkpt lat="44.96491" lon="5.9024">
        <ele>1921.81</ele>
        <time>2020-09-08T12:25:43Z</time>
      </trkpt>
      <trkpt lat="44.96488" lon="5.90235">
        <ele>1919.89</ele>
        <time>2020-09-08T12:26:06Z</time>
      </trkpt>
      <trkpt lat="44.96488" lon="5.90235">
        <ele>1919.89</ele>
        <time>2020-09-08T12:26:07Z</time>
      </trkpt>
      <trkpt lat="44.96492" lon="5.90222">
        <ele>1916.04</ele>
        <time>2020-09-08T12:26:21Z</time>
      </trkpt>
      <trkpt lat="44.96497" lon="5.90214">
        <ele>1912.68</ele>
        <time>2020-09-08T12:26:31Z</time>
      </trkpt>
      <trkpt lat="44.96497" lon="5.90208">
        <ele>1911.24</ele>
        <time>2020-09-08T12:26:37Z</time>
      </trkpt>
      <trkpt lat="44.96496" lon="5.90202">
        <ele>1907.87</ele>
        <time>2020-09-08T12:26:48Z</time>
      </trkpt>
      <trkpt lat="44.96494" lon="5.90194">
        <ele>1904.99</ele>
        <time>2020-09-08T12:27:00Z</time>
      </trkpt>
      <trkpt lat="44.96494" lon="5.90188">
        <ele>1901.63</ele>
        <time>2020-09-08T12:27:12Z</time>
      </trkpt>
      <trkpt lat="44.96486" lon="5.90184">
        <ele>1898.74</ele>
        <time>2020-09-08T12:27:25Z</time>
      </trkpt>
      <trkpt lat="44.96481" lon="5.90176">
        <ele>1895.86</ele>
        <time>2020-09-08T12:27:38Z</time>
      </trkpt>
      <trkpt lat="44.9648" lon="5.90169">
        <ele>1892.49</ele>
        <time>2020-09-08T12:27:47Z</time>
      </trkpt>
      <trkpt lat="44.9648" lon="5.90169">
        <ele>1892.49</ele>
        <time>2020-09-08T12:27:48Z</time>
      </trkpt>
      <trkpt lat="44.9648" lon="5.90156">
        <ele>1889.61</ele>
        <time>2020-09-08T12:28:01Z</time>
      </trkpt>
      <trkpt lat="44.9648" lon="5.90154">
        <ele>1888.65</ele>
        <time>2020-09-08T12:28:03Z</time>
      </trkpt>
      <trkpt lat="44.9648" lon="5.90152">
        <ele>1888.17</ele>
        <time>2020-09-08T12:28:06Z</time>
      </trkpt>
      <trkpt lat="44.96479" lon="5.9014">
        <ele>1885.28</ele>
        <time>2020-09-08T12:28:17Z</time>
      </trkpt>
      <trkpt lat="44.96478" lon="5.90137">
        <ele>1883.36</ele>
        <time>2020-09-08T12:28:21Z</time>
      </trkpt>
      <trkpt lat="44.96478" lon="5.90131">
        <ele>1881.92</ele>
        <time>2020-09-08T12:28:26Z</time>
      </trkpt>
      <trkpt lat="44.96475" lon="5.9012">
        <ele>1879.03</ele>
        <time>2020-09-08T12:28:35Z</time>
      </trkpt>
      <trkpt lat="44.96474" lon="5.9011">
        <ele>1876.63</ele>
        <time>2020-09-08T12:28:44Z</time>
      </trkpt>
      <trkpt lat="44.96472" lon="5.90094">
        <ele>1873.27</ele>
        <time>2020-09-08T12:28:57Z</time>
      </trkpt>
      <trkpt lat="44.96471" lon="5.90082">
        <ele>1869.9</ele>
        <time>2020-09-08T12:29:09Z</time>
      </trkpt>
      <trkpt lat="44.96469" lon="5.90068">
        <ele>1867.02</ele>
        <time>2020-09-08T12:29:24Z</time>
      </trkpt>
      <trkpt lat="44.96465" lon="5.90058">
        <ele>1865.09</ele>
        <time>2020-09-08T12:29:37Z</time>
      </trkpt>
      <trkpt lat="44.96463" lon="5.90055">
        <ele>1863.17</ele>
        <time>2020-09-08T12:29:46Z</time>
      </trkpt>
      <trkpt lat="44.96458" lon="5.90045">
        <ele>1859.81</ele>
        <time>2020-09-08T12:29:58Z</time>
      </trkpt>
      <trkpt lat="44.9645" lon="5.90034">
        <ele>1856.44</ele>
        <time>2020-09-08T12:30:11Z</time>
      </trkpt>
      <trkpt lat="44.96447" lon="5.9002">
        <ele>1857.89</ele>
        <time>2020-09-08T12:30:24Z</time>
      </trkpt>
      <trkpt lat="44.96446" lon="5.90012">
        <ele>1856.92</ele>
        <time>2020-09-08T12:30:33Z</time>
      </trkpt>
      <trkpt lat="44.96447" lon="5.90007">
        <ele>1853.56</ele>
        <time>2020-09-08T12:30:45Z</time>
      </trkpt>
      <trkpt lat="44.96446" lon="5.90001">
        <ele>1852.12</ele>
        <time>2020-09-08T12:30:58Z</time>
      </trkpt>
      <trkpt lat="44.96448" lon="5.89995">
        <ele>1848.75</ele>
        <time>2020-09-08T12:31:08Z</time>
      </trkpt>
      <trkpt lat="44.96445" lon="5.89991">
        <ele>1848.27</ele>
        <time>2020-09-08T12:31:22Z</time>
      </trkpt>
      <trkpt lat="44.96441" lon="5.89976">
        <ele>1846.35</ele>
        <time>2020-09-08T12:31:37Z</time>
      </trkpt>
      <trkpt lat="44.96437" lon="5.89963">
        <ele>1844.43</ele>
        <time>2020-09-08T12:31:51Z</time>
      </trkpt>
      <trkpt lat="44.96433" lon="5.89959">
        <ele>1843.95</ele>
        <time>2020-09-08T12:32:03Z</time>
      </trkpt>
      <trkpt lat="44.96431" lon="5.89957">
        <ele>1842.98</ele>
        <time>2020-09-08T12:32:19Z</time>
      </trkpt>
      <trkpt lat="44.96431" lon="5.89955">
        <ele>1842.5</ele>
        <time>2020-09-08T12:32:50Z</time>
      </trkpt>
      <trkpt lat="44.96428" lon="5.8995">
        <ele>1844.43</ele>
        <time>2020-09-08T12:32:58Z</time>
      </trkpt>
      <trkpt lat="44.96426" lon="5.89945">
        <ele>1842.5</ele>
        <time>2020-09-08T12:33:03Z</time>
      </trkpt>
      <trkpt lat="44.96424" lon="5.89935">
        <ele>1840.58</ele>
        <time>2020-09-08T12:33:15Z</time>
      </trkpt>
      <trkpt lat="44.96421" lon="5.89925">
        <ele>1836.74</ele>
        <time>2020-09-08T12:33:30Z</time>
      </trkpt>
      <trkpt lat="44.9642" lon="5.89924">
        <ele>1836.74</ele>
        <time>2020-09-08T12:33:31Z</time>
      </trkpt>
      <trkpt lat="44.96414" lon="5.89918">
        <ele>1834.81</ele>
        <time>2020-09-08T12:33:46Z</time>
      </trkpt>
      <trkpt lat="44.96414" lon="5.89917">
        <ele>1833.85</ele>
        <time>2020-09-08T12:34:10Z</time>
      </trkpt>
      <trkpt lat="44.96417" lon="5.89914">
        <ele>1833.37</ele>
        <time>2020-09-08T12:34:36Z</time>
      </trkpt>
      <trkpt lat="44.96419" lon="5.89914">
        <ele>1833.37</ele>
        <time>2020-09-08T12:34:54Z</time>
      </trkpt>
      <trkpt lat="44.96418" lon="5.89916">
        <ele>1833.85</ele>
        <time>2020-09-08T12:35:23Z</time>
      </trkpt>
      <trkpt lat="44.96416" lon="5.89914">
        <ele>1833.85</ele>
        <time>2020-09-08T12:35:38Z</time>
      </trkpt>
      <trkpt lat="44.96416" lon="5.89914">
        <ele>1834.33</ele>
        <time>2020-09-08T12:36:03Z</time>
      </trkpt>
      <trkpt lat="44.96416" lon="5.89914">
        <ele>1832.89</ele>
        <time>2020-09-08T12:36:07Z</time>
      </trkpt>
      <trkpt lat="44.96414" lon="5.89911">
        <ele>1831.93</ele>
        <time>2020-09-08T12:36:21Z</time>
      </trkpt>
      <trkpt lat="44.96414" lon="5.89911">
        <ele>1831.93</ele>
        <time>2020-09-08T12:36:48Z</time>
      </trkpt>
      <trkpt lat="44.96415" lon="5.89911">
        <ele>1831.93</ele>
        <time>2020-09-08T12:37:17Z</time>
      </trkpt>
      <trkpt lat="44.96413" lon="5.89911">
        <ele>1831.93</ele>
        <time>2020-09-08T12:37:38Z</time>
      </trkpt>
      <trkpt lat="44.96414" lon="5.89912">
        <ele>1831.45</ele>
        <time>2020-09-08T12:38:03Z</time>
      </trkpt>
      <trkpt lat="44.96414" lon="5.89912">
        <ele>1830.97</ele>
        <time>2020-09-08T12:38:28Z</time>
      </trkpt>
      <trkpt lat="44.96414" lon="5.89912">
        <ele>1830.97</ele>
        <time>2020-09-08T12:38:55Z</time>
      </trkpt>
      <trkpt lat="44.96414" lon="5.89909">
        <ele>1830.49</ele>
        <time>2020-09-08T12:39:22Z</time>
      </trkpt>
      <trkpt lat="44.96413" lon="5.89901">
        <ele>1827.12</ele>
        <time>2020-09-08T12:39:35Z</time>
      </trkpt>
      <trkpt lat="44.9641" lon="5.89893">
        <ele>1825.2</ele>
        <time>2020-09-08T12:39:50Z</time>
      </trkpt>
      <trkpt lat="44.96412" lon="5.89887">
        <ele>1823.76</ele>
        <time>2020-09-08T12:40:00Z</time>
      </trkpt>
      <trkpt lat="44.96418" lon="5.89881">
        <ele>1819.91</ele>
        <time>2020-09-08T12:40:16Z</time>
      </trkpt>
      <trkpt lat="44.96419" lon="5.89876">
        <ele>1817.03</ele>
        <time>2020-09-08T12:40:30Z</time>
      </trkpt>
      <trkpt lat="44.9642" lon="5.89872">
        <ele>1815.11</ele>
        <time>2020-09-08T12:40:41Z</time>
      </trkpt>
      <trkpt lat="44.96419" lon="5.89868">
        <ele>1813.18</ele>
        <time>2020-09-08T12:40:56Z</time>
      </trkpt>
      <trkpt lat="44.96422" lon="5.89865">
        <ele>1810.78</ele>
        <time>2020-09-08T12:41:11Z</time>
      </trkpt>
      <trkpt lat="44.96421" lon="5.89858">
        <ele>1807.9</ele>
        <time>2020-09-08T12:41:25Z</time>
      </trkpt>
      <trkpt lat="44.96419" lon="5.89849">
        <ele>1804.53</ele>
        <time>2020-09-08T12:41:36Z</time>
      </trkpt>
      <trkpt lat="44.9642" lon="5.89849">
        <ele>1804.53</ele>
        <time>2020-09-08T12:41:37Z</time>
      </trkpt>
      <trkpt lat="44.96417" lon="5.89835">
        <ele>1801.17</ele>
        <time>2020-09-08T12:41:49Z</time>
      </trkpt>
      <trkpt lat="44.96417" lon="5.89822">
        <ele>1797.8</ele>
        <time>2020-09-08T12:42:04Z</time>
      </trkpt>
      <trkpt lat="44.96417" lon="5.89819">
        <ele>1796.84</ele>
        <time>2020-09-08T12:42:08Z</time>
      </trkpt>
      <trkpt lat="44.96417" lon="5.89807">
        <ele>1793.48</ele>
        <time>2020-09-08T12:42:19Z</time>
      </trkpt>
      <trkpt lat="44.96416" lon="5.89797">
        <ele>1790.59</ele>
        <time>2020-09-08T12:42:29Z</time>
      </trkpt>
      <trkpt lat="44.96416" lon="5.89788">
        <ele>1787.71</ele>
        <time>2020-09-08T12:42:45Z</time>
      </trkpt>
      <trkpt lat="44.96413" lon="5.89779">
        <ele>1784.34</ele>
        <time>2020-09-08T12:42:56Z</time>
      </trkpt>
      <trkpt lat="44.96413" lon="5.89778">
        <ele>1784.34</ele>
        <time>2020-09-08T12:42:57Z</time>
      </trkpt>
      <trkpt lat="44.96412" lon="5.89769">
        <ele>1780.98</ele>
        <time>2020-09-08T12:43:09Z</time>
      </trkpt>
      <trkpt lat="44.96412" lon="5.89759">
        <ele>1777.61</ele>
        <time>2020-09-08T12:43:21Z</time>
      </trkpt>
      <trkpt lat="44.96413" lon="5.89749">
        <ele>1774.25</ele>
        <time>2020-09-08T12:43:31Z</time>
      </trkpt>
      <trkpt lat="44.96411" lon="5.89738">
        <ele>1771.37</ele>
        <time>2020-09-08T12:43:43Z</time>
      </trkpt>
      <trkpt lat="44.96408" lon="5.89727">
        <ele>1768</ele>
        <time>2020-09-08T12:43:54Z</time>
      </trkpt>
      <trkpt lat="44.96408" lon="5.89727">
        <ele>1768</ele>
        <time>2020-09-08T12:43:55Z</time>
      </trkpt>
      <trkpt lat="44.9641" lon="5.89719">
        <ele>1765.12</ele>
        <time>2020-09-08T12:44:04Z</time>
      </trkpt>
      <trkpt lat="44.96412" lon="5.89707">
        <ele>1761.75</ele>
        <time>2020-09-08T12:44:19Z</time>
      </trkpt>
      <trkpt lat="44.96413" lon="5.89696">
        <ele>1757.91</ele>
        <time>2020-09-08T12:44:31Z</time>
      </trkpt>
      <trkpt lat="44.96412" lon="5.89685">
        <ele>1755.99</ele>
        <time>2020-09-08T12:44:43Z</time>
      </trkpt>
      <trkpt lat="44.96412" lon="5.89678">
        <ele>1755.02</ele>
        <time>2020-09-08T12:44:48Z</time>
      </trkpt>
      <trkpt lat="44.96413" lon="5.89662">
        <ele>1752.62</ele>
        <time>2020-09-08T12:45:04Z</time>
      </trkpt>
      <trkpt lat="44.96413" lon="5.8964">
        <ele>1751.18</ele>
        <time>2020-09-08T12:45:19Z</time>
      </trkpt>
      <trkpt lat="44.9641" lon="5.89621">
        <ele>1748.78</ele>
        <time>2020-09-08T12:45:35Z</time>
      </trkpt>
      <trkpt lat="44.96412" lon="5.89596">
        <ele>1747.81</ele>
        <time>2020-09-08T12:45:52Z</time>
      </trkpt>
      <trkpt lat="44.96416" lon="5.89577">
        <ele>1747.81</ele>
        <time>2020-09-08T12:46:07Z</time>
      </trkpt>
      <trkpt lat="44.96417" lon="5.89561">
        <ele>1745.41</ele>
        <time>2020-09-08T12:46:20Z</time>
      </trkpt>
      <trkpt lat="44.9642" lon="5.89557">
        <ele>1744.45</ele>
        <time>2020-09-08T12:46:38Z</time>
      </trkpt>
      <trkpt lat="44.9642" lon="5.89555">
        <ele>1743.97</ele>
        <time>2020-09-08T12:46:57Z</time>
      </trkpt>
      <trkpt lat="44.96419" lon="5.89554">
        <ele>1743.97</ele>
        <time>2020-09-08T12:47:28Z</time>
      </trkpt>
      <trkpt lat="44.9642" lon="5.89543">
        <ele>1742.53</ele>
        <time>2020-09-08T12:47:52Z</time>
      </trkpt>
      <trkpt lat="44.96423" lon="5.89532">
        <ele>1739.64</ele>
        <time>2020-09-08T12:48:05Z</time>
      </trkpt>
      <trkpt lat="44.96423" lon="5.8952">
        <ele>1737.24</ele>
        <time>2020-09-08T12:48:19Z</time>
      </trkpt>
      <trkpt lat="44.96425" lon="5.89514">
        <ele>1736.28</ele>
        <time>2020-09-08T12:48:36Z</time>
      </trkpt>
      <trkpt lat="44.96424" lon="5.89504">
        <ele>1735.32</ele>
        <time>2020-09-08T12:48:48Z</time>
      </trkpt>
      <trkpt lat="44.96421" lon="5.89489">
        <ele>1736.28</ele>
        <time>2020-09-08T12:49:02Z</time>
      </trkpt>
      <trkpt lat="44.96424" lon="5.89476">
        <ele>1732.91</ele>
        <time>2020-09-08T12:49:16Z</time>
      </trkpt>
      <trkpt lat="44.9643" lon="5.89468">
        <ele>1729.55</ele>
        <time>2020-09-08T12:49:25Z</time>
      </trkpt>
      <trkpt lat="44.96432" lon="5.89453">
        <ele>1726.67</ele>
        <time>2020-09-08T12:49:39Z</time>
      </trkpt>
      <trkpt lat="44.96434" lon="5.89441">
        <ele>1723.3</ele>
        <time>2020-09-08T12:49:49Z</time>
      </trkpt>
      <trkpt lat="44.96434" lon="5.8944">
        <ele>1723.3</ele>
        <time>2020-09-08T12:49:50Z</time>
      </trkpt>
      <trkpt lat="44.96435" lon="5.89426">
        <ele>1720.42</ele>
        <time>2020-09-08T12:50:02Z</time>
      </trkpt>
      <trkpt lat="44.96439" lon="5.89417">
        <ele>1718.97</ele>
        <time>2020-09-08T12:50:15Z</time>
      </trkpt>
      <trkpt lat="44.96439" lon="5.89413">
        <ele>1718.01</ele>
        <time>2020-09-08T12:50:30Z</time>
      </trkpt>
      <trkpt lat="44.9644" lon="5.89406">
        <ele>1717.53</ele>
        <time>2020-09-08T12:50:36Z</time>
      </trkpt>
      <trkpt lat="44.96446" lon="5.89386">
        <ele>1715.13</ele>
        <time>2020-09-08T12:50:53Z</time>
      </trkpt>
      <trkpt lat="44.96455" lon="5.89386">
        <ele>1713.69</ele>
        <time>2020-09-08T12:51:08Z</time>
      </trkpt>
      <trkpt lat="44.96454" lon="5.89385">
        <ele>1714.17</ele>
        <time>2020-09-08T12:51:26Z</time>
      </trkpt>
      <trkpt lat="44.96455" lon="5.89386">
        <ele>1714.17</ele>
        <time>2020-09-08T12:52:00Z</time>
      </trkpt>
      <trkpt lat="44.96455" lon="5.89387">
        <ele>1714.17</ele>
        <time>2020-09-08T12:52:23Z</time>
      </trkpt>
      <trkpt lat="44.96456" lon="5.89386">
        <ele>1714.65</ele>
        <time>2020-09-08T12:52:41Z</time>
      </trkpt>
      <trkpt lat="44.96456" lon="5.89386">
        <ele>1713.21</ele>
        <time>2020-09-08T12:53:01Z</time>
      </trkpt>
      <trkpt lat="44.96457" lon="5.89386">
        <ele>1713.21</ele>
        <time>2020-09-08T12:53:27Z</time>
      </trkpt>
      <trkpt lat="44.96455" lon="5.89382">
        <ele>1712.73</ele>
        <time>2020-09-08T12:53:55Z</time>
      </trkpt>
      <trkpt lat="44.96451" lon="5.89377">
        <ele>1710.8</ele>
        <time>2020-09-08T12:54:02Z</time>
      </trkpt>
      <trkpt lat="44.96449" lon="5.89375">
        <ele>1710.8</ele>
        <time>2020-09-08T12:54:05Z</time>
      </trkpt>
      <trkpt lat="44.96444" lon="5.89363">
        <ele>1707.44</ele>
        <time>2020-09-08T12:54:18Z</time>
      </trkpt>
      <trkpt lat="44.96444" lon="5.89362">
        <ele>1707.44</ele>
        <time>2020-09-08T12:54:19Z</time>
      </trkpt>
      <trkpt lat="44.96445" lon="5.89359">
        <ele>1707.44</ele>
        <time>2020-09-08T12:54:21Z</time>
      </trkpt>
      <trkpt lat="44.96446" lon="5.89355">
        <ele>1706</ele>
        <time>2020-09-08T12:54:24Z</time>
      </trkpt>
      <trkpt lat="44.96445" lon="5.89343">
        <ele>1702.63</ele>
        <time>2020-09-08T12:54:35Z</time>
      </trkpt>
      <trkpt lat="44.96446" lon="5.89326">
        <ele>1699.27</ele>
        <time>2020-09-08T12:54:51Z</time>
      </trkpt>
      <trkpt lat="44.96446" lon="5.89314">
        <ele>1696.86</ele>
        <time>2020-09-08T12:55:05Z</time>
      </trkpt>
      <trkpt lat="44.96445" lon="5.8931">
        <ele>1695.42</ele>
        <time>2020-09-08T12:55:10Z</time>
      </trkpt>
      <trkpt lat="44.96447" lon="5.89297">
        <ele>1692.06</ele>
        <time>2020-09-08T12:55:23Z</time>
      </trkpt>
      <trkpt lat="44.9645" lon="5.89287">
        <ele>1690.14</ele>
        <time>2020-09-08T12:55:38Z</time>
      </trkpt>
      <trkpt lat="44.96451" lon="5.89274">
        <ele>1687.25</ele>
        <time>2020-09-08T12:55:51Z</time>
      </trkpt>
      <trkpt lat="44.9645" lon="5.89268">
        <ele>1685.33</ele>
        <time>2020-09-08T12:55:56Z</time>
      </trkpt>
      <trkpt lat="44.96449" lon="5.89253">
        <ele>1682.44</ele>
        <time>2020-09-08T12:56:07Z</time>
      </trkpt>
      <trkpt lat="44.96446" lon="5.8924">
        <ele>1680.04</ele>
        <time>2020-09-08T12:56:23Z</time>
      </trkpt>
      <trkpt lat="44.96445" lon="5.89231">
        <ele>1677.16</ele>
        <time>2020-09-08T12:56:38Z</time>
      </trkpt>
      <trkpt lat="44.96444" lon="5.89228">
        <ele>1675.72</ele>
        <time>2020-09-08T12:56:41Z</time>
      </trkpt>
      <trkpt lat="44.96442" lon="5.8922">
        <ele>1673.31</ele>
        <time>2020-09-08T12:56:50Z</time>
      </trkpt>
      <trkpt lat="44.96438" lon="5.89206">
        <ele>1669.47</ele>
        <time>2020-09-08T12:57:02Z</time>
      </trkpt>
      <trkpt lat="44.96438" lon="5.89204">
        <ele>1668.99</ele>
        <time>2020-09-08T12:57:04Z</time>
      </trkpt>
      <trkpt lat="44.96436" lon="5.89193">
        <ele>1666.1</ele>
        <time>2020-09-08T12:57:18Z</time>
      </trkpt>
      <trkpt lat="44.96429" lon="5.89179">
        <ele>1662.74</ele>
        <time>2020-09-08T12:57:31Z</time>
      </trkpt>
      <trkpt lat="44.96426" lon="5.89166">
        <ele>1659.37</ele>
        <time>2020-09-08T12:57:43Z</time>
      </trkpt>
      <trkpt lat="44.96425" lon="5.89164">
        <ele>1659.85</ele>
        <time>2020-09-08T12:57:45Z</time>
      </trkpt>
      <trkpt lat="44.96423" lon="5.89162">
        <ele>1658.41</ele>
        <time>2020-09-08T12:57:47Z</time>
      </trkpt>
      <trkpt lat="44.9642" lon="5.89159">
        <ele>1658.41</ele>
        <time>2020-09-08T12:57:51Z</time>
      </trkpt>
      <trkpt lat="44.96418" lon="5.89156">
        <ele>1657.45</ele>
        <time>2020-09-08T12:57:54Z</time>
      </trkpt>
      <trkpt lat="44.96417" lon="5.89147">
        <ele>1656.49</ele>
        <time>2020-09-08T12:58:10Z</time>
      </trkpt>
      <trkpt lat="44.96416" lon="5.89142">
        <ele>1654.57</ele>
        <time>2020-09-08T12:58:14Z</time>
      </trkpt>
      <trkpt lat="44.96417" lon="5.89132">
        <ele>1652.64</ele>
        <time>2020-09-08T12:58:30Z</time>
      </trkpt>
      <trkpt lat="44.96409" lon="5.89135">
        <ele>1650.72</ele>
        <time>2020-09-08T12:58:46Z</time>
      </trkpt>
      <trkpt lat="44.96406" lon="5.89122">
        <ele>1646.4</ele>
        <time>2020-09-08T12:58:59Z</time>
      </trkpt>
      <trkpt lat="44.96407" lon="5.89121">
        <ele>1646.4</ele>
        <time>2020-09-08T12:59:00Z</time>
      </trkpt>
      <trkpt lat="44.96408" lon="5.89116">
        <ele>1644.47</ele>
        <time>2020-09-08T12:59:11Z</time>
      </trkpt>
      <trkpt lat="44.96405" lon="5.8911">
        <ele>1643.03</ele>
        <time>2020-09-08T12:59:16Z</time>
      </trkpt>
      <trkpt lat="44.96403" lon="5.89101">
        <ele>1641.59</ele>
        <time>2020-09-08T12:59:31Z</time>
      </trkpt>
      <trkpt lat="44.96404" lon="5.89101">
        <ele>1641.11</ele>
        <time>2020-09-08T12:59:36Z</time>
      </trkpt>
      <trkpt lat="44.96408" lon="5.89104">
        <ele>1640.63</ele>
        <time>2020-09-08T12:59:51Z</time>
      </trkpt>
      <trkpt lat="44.96407" lon="5.89102">
        <ele>1640.63</ele>
        <time>2020-09-08T13:00:17Z</time>
      </trkpt>
      <trkpt lat="44.96407" lon="5.89101">
        <ele>1641.59</ele>
        <time>2020-09-08T13:00:30Z</time>
      </trkpt>
      <trkpt lat="44.96405" lon="5.89098">
        <ele>1640.63</ele>
        <time>2020-09-08T13:00:47Z</time>
      </trkpt>
      <trkpt lat="44.9641" lon="5.89103">
        <ele>1640.63</ele>
        <time>2020-09-08T13:00:56Z</time>
      </trkpt>
      <trkpt lat="44.96412" lon="5.89102">
        <ele>1638.7</ele>
        <time>2020-09-08T13:01:09Z</time>
      </trkpt>
      <trkpt lat="44.96416" lon="5.89099">
        <ele>1635.82</ele>
        <time>2020-09-08T13:01:21Z</time>
      </trkpt>
      <trkpt lat="44.96419" lon="5.89097">
        <ele>1632.94</ele>
        <time>2020-09-08T13:01:35Z</time>
      </trkpt>
      <trkpt lat="44.96425" lon="5.89096">
        <ele>1630.53</ele>
        <time>2020-09-08T13:01:49Z</time>
      </trkpt>
      <trkpt lat="44.9642" lon="5.89086">
        <ele>1627.17</ele>
        <time>2020-09-08T13:02:02Z</time>
      </trkpt>
      <trkpt lat="44.96422" lon="5.89083">
        <ele>1624.28</ele>
        <time>2020-09-08T13:02:13Z</time>
      </trkpt>
      <trkpt lat="44.96422" lon="5.89078">
        <ele>1621.88</ele>
        <time>2020-09-08T13:02:28Z</time>
      </trkpt>
      <trkpt lat="44.96427" lon="5.89075">
        <ele>1618.52</ele>
        <time>2020-09-08T13:02:42Z</time>
      </trkpt>
      <trkpt lat="44.96431" lon="5.89071">
        <ele>1615.63</ele>
        <time>2020-09-08T13:02:57Z</time>
      </trkpt>
      <trkpt lat="44.96433" lon="5.89067">
        <ele>1611.79</ele>
        <time>2020-09-08T13:03:12Z</time>
      </trkpt>
      <trkpt lat="44.96434" lon="5.89064">
        <ele>1609.86</ele>
        <time>2020-09-08T13:03:22Z</time>
      </trkpt>
      <trkpt lat="44.96434" lon="5.89063">
        <ele>1609.38</ele>
        <time>2020-09-08T13:03:50Z</time>
      </trkpt>
      <trkpt lat="44.96436" lon="5.89061">
        <ele>1609.38</ele>
        <time>2020-09-08T13:04:08Z</time>
      </trkpt>
      <trkpt lat="44.96439" lon="5.89059">
        <ele>1607.46</ele>
        <time>2020-09-08T13:04:20Z</time>
      </trkpt>
      <trkpt lat="44.96445" lon="5.89057">
        <ele>1604.1</ele>
        <time>2020-09-08T13:04:31Z</time>
      </trkpt>
      <trkpt lat="44.9645" lon="5.89054">
        <ele>1601.21</ele>
        <time>2020-09-08T13:04:42Z</time>
      </trkpt>
      <trkpt lat="44.96461" lon="5.89055">
        <ele>1597.85</ele>
        <time>2020-09-08T13:04:57Z</time>
      </trkpt>
      <trkpt lat="44.96467" lon="5.89053">
        <ele>1595.45</ele>
        <time>2020-09-08T13:05:07Z</time>
      </trkpt>
      <trkpt lat="44.96487" lon="5.8906">
        <ele>1592.08</ele>
        <time>2020-09-08T13:05:26Z</time>
      </trkpt>
      <trkpt lat="44.96499" lon="5.89065">
        <ele>1590.64</ele>
        <time>2020-09-08T13:05:40Z</time>
      </trkpt>
      <trkpt lat="44.96501" lon="5.89066">
        <ele>1589.2</ele>
        <time>2020-09-08T13:05:43Z</time>
      </trkpt>
      <trkpt lat="44.96511" lon="5.8907">
        <ele>1588.24</ele>
        <time>2020-09-08T13:05:55Z</time>
      </trkpt>
      <trkpt lat="44.96517" lon="5.89071">
        <ele>1586.79</ele>
        <time>2020-09-08T13:06:02Z</time>
      </trkpt>
      <trkpt lat="44.96521" lon="5.89073">
        <ele>1586.31</ele>
        <time>2020-09-08T13:06:06Z</time>
      </trkpt>
      <trkpt lat="44.96532" lon="5.89078">
        <ele>1582.95</ele>
        <time>2020-09-08T13:06:21Z</time>
      </trkpt>
      <trkpt lat="44.9654" lon="5.89084">
        <ele>1582.47</ele>
        <time>2020-09-08T13:06:31Z</time>
      </trkpt>
      <trkpt lat="44.96554" lon="5.89096">
        <ele>1580.54</ele>
        <time>2020-09-08T13:06:48Z</time>
      </trkpt>
      <trkpt lat="44.96563" lon="5.89106">
        <ele>1579.58</ele>
        <time>2020-09-08T13:06:59Z</time>
      </trkpt>
      <trkpt lat="44.96572" lon="5.89117">
        <ele>1579.1</ele>
        <time>2020-09-08T13:07:15Z</time>
      </trkpt>
      <trkpt lat="44.96574" lon="5.89121">
        <ele>1578.62</ele>
        <time>2020-09-08T13:07:19Z</time>
      </trkpt>
      <trkpt lat="44.96585" lon="5.89128">
        <ele>1576.7</ele>
        <time>2020-09-08T13:07:33Z</time>
      </trkpt>
      <trkpt lat="44.96594" lon="5.89135">
        <ele>1574.78</ele>
        <time>2020-09-08T13:07:46Z</time>
      </trkpt>
      <trkpt lat="44.96603" lon="5.8914">
        <ele>1573.33</ele>
        <time>2020-09-08T13:08:01Z</time>
      </trkpt>
      <trkpt lat="44.96613" lon="5.89145">
        <ele>1570.45</ele>
        <time>2020-09-08T13:08:16Z</time>
      </trkpt>
      <trkpt lat="44.96619" lon="5.89143">
        <ele>1567.09</ele>
        <time>2020-09-08T13:08:26Z</time>
      </trkpt>
      <trkpt lat="44.96626" lon="5.89141">
        <ele>1563.72</ele>
        <time>2020-09-08T13:08:35Z</time>
      </trkpt>
      <trkpt lat="44.96628" lon="5.8914">
        <ele>1562.76</ele>
        <time>2020-09-08T13:08:37Z</time>
      </trkpt>
      <trkpt lat="44.96631" lon="5.8914">
        <ele>1560.84</ele>
        <time>2020-09-08T13:08:41Z</time>
      </trkpt>
      <trkpt lat="44.96644" lon="5.89147">
        <ele>1556.99</ele>
        <time>2020-09-08T13:08:54Z</time>
      </trkpt>
      <trkpt lat="44.96655" lon="5.89151">
        <ele>1554.11</ele>
        <time>2020-09-08T13:09:10Z</time>
      </trkpt>
      <trkpt lat="44.96661" lon="5.89149">
        <ele>1551.71</ele>
        <time>2020-09-08T13:09:19Z</time>
      </trkpt>
      <trkpt lat="44.96663" lon="5.89148">
        <ele>1550.74</ele>
        <time>2020-09-08T13:09:23Z</time>
      </trkpt>
      <trkpt lat="44.96672" lon="5.89148">
        <ele>1546.42</ele>
        <time>2020-09-08T13:09:33Z</time>
      </trkpt>
      <trkpt lat="44.96678" lon="5.89152">
        <ele>1544.98</ele>
        <time>2020-09-08T13:09:39Z</time>
      </trkpt>
      <trkpt lat="44.96684" lon="5.89156">
        <ele>1544.5</ele>
        <time>2020-09-08T13:09:56Z</time>
      </trkpt>
      <trkpt lat="44.96687" lon="5.89157">
        <ele>1543.53</ele>
        <time>2020-09-08T13:10:24Z</time>
      </trkpt>
      <trkpt lat="44.96695" lon="5.8916">
        <ele>1541.13</ele>
        <time>2020-09-08T13:10:32Z</time>
      </trkpt>
      <trkpt lat="44.96704" lon="5.89167">
        <ele>1538.73</ele>
        <time>2020-09-08T13:10:41Z</time>
      </trkpt>
      <trkpt lat="44.96715" lon="5.89175">
        <ele>1535.84</ele>
        <time>2020-09-08T13:10:56Z</time>
      </trkpt>
      <trkpt lat="44.96725" lon="5.8918">
        <ele>1532.96</ele>
        <time>2020-09-08T13:11:09Z</time>
      </trkpt>
      <trkpt lat="44.96734" lon="5.89184">
        <ele>1530.08</ele>
        <time>2020-09-08T13:11:22Z</time>
      </trkpt>
      <trkpt lat="44.96738" lon="5.89184">
        <ele>1528.15</ele>
        <time>2020-09-08T13:11:26Z</time>
      </trkpt>
      <trkpt lat="44.96746" lon="5.89187">
        <ele>1525.27</ele>
        <time>2020-09-08T13:11:37Z</time>
      </trkpt>
      <trkpt lat="44.96754" lon="5.89191">
        <ele>1522.87</ele>
        <time>2020-09-08T13:11:50Z</time>
      </trkpt>
      <trkpt lat="44.96756" lon="5.89192">
        <ele>1521.42</ele>
        <time>2020-09-08T13:11:53Z</time>
      </trkpt>
      <trkpt lat="44.96758" lon="5.89192">
        <ele>1520.46</ele>
        <time>2020-09-08T13:11:55Z</time>
      </trkpt>
      <trkpt lat="44.96763" lon="5.89204">
        <ele>1519.02</ele>
        <time>2020-09-08T13:12:07Z</time>
      </trkpt>
      <trkpt lat="44.96775" lon="5.89219">
        <ele>1515.66</ele>
        <time>2020-09-08T13:12:21Z</time>
      </trkpt>
      <trkpt lat="44.96789" lon="5.89234">
        <ele>1512.29</ele>
        <time>2020-09-08T13:12:36Z</time>
      </trkpt>
      <trkpt lat="44.96797" lon="5.89247">
        <ele>1508.93</ele>
        <time>2020-09-08T13:12:50Z</time>
      </trkpt>
      <trkpt lat="44.96803" lon="5.89255">
        <ele>1507.97</ele>
        <time>2020-09-08T13:13:07Z</time>
      </trkpt>
      <trkpt lat="44.96809" lon="5.89264">
        <ele>1505.56</ele>
        <time>2020-09-08T13:13:23Z</time>
      </trkpt>
      <trkpt lat="44.96816" lon="5.8927">
        <ele>1505.56</ele>
        <time>2020-09-08T13:13:30Z</time>
      </trkpt>
      <trkpt lat="44.96817" lon="5.89269">
        <ele>1505.08</ele>
        <time>2020-09-08T13:13:32Z</time>
      </trkpt>
      <trkpt lat="44.96823" lon="5.89272">
        <ele>1503.16</ele>
        <time>2020-09-08T13:13:38Z</time>
      </trkpt>
      <trkpt lat="44.96828" lon="5.89272">
        <ele>1500.76</ele>
        <time>2020-09-08T13:13:45Z</time>
      </trkpt>
      <trkpt lat="44.96837" lon="5.89268">
        <ele>1497.87</ele>
        <time>2020-09-08T13:13:56Z</time>
      </trkpt>
      <trkpt lat="44.96848" lon="5.89262">
        <ele>1495.95</ele>
        <time>2020-09-08T13:14:08Z</time>
      </trkpt>
      <trkpt lat="44.96851" lon="5.89262">
        <ele>1495.47</ele>
        <time>2020-09-08T13:14:10Z</time>
      </trkpt>
      <trkpt lat="44.96864" lon="5.89263">
        <ele>1493.55</ele>
        <time>2020-09-08T13:14:25Z</time>
      </trkpt>
      <trkpt lat="44.96874" lon="5.8926">
        <ele>1490.66</ele>
        <time>2020-09-08T13:14:37Z</time>
      </trkpt>
      <trkpt lat="44.96882" lon="5.89259">
        <ele>1489.22</ele>
        <time>2020-09-08T13:14:46Z</time>
      </trkpt>
      <trkpt lat="44.96885" lon="5.89257">
        <ele>1488.26</ele>
        <time>2020-09-08T13:14:49Z</time>
      </trkpt>
      <trkpt lat="44.96901" lon="5.89252">
        <ele>1484.89</ele>
        <time>2020-09-08T13:15:03Z</time>
      </trkpt>
      <trkpt lat="44.96915" lon="5.89248">
        <ele>1482.97</ele>
        <time>2020-09-08T13:15:18Z</time>
      </trkpt>
      <trkpt lat="44.96919" lon="5.89247">
        <ele>1482.97</ele>
        <time>2020-09-08T13:15:21Z</time>
      </trkpt>
      <trkpt lat="44.96928" lon="5.89245">
        <ele>1483.93</ele>
        <time>2020-09-08T13:15:31Z</time>
      </trkpt>
      <trkpt lat="44.96942" lon="5.89243">
        <ele>1483.93</ele>
        <time>2020-09-08T13:15:45Z</time>
      </trkpt>
      <trkpt lat="44.96946" lon="5.89241">
        <ele>1482.49</ele>
        <time>2020-09-08T13:15:50Z</time>
      </trkpt>
      <trkpt lat="44.96948" lon="5.89239">
        <ele>1482.49</ele>
        <time>2020-09-08T13:15:52Z</time>
      </trkpt>
      <trkpt lat="44.96962" lon="5.8923">
        <ele>1480.57</ele>
        <time>2020-09-08T13:16:07Z</time>
      </trkpt>
      <trkpt lat="44.96966" lon="5.89229">
        <ele>1482.01</ele>
        <time>2020-09-08T13:16:11Z</time>
      </trkpt>
      <trkpt lat="44.96976" lon="5.89224">
        <ele>1482.97</ele>
        <time>2020-09-08T13:16:24Z</time>
      </trkpt>
      <trkpt lat="44.96978" lon="5.89223">
        <ele>1482.97</ele>
        <time>2020-09-08T13:16:26Z</time>
      </trkpt>
      <trkpt lat="44.96984" lon="5.89222">
        <ele>1481.53</ele>
        <time>2020-09-08T13:16:33Z</time>
      </trkpt>
      <trkpt lat="44.96987" lon="5.89223">
        <ele>1481.05</ele>
        <time>2020-09-08T13:16:36Z</time>
      </trkpt>
      <trkpt lat="44.96992" lon="5.89233">
        <ele>1482.49</ele>
        <time>2020-09-08T13:16:46Z</time>
      </trkpt>
      <trkpt lat="44.97004" lon="5.89241">
        <ele>1482.49</ele>
        <time>2020-09-08T13:17:01Z</time>
      </trkpt>
      <trkpt lat="44.97013" lon="5.89251">
        <ele>1484.41</ele>
        <time>2020-09-08T13:17:15Z</time>
      </trkpt>
      <trkpt lat="44.9702" lon="5.89265">
        <ele>1483.93</ele>
        <time>2020-09-08T13:17:30Z</time>
      </trkpt>
      <trkpt lat="44.97026" lon="5.89274">
        <ele>1485.85</ele>
        <time>2020-09-08T13:17:46Z</time>
      </trkpt>
      <trkpt lat="44.97028" lon="5.89275">
        <ele>1484.41</ele>
        <time>2020-09-08T13:17:49Z</time>
      </trkpt>
      <trkpt lat="44.97035" lon="5.89278">
        <ele>1483.93</ele>
        <time>2020-09-08T13:17:58Z</time>
      </trkpt>
      <trkpt lat="44.97043" lon="5.89275">
        <ele>1481.53</ele>
        <time>2020-09-08T13:18:09Z</time>
      </trkpt>
      <trkpt lat="44.97045" lon="5.89268">
        <ele>1480.09</ele>
        <time>2020-09-08T13:18:16Z</time>
      </trkpt>
      <trkpt lat="44.97049" lon="5.89265">
        <ele>1478.65</ele>
        <time>2020-09-08T13:18:35Z</time>
      </trkpt>
      <trkpt lat="44.97055" lon="5.89258">
        <ele>1476.72</ele>
        <time>2020-09-08T13:18:44Z</time>
      </trkpt>
      <trkpt lat="44.97059" lon="5.89256">
        <ele>1476.24</ele>
        <time>2020-09-08T13:18:49Z</time>
      </trkpt>
      <trkpt lat="44.97068" lon="5.89243">
        <ele>1473.36</ele>
        <time>2020-09-08T13:19:02Z</time>
      </trkpt>
      <trkpt lat="44.97078" lon="5.89232">
        <ele>1470.47</ele>
        <time>2020-09-08T13:19:14Z</time>
      </trkpt>
      <trkpt lat="44.97085" lon="5.89221">
        <ele>1468.07</ele>
        <time>2020-09-08T13:19:26Z</time>
      </trkpt>
      <trkpt lat="44.97087" lon="5.89218">
        <ele>1467.11</ele>
        <time>2020-09-08T13:19:29Z</time>
      </trkpt>
      <trkpt lat="44.97094" lon="5.89212">
        <ele>1464.71</ele>
        <time>2020-09-08T13:19:38Z</time>
      </trkpt>
      <trkpt lat="44.97104" lon="5.89208">
        <ele>1465.19</ele>
        <time>2020-09-08T13:19:51Z</time>
      </trkpt>
      <trkpt lat="44.97109" lon="5.89207">
        <ele>1463.74</ele>
        <time>2020-09-08T13:19:57Z</time>
      </trkpt>
      <trkpt lat="44.97112" lon="5.89208">
        <ele>1463.74</ele>
        <time>2020-09-08T13:20:11Z</time>
      </trkpt>
      <trkpt lat="44.97112" lon="5.89205">
        <ele>1462.78</ele>
        <time>2020-09-08T13:20:22Z</time>
      </trkpt>
      <trkpt lat="44.9711" lon="5.89199">
        <ele>1460.38</ele>
        <time>2020-09-08T13:20:28Z</time>
      </trkpt>
      <trkpt lat="44.97111" lon="5.89194">
        <ele>1459.42</ele>
        <time>2020-09-08T13:20:33Z</time>
      </trkpt>
      <trkpt lat="44.97117" lon="5.89185">
        <ele>1455.09</ele>
        <time>2020-09-08T13:20:43Z</time>
      </trkpt>
      <trkpt lat="44.97122" lon="5.89185">
        <ele>1453.17</ele>
        <time>2020-09-08T13:20:54Z</time>
      </trkpt>
      <trkpt lat="44.97119" lon="5.89183">
        <ele>1452.21</ele>
        <time>2020-09-08T13:20:58Z</time>
      </trkpt>
      <trkpt lat="44.97121" lon="5.89179">
        <ele>1450.29</ele>
        <time>2020-09-08T13:21:06Z</time>
      </trkpt>
      <trkpt lat="44.97122" lon="5.89176">
        <ele>1449.32</ele>
        <time>2020-09-08T13:21:10Z</time>
      </trkpt>
      <trkpt lat="44.97123" lon="5.89173">
        <ele>1447.88</ele>
        <time>2020-09-08T13:21:14Z</time>
      </trkpt>
      <trkpt lat="44.97123" lon="5.89165">
        <ele>1444.52</ele>
        <time>2020-09-08T13:21:25Z</time>
      </trkpt>
      <trkpt lat="44.97126" lon="5.89164">
        <ele>1443.56</ele>
        <time>2020-09-08T13:21:41Z</time>
      </trkpt>
      <trkpt lat="44.97127" lon="5.89162">
        <ele>1442.6</ele>
        <time>2020-09-08T13:21:50Z</time>
      </trkpt>
      <trkpt lat="44.97127" lon="5.89159">
        <ele>1440.67</ele>
        <time>2020-09-08T13:21:53Z</time>
      </trkpt>
      <trkpt lat="44.97129" lon="5.89159">
        <ele>1440.67</ele>
        <time>2020-09-08T13:21:55Z</time>
      </trkpt>
      <trkpt lat="44.97135" lon="5.89158">
        <ele>1439.71</ele>
        <time>2020-09-08T13:21:59Z</time>
      </trkpt>
      <trkpt lat="44.9714" lon="5.8916">
        <ele>1439.23</ele>
        <time>2020-09-08T13:22:03Z</time>
      </trkpt>
      <trkpt lat="44.9716" lon="5.89167">
        <ele>1438.75</ele>
        <time>2020-09-08T13:22:20Z</time>
      </trkpt>
      <trkpt lat="44.97175" lon="5.8917">
        <ele>1437.79</ele>
        <time>2020-09-08T13:22:36Z</time>
      </trkpt>
      <trkpt lat="44.97183" lon="5.8917">
        <ele>1436.83</ele>
        <time>2020-09-08T13:22:47Z</time>
      </trkpt>
      <trkpt lat="44.97199" lon="5.89175">
        <ele>1435.39</ele>
        <time>2020-09-08T13:23:03Z</time>
      </trkpt>
      <trkpt lat="44.97207" lon="5.89183">
        <ele>1432.98</ele>
        <time>2020-09-08T13:23:12Z</time>
      </trkpt>
      <trkpt lat="44.97212" lon="5.89187">
        <ele>1432.02</ele>
        <time>2020-09-08T13:23:18Z</time>
      </trkpt>
      <trkpt lat="44.97214" lon="5.89188">
        <ele>1432.02</ele>
        <time>2020-09-08T13:23:20Z</time>
      </trkpt>
      <trkpt lat="44.97226" lon="5.89198">
        <ele>1430.1</ele>
        <time>2020-09-08T13:23:34Z</time>
      </trkpt>
      <trkpt lat="44.97235" lon="5.89204">
        <ele>1428.18</ele>
        <time>2020-09-08T13:23:45Z</time>
      </trkpt>
      <trkpt lat="44.97238" lon="5.89203">
        <ele>1428.18</ele>
        <time>2020-09-08T13:23:48Z</time>
      </trkpt>
      <trkpt lat="44.97244" lon="5.89205">
        <ele>1428.18</ele>
        <time>2020-09-08T13:24:03Z</time>
      </trkpt>
      <trkpt lat="44.97246" lon="5.89204">
        <ele>1428.18</ele>
        <time>2020-09-08T13:24:12Z</time>
      </trkpt>
      <trkpt lat="44.97248" lon="5.89203">
        <ele>1426.73</ele>
        <time>2020-09-08T13:24:15Z</time>
      </trkpt>
      <trkpt lat="44.97251" lon="5.89203">
        <ele>1426.73</ele>
        <time>2020-09-08T13:24:31Z</time>
      </trkpt>
      <trkpt lat="44.97255" lon="5.89204">
        <ele>1425.77</ele>
        <time>2020-09-08T13:24:52Z</time>
      </trkpt>
      <trkpt lat="44.97266" lon="5.89208">
        <ele>1425.77</ele>
        <time>2020-09-08T13:24:58Z</time>
      </trkpt>
      <trkpt lat="44.97289" lon="5.8922">
        <ele>1424.33</ele>
        <time>2020-09-08T13:25:16Z</time>
      </trkpt>
      <trkpt lat="44.97307" lon="5.8923">
        <ele>1422.89</ele>
        <time>2020-09-08T13:25:33Z</time>
      </trkpt>
      <trkpt lat="44.97319" lon="5.89238">
        <ele>1421.45</ele>
        <time>2020-09-08T13:25:46Z</time>
      </trkpt>
      <trkpt lat="44.97332" lon="5.89244">
        <ele>1419.04</ele>
        <time>2020-09-08T13:25:57Z</time>
      </trkpt>
      <trkpt lat="44.97334" lon="5.89244">
        <ele>1419.04</ele>
        <time>2020-09-08T13:25:59Z</time>
      </trkpt>
      <trkpt lat="44.97352" lon="5.89247">
        <ele>1417.6</ele>
        <time>2020-09-08T13:26:15Z</time>
      </trkpt>
      <trkpt lat="44.97364" lon="5.89257">
        <ele>1415.2</ele>
        <time>2020-09-08T13:26:28Z</time>
      </trkpt>
      <trkpt lat="44.97374" lon="5.89278">
        <ele>1412.31</ele>
        <time>2020-09-08T13:26:44Z</time>
      </trkpt>
      <trkpt lat="44.97381" lon="5.89295">
        <ele>1409.43</ele>
        <time>2020-09-08T13:26:57Z</time>
      </trkpt>
      <trkpt lat="44.97382" lon="5.89296">
        <ele>1409.43</ele>
        <time>2020-09-08T13:26:58Z</time>
      </trkpt>
      <trkpt lat="44.97392" lon="5.8932">
        <ele>1407.03</ele>
        <time>2020-09-08T13:27:14Z</time>
      </trkpt>
      <trkpt lat="44.97399" lon="5.8934">
        <ele>1404.14</ele>
        <time>2020-09-08T13:27:27Z</time>
      </trkpt>
      <trkpt lat="44.97407" lon="5.89356">
        <ele>1402.7</ele>
        <time>2020-09-08T13:27:41Z</time>
      </trkpt>
      <trkpt lat="44.97421" lon="5.89362">
        <ele>1401.26</ele>
        <time>2020-09-08T13:27:57Z</time>
      </trkpt>
      <trkpt lat="44.97431" lon="5.89363">
        <ele>1400.78</ele>
        <time>2020-09-08T13:28:08Z</time>
      </trkpt>
      <trkpt lat="44.97435" lon="5.89363">
        <ele>1399.82</ele>
        <time>2020-09-08T13:28:11Z</time>
      </trkpt>
      <trkpt lat="44.97457" lon="5.89362">
        <ele>1397.89</ele>
        <time>2020-09-08T13:28:28Z</time>
      </trkpt>
      <trkpt lat="44.97458" lon="5.89362">
        <ele>1397.41</ele>
        <time>2020-09-08T13:28:29Z</time>
      </trkpt>
      <trkpt lat="44.97466" lon="5.89363">
        <ele>1397.41</ele>
        <time>2020-09-08T13:28:35Z</time>
      </trkpt>
      <trkpt lat="44.97488" lon="5.89366">
        <ele>1395.49</ele>
        <time>2020-09-08T13:28:51Z</time>
      </trkpt>
      <trkpt lat="44.97506" lon="5.89361">
        <ele>1395.01</ele>
        <time>2020-09-08T13:29:06Z</time>
      </trkpt>
      <trkpt lat="44.97515" lon="5.89364">
        <ele>1393.57</ele>
        <time>2020-09-08T13:29:20Z</time>
      </trkpt>
      <trkpt lat="44.9752" lon="5.89363">
        <ele>1393.57</ele>
        <time>2020-09-08T13:29:33Z</time>
      </trkpt>
      <trkpt lat="44.97522" lon="5.89363">
        <ele>1393.57</ele>
        <time>2020-09-08T13:29:49Z</time>
      </trkpt>
      <trkpt lat="44.97526" lon="5.89362">
        <ele>1393.09</ele>
        <time>2020-09-08T13:30:03Z</time>
      </trkpt>
      <trkpt lat="44.97536" lon="5.89356">
        <ele>1392.61</ele>
        <time>2020-09-08T13:30:19Z</time>
      </trkpt>
      <trkpt lat="44.97553" lon="5.89346">
        <ele>1391.17</ele>
        <time>2020-09-08T13:30:37Z</time>
      </trkpt>
      <trkpt lat="44.97566" lon="5.89343">
        <ele>1389.72</ele>
        <time>2020-09-08T13:30:48Z</time>
      </trkpt>
      <trkpt lat="44.97587" lon="5.89336">
        <ele>1387.32</ele>
        <time>2020-09-08T13:31:05Z</time>
      </trkpt>
      <trkpt lat="44.97599" lon="5.89333">
        <ele>1385.4</ele>
        <time>2020-09-08T13:31:15Z</time>
      </trkpt>
      <trkpt lat="44.97615" lon="5.89329">
        <ele>1382.99</ele>
        <time>2020-09-08T13:31:30Z</time>
      </trkpt>
      <trkpt lat="44.97632" lon="5.89316">
        <ele>1381.07</ele>
        <time>2020-09-08T13:31:47Z</time>
      </trkpt>
      <trkpt lat="44.97641" lon="5.89313">
        <ele>1378.67</ele>
        <time>2020-09-08T13:31:55Z</time>
      </trkpt>
      <trkpt lat="44.97649" lon="5.89311">
        <ele>1377.71</ele>
        <time>2020-09-08T13:32:02Z</time>
      </trkpt>
      <trkpt lat="44.9767" lon="5.8932">
        <ele>1376.26</ele>
        <time>2020-09-08T13:32:19Z</time>
      </trkpt>
      <trkpt lat="44.97686" lon="5.8933">
        <ele>1373.38</ele>
        <time>2020-09-08T13:32:32Z</time>
      </trkpt>
      <trkpt lat="44.97695" lon="5.89337">
        <ele>1372.9</ele>
        <time>2020-09-08T13:32:41Z</time>
      </trkpt>
      <trkpt lat="44.977" lon="5.89339">
        <ele>1372.9</ele>
        <time>2020-09-08T13:32:45Z</time>
      </trkpt>
      <trkpt lat="44.97713" lon="5.89339">
        <ele>1374.34</ele>
        <time>2020-09-08T13:32:57Z</time>
      </trkpt>
      <trkpt lat="44.97723" lon="5.89338">
        <ele>1374.34</ele>
        <time>2020-09-08T13:33:06Z</time>
      </trkpt>
      <trkpt lat="44.97726" lon="5.89338">
        <ele>1374.82</ele>
        <time>2020-09-08T13:33:09Z</time>
      </trkpt>
      <trkpt lat="44.97742" lon="5.89334">
        <ele>1374.82</ele>
        <time>2020-09-08T13:33:23Z</time>
      </trkpt>
      <trkpt lat="44.97748" lon="5.89334">
        <ele>1373.38</ele>
        <time>2020-09-08T13:33:28Z</time>
      </trkpt>
      <trkpt lat="44.9777" lon="5.89336">
        <ele>1370.5</ele>
        <time>2020-09-08T13:33:47Z</time>
      </trkpt>
      <trkpt lat="44.97778" lon="5.89333">
        <ele>1368.57</ele>
        <time>2020-09-08T13:33:53Z</time>
      </trkpt>
      <trkpt lat="44.97789" lon="5.89326">
        <ele>1368.09</ele>
        <time>2020-09-08T13:34:01Z</time>
      </trkpt>
      <trkpt lat="44.97798" lon="5.89322">
        <ele>1367.61</ele>
        <time>2020-09-08T13:34:09Z</time>
      </trkpt>
      <trkpt lat="44.97803" lon="5.8932">
        <ele>1367.61</ele>
        <time>2020-09-08T13:34:14Z</time>
      </trkpt>
      <trkpt lat="44.9782" lon="5.89311">
        <ele>1367.13</ele>
        <time>2020-09-08T13:34:28Z</time>
      </trkpt>
      <trkpt lat="44.97843" lon="5.89302">
        <ele>1364.73</ele>
        <time>2020-09-08T13:34:46Z</time>
      </trkpt>
      <trkpt lat="44.97859" lon="5.89294">
        <ele>1361.84</ele>
        <time>2020-09-08T13:35:01Z</time>
      </trkpt>
      <trkpt lat="44.97874" lon="5.89297">
        <ele>1358.48</ele>
        <time>2020-09-08T13:35:13Z</time>
      </trkpt>
      <trkpt lat="44.97884" lon="5.89296">
        <ele>1355.12</ele>
        <time>2020-09-08T13:35:22Z</time>
      </trkpt>
      <trkpt lat="44.97888" lon="5.89296">
        <ele>1353.67</ele>
        <time>2020-09-08T13:35:26Z</time>
      </trkpt>
      <trkpt lat="44.97896" lon="5.89299">
        <ele>1350.79</ele>
        <time>2020-09-08T13:35:35Z</time>
      </trkpt>
      <trkpt lat="44.97903" lon="5.89297">
        <ele>1348.87</ele>
        <time>2020-09-08T13:35:44Z</time>
      </trkpt>
      <trkpt lat="44.97907" lon="5.89297">
        <ele>1346.94</ele>
        <time>2020-09-08T13:35:47Z</time>
      </trkpt>
      <trkpt lat="44.97911" lon="5.89299">
        <ele>1346.46</ele>
        <time>2020-09-08T13:35:51Z</time>
      </trkpt>
      <trkpt lat="44.97921" lon="5.89299">
        <ele>1343.58</ele>
        <time>2020-09-08T13:36:00Z</time>
      </trkpt>
      <trkpt lat="44.97923" lon="5.89297">
        <ele>1343.58</ele>
        <time>2020-09-08T13:36:03Z</time>
      </trkpt>
      <trkpt lat="44.97939" lon="5.8929">
        <ele>1339.73</ele>
        <time>2020-09-08T13:36:18Z</time>
      </trkpt>
      <trkpt lat="44.97945" lon="5.89288">
        <ele>1337.81</ele>
        <time>2020-09-08T13:36:25Z</time>
      </trkpt>
      <trkpt lat="44.97956" lon="5.89284">
        <ele>1334.45</ele>
        <time>2020-09-08T13:36:37Z</time>
      </trkpt>
      <trkpt lat="44.9797" lon="5.89283">
        <ele>1331.08</ele>
        <time>2020-09-08T13:36:50Z</time>
      </trkpt>
      <trkpt lat="44.97981" lon="5.89283">
        <ele>1328.68</ele>
        <time>2020-09-08T13:37:00Z</time>
      </trkpt>
      <trkpt lat="44.97993" lon="5.89286">
        <ele>1325.31</ele>
        <time>2020-09-08T13:37:12Z</time>
      </trkpt>
      <trkpt lat="44.98005" lon="5.89286">
        <ele>1321.95</ele>
        <time>2020-09-08T13:37:23Z</time>
      </trkpt>
      <trkpt lat="44.98015" lon="5.89288">
        <ele>1320.03</ele>
        <time>2020-09-08T13:37:33Z</time>
      </trkpt>
      <trkpt lat="44.98032" lon="5.8929">
        <ele>1316.18</ele>
        <time>2020-09-08T13:37:47Z</time>
      </trkpt>
      <trkpt lat="44.9804" lon="5.89293">
        <ele>1314.74</ele>
        <time>2020-09-08T13:37:54Z</time>
      </trkpt>
      <trkpt lat="44.98055" lon="5.89297">
        <ele>1311.38</ele>
        <time>2020-09-08T13:38:08Z</time>
      </trkpt>
      <trkpt lat="44.98068" lon="5.89297">
        <ele>1308.01</ele>
        <time>2020-09-08T13:38:20Z</time>
      </trkpt>
      <trkpt lat="44.98078" lon="5.89298">
        <ele>1304.65</ele>
        <time>2020-09-08T13:38:30Z</time>
      </trkpt>
      <trkpt lat="44.98091" lon="5.89302">
        <ele>1301.76</ele>
        <time>2020-09-08T13:38:43Z</time>
      </trkpt>
      <trkpt lat="44.98104" lon="5.89308">
        <ele>1297.92</ele>
        <time>2020-09-08T13:38:56Z</time>
      </trkpt>
      <trkpt lat="44.98105" lon="5.8931">
        <ele>1296.96</ele>
        <time>2020-09-08T13:38:58Z</time>
      </trkpt>
      <trkpt lat="44.98108" lon="5.89313">
        <ele>1295.51</ele>
        <time>2020-09-08T13:39:02Z</time>
      </trkpt>
      <trkpt lat="44.98116" lon="5.89318">
        <ele>1292.15</ele>
        <time>2020-09-08T13:39:12Z</time>
      </trkpt>
      <trkpt lat="44.98123" lon="5.89326">
        <ele>1289.27</ele>
        <time>2020-09-08T13:39:21Z</time>
      </trkpt>
      <trkpt lat="44.98124" lon="5.89327">
        <ele>1288.3</ele>
        <time>2020-09-08T13:39:23Z</time>
      </trkpt>
      <trkpt lat="44.98131" lon="5.89335">
        <ele>1285.42</ele>
        <time>2020-09-08T13:39:34Z</time>
      </trkpt>
      <trkpt lat="44.98141" lon="5.89351">
        <ele>1283.02</ele>
        <time>2020-09-08T13:39:45Z</time>
      </trkpt>
      <trkpt lat="44.98152" lon="5.89365">
        <ele>1280.61</ele>
        <time>2020-09-08T13:39:55Z</time>
      </trkpt>
      <trkpt lat="44.98163" lon="5.89386">
        <ele>1277.73</ele>
        <time>2020-09-08T13:40:11Z</time>
      </trkpt>
      <trkpt lat="44.98166" lon="5.89392">
        <ele>1276.77</ele>
        <time>2020-09-08T13:40:15Z</time>
      </trkpt>
      <trkpt lat="44.98173" lon="5.89416">
        <ele>1273.88</ele>
        <time>2020-09-08T13:40:30Z</time>
      </trkpt>
      <trkpt lat="44.98174" lon="5.8942">
        <ele>1273.4</ele>
        <time>2020-09-08T13:40:33Z</time>
      </trkpt>
      <trkpt lat="44.98183" lon="5.89436">
        <ele>1270.52</ele>
        <time>2020-09-08T13:40:46Z</time>
      </trkpt>
      <trkpt lat="44.98192" lon="5.89455">
        <ele>1267.16</ele>
        <time>2020-09-08T13:41:01Z</time>
      </trkpt>
      <trkpt lat="44.982" lon="5.89474">
        <ele>1265.23</ele>
        <time>2020-09-08T13:41:14Z</time>
      </trkpt>
      <trkpt lat="44.98208" lon="5.89492">
        <ele>1262.35</ele>
        <time>2020-09-08T13:41:28Z</time>
      </trkpt>
      <trkpt lat="44.98209" lon="5.89494">
        <ele>1261.87</ele>
        <time>2020-09-08T13:41:31Z</time>
      </trkpt>
      <trkpt lat="44.98221" lon="5.89509">
        <ele>1259.46</ele>
        <time>2020-09-08T13:41:47Z</time>
      </trkpt>
      <trkpt lat="44.98228" lon="5.89524">
        <ele>1256.58</ele>
        <time>2020-09-08T13:42:01Z</time>
      </trkpt>
      <trkpt lat="44.9824" lon="5.89552">
        <ele>1254.18</ele>
        <time>2020-09-08T13:42:17Z</time>
      </trkpt>
      <trkpt lat="44.98243" lon="5.89553">
        <ele>1253.22</ele>
        <time>2020-09-08T13:42:21Z</time>
      </trkpt>
      <trkpt lat="44.98243" lon="5.89549">
        <ele>1251.77</ele>
        <time>2020-09-08T13:42:29Z</time>
      </trkpt>
      <trkpt lat="44.98248" lon="5.89535">
        <ele>1247.93</ele>
        <time>2020-09-08T13:42:41Z</time>
      </trkpt>
      <trkpt lat="44.98252" lon="5.89533">
        <ele>1247.45</ele>
        <time>2020-09-08T13:42:45Z</time>
      </trkpt>
      <trkpt lat="44.98254" lon="5.89535">
        <ele>1246.97</ele>
        <time>2020-09-08T13:42:47Z</time>
      </trkpt>
      <trkpt lat="44.98258" lon="5.8955">
        <ele>1245.04</ele>
        <time>2020-09-08T13:43:00Z</time>
      </trkpt>
      <trkpt lat="44.98262" lon="5.89577">
        <ele>1241.68</ele>
        <time>2020-09-08T13:43:16Z</time>
      </trkpt>
      <trkpt lat="44.98266" lon="5.89598">
        <ele>1237.83</ele>
        <time>2020-09-08T13:43:30Z</time>
      </trkpt>
      <trkpt lat="44.98269" lon="5.89625">
        <ele>1234.95</ele>
        <time>2020-09-08T13:43:48Z</time>
      </trkpt>
      <trkpt lat="44.98269" lon="5.89626">
        <ele>1234.95</ele>
        <time>2020-09-08T13:43:49Z</time>
      </trkpt>
      <trkpt lat="44.98274" lon="5.89651">
        <ele>1231.59</ele>
        <time>2020-09-08T13:44:03Z</time>
      </trkpt>
      <trkpt lat="44.9828" lon="5.89675">
        <ele>1227.74</ele>
        <time>2020-09-08T13:44:18Z</time>
      </trkpt>
      <trkpt lat="44.9829" lon="5.89694">
        <ele>1224.86</ele>
        <time>2020-09-08T13:44:32Z</time>
      </trkpt>
      <trkpt lat="44.98291" lon="5.89699">
        <ele>1224.86</ele>
        <time>2020-09-08T13:44:34Z</time>
      </trkpt>
      <trkpt lat="44.98295" lon="5.89715">
        <ele>1224.38</ele>
        <time>2020-09-08T13:44:43Z</time>
      </trkpt>
      <trkpt lat="44.98299" lon="5.89722">
        <ele>1225.82</ele>
        <time>2020-09-08T13:44:48Z</time>
      </trkpt>
      <trkpt lat="44.98305" lon="5.89732">
        <ele>1226.3</ele>
        <time>2020-09-08T13:44:56Z</time>
      </trkpt>
      <trkpt lat="44.98312" lon="5.89743">
        <ele>1225.82</ele>
        <time>2020-09-08T13:45:07Z</time>
      </trkpt>
      <trkpt lat="44.98318" lon="5.8973">
        <ele>1226.78</ele>
        <time>2020-09-08T13:45:24Z</time>
      </trkpt>
      <trkpt lat="44.98328" lon="5.89709">
        <ele>1227.74</ele>
        <time>2020-09-08T13:45:40Z</time>
      </trkpt>
      <trkpt lat="44.98335" lon="5.89683">
        <ele>1229.18</ele>
        <time>2020-09-08T13:45:56Z</time>
      </trkpt>
      <trkpt lat="44.98337" lon="5.89676">
        <ele>1229.66</ele>
        <time>2020-09-08T13:46:00Z</time>
      </trkpt>
      <trkpt lat="44.98339" lon="5.89645">
        <ele>1230.62</ele>
        <time>2020-09-08T13:46:17Z</time>
      </trkpt>
      <trkpt lat="44.9834" lon="5.89638">
        <ele>1230.62</ele>
        <time>2020-09-08T13:46:21Z</time>
      </trkpt>
      <trkpt lat="44.98343" lon="5.89625">
        <ele>1230.62</ele>
        <time>2020-09-08T13:46:27Z</time>
      </trkpt>
      <trkpt lat="44.98347" lon="5.89597">
        <ele>1233.03</ele>
        <time>2020-09-08T13:46:43Z</time>
      </trkpt>
      <trkpt lat="44.98352" lon="5.89572">
        <ele>1232.07</ele>
        <time>2020-09-08T13:46:56Z</time>
      </trkpt>
      <trkpt lat="44.98363" lon="5.89535">
        <ele>1232.55</ele>
        <time>2020-09-08T13:47:15Z</time>
      </trkpt>
      <trkpt lat="44.98362" lon="5.89523">
        <ele>1229.18</ele>
        <time>2020-09-08T13:47:23Z</time>
      </trkpt>
      <trkpt lat="44.98356" lon="5.89498">
        <ele>1228.22</ele>
        <time>2020-09-08T13:47:39Z</time>
      </trkpt>
      <trkpt lat="44.98357" lon="5.89468">
        <ele>1227.26</ele>
        <time>2020-09-08T13:47:56Z</time>
      </trkpt>
      <trkpt lat="44.9836" lon="5.89444">
        <ele>1225.82</ele>
        <time>2020-09-08T13:48:10Z</time>
      </trkpt>
      <trkpt lat="44.98362" lon="5.89429">
        <ele>1223.9</ele>
        <time>2020-09-08T13:48:24Z</time>
      </trkpt>
      <trkpt lat="44.98362" lon="5.89427">
        <ele>1222.93</ele>
        <time>2020-09-08T13:48:35Z</time>
      </trkpt>
      <trkpt lat="44.98358" lon="5.8943">
        <ele>1222.45</ele>
        <time>2020-09-08T13:48:40Z</time>
      </trkpt>
      <trkpt lat="44.98345" lon="5.89412">
        <ele>1220.53</ele>
        <time>2020-09-08T13:48:56Z</time>
      </trkpt>
      <trkpt lat="44.98338" lon="5.89383">
        <ele>1218.61</ele>
        <time>2020-09-08T13:49:13Z</time>
      </trkpt>
      <trkpt lat="44.98342" lon="5.89355">
        <ele>1216.69</ele>
        <time>2020-09-08T13:49:26Z</time>
      </trkpt>
      <trkpt lat="44.98355" lon="5.89327">
        <ele>1214.76</ele>
        <time>2020-09-08T13:49:43Z</time>
      </trkpt>
      <trkpt lat="44.9836" lon="5.8932">
        <ele>1213.8</ele>
        <time>2020-09-08T13:49:58Z</time>
      </trkpt>
      <trkpt lat="44.9836" lon="5.89319">
        <ele>1213.32</ele>
        <time>2020-09-08T13:49:59Z</time>
      </trkpt>
      <trkpt lat="44.98362" lon="5.89316">
        <ele>1213.32</ele>
        <time>2020-09-08T13:50:02Z</time>
      </trkpt>
      <trkpt lat="44.98373" lon="5.89287">
        <ele>1210.92</ele>
        <time>2020-09-08T13:50:22Z</time>
      </trkpt>
      <trkpt lat="44.98384" lon="5.8926">
        <ele>1208.51</ele>
        <time>2020-09-08T13:50:40Z</time>
      </trkpt>
      <trkpt lat="44.98394" lon="5.89238">
        <ele>1207.07</ele>
        <time>2020-09-08T13:50:56Z</time>
      </trkpt>
      <trkpt lat="44.984" lon="5.89223">
        <ele>1205.63</ele>
        <time>2020-09-08T13:51:07Z</time>
      </trkpt>
      <trkpt lat="44.98403" lon="5.89218">
        <ele>1205.63</ele>
        <time>2020-09-08T13:51:12Z</time>
      </trkpt>
      <trkpt lat="44.98404" lon="5.89213">
        <ele>1204.19</ele>
        <time>2020-09-08T13:51:16Z</time>
      </trkpt>
      <trkpt lat="44.98415" lon="5.89189">
        <ele>1201.79</ele>
        <time>2020-09-08T13:51:35Z</time>
      </trkpt>
      <trkpt lat="44.98421" lon="5.89182">
        <ele>1199.86</ele>
        <time>2020-09-08T13:51:48Z</time>
      </trkpt>
      <trkpt lat="44.98421" lon="5.89182">
        <ele>1201.3</ele>
        <time>2020-09-08T13:51:51Z</time>
      </trkpt>
      <trkpt lat="44.98424" lon="5.89182">
        <ele>1199.38</ele>
        <time>2020-09-08T13:52:08Z</time>
      </trkpt>
      <trkpt lat="44.98424" lon="5.89183">
        <ele>1199.38</ele>
        <time>2020-09-08T13:52:34Z</time>
      </trkpt>
    </trkseg>
  </trk>
</gpx>